<?xml version='1.0' encoding='UTF-8'?>
<gpx version="1.1" creator="https://www.komoot.de" xmlns="http://www.topografix.com/GPX/1/1" xmlns:xsi="http://www.w3.org/2001/XMLSchema-instance" xsi:schemaLocation="http://www.topografix.com/GPX/1/1 http://www.topografix.com/GPX/1/1/gpx.xsd">
  <metadata>
    <name>55_1000WehrHornberg</name>
    <author>
      <link href="https://www.komoot.de">
        <text>komoot</text>
        <type>text/html</type>
      </link>
    </author>
  </metadata>
  <trk>
    <name>55_1000WehrHornberg</name>
    <trkseg>
      <trkpt lat="47.541342" lon="7.870847">
        <ele>339.196052</ele>
        <time>2021-11-14T15:51:48.758Z</time>
      </trkpt>
      <trkpt lat="47.541410" lon="7.870791">
        <ele>339.196052</ele>
        <time>2021-11-14T15:51:49.972Z</time>
      </trkpt>
      <trkpt lat="47.541576" lon="7.870664">
        <ele>339.196052</ele>
        <time>2021-11-14T15:51:52.411Z</time>
      </trkpt>
      <trkpt lat="47.541550" lon="7.870601">
        <ele>339.196052</ele>
        <time>2021-11-14T15:51:53.222Z</time>
      </trkpt>
      <trkpt lat="47.541521" lon="7.870517">
        <ele>339.196052</ele>
        <time>2021-11-14T15:51:54.267Z</time>
      </trkpt>
      <trkpt lat="47.541606" lon="7.870424">
        <ele>339.196052</ele>
        <time>2021-11-14T15:51:55.907Z</time>
      </trkpt>
      <trkpt lat="47.541910" lon="7.870106">
        <ele>339.196052</ele>
        <time>2021-11-14T15:52:01.569Z</time>
      </trkpt>
      <trkpt lat="47.542014" lon="7.870126">
        <ele>339.136743</ele>
        <time>2021-11-14T15:52:03.040Z</time>
      </trkpt>
      <trkpt lat="47.542118" lon="7.870135">
        <ele>339.036348</ele>
        <time>2021-11-14T15:52:04.782Z</time>
      </trkpt>
      <trkpt lat="47.542181" lon="7.870131">
        <ele>338.975580</ele>
        <time>2021-11-14T15:52:05.647Z</time>
      </trkpt>
      <trkpt lat="47.542317" lon="7.870012">
        <ele>338.823363</ele>
        <time>2021-11-14T15:52:07.760Z</time>
      </trkpt>
      <trkpt lat="47.542348" lon="7.869983">
        <ele>338.788031</ele>
        <time>2021-11-14T15:52:08.199Z</time>
      </trkpt>
      <trkpt lat="47.542329" lon="7.869820">
        <ele>338.680425</ele>
        <time>2021-11-14T15:52:09.984Z</time>
      </trkpt>
      <trkpt lat="47.542372" lon="7.869746">
        <ele>338.616907</ele>
        <time>2021-11-14T15:52:10.790Z</time>
      </trkpt>
      <trkpt lat="47.542657" lon="7.869354">
        <ele>338.242124</ele>
        <time>2021-11-14T15:52:15.588Z</time>
      </trkpt>
      <trkpt lat="47.542696" lon="7.869257">
        <ele>338.168678</ele>
        <time>2021-11-14T15:52:16.524Z</time>
      </trkpt>
      <trkpt lat="47.542722" lon="7.869201">
        <ele>338.124464</ele>
        <time>2021-11-14T15:52:17.115Z</time>
      </trkpt>
      <trkpt lat="47.543049" lon="7.868759">
        <ele>337.697873</ele>
        <time>2021-11-14T15:52:22.028Z</time>
      </trkpt>
      <trkpt lat="47.543105" lon="7.868711">
        <ele>337.635525</ele>
        <time>2021-11-14T15:52:22.766Z</time>
      </trkpt>
      <trkpt lat="47.543201" lon="7.868657">
        <ele>337.536566</ele>
        <time>2021-11-14T15:52:23.845Z</time>
      </trkpt>
      <trkpt lat="47.543657" lon="7.868359">
        <ele>336.908862</ele>
        <time>2021-11-14T15:52:29.640Z</time>
      </trkpt>
      <trkpt lat="47.543801" lon="7.868269">
        <ele>336.703625</ele>
        <time>2021-11-14T15:52:32.119Z</time>
      </trkpt>
      <trkpt lat="47.544214" lon="7.867988">
        <ele>336.106819</ele>
        <time>2021-11-14T15:52:39.736Z</time>
      </trkpt>
      <trkpt lat="47.544246" lon="7.867967">
        <ele>336.060859</ele>
        <time>2021-11-14T15:52:40.333Z</time>
      </trkpt>
      <trkpt lat="47.544410" lon="7.867825">
        <ele>335.811412</ele>
        <time>2021-11-14T15:52:43.586Z</time>
      </trkpt>
      <trkpt lat="47.544469" lon="7.867776">
        <ele>335.722591</ele>
        <time>2021-11-14T15:52:44.608Z</time>
      </trkpt>
      <trkpt lat="47.544568" lon="7.867693">
        <ele>335.573212</ele>
        <time>2021-11-14T15:52:46.535Z</time>
      </trkpt>
      <trkpt lat="47.545003" lon="7.867278">
        <ele>335.195657</ele>
        <time>2021-11-14T15:52:55.383Z</time>
      </trkpt>
      <trkpt lat="47.545160" lon="7.866985">
        <ele>335.347616</ele>
        <time>2021-11-14T15:53:00.033Z</time>
      </trkpt>
      <trkpt lat="47.545240" lon="7.866887">
        <ele>335.410085</ele>
        <time>2021-11-14T15:53:02.307Z</time>
      </trkpt>
      <trkpt lat="47.546096" lon="7.866147">
        <ele>336.006495</ele>
        <time>2021-11-14T15:53:27.377Z</time>
      </trkpt>
      <trkpt lat="47.546327" lon="7.865959">
        <ele>336.165101</ele>
        <time>2021-11-14T15:53:33.798Z</time>
      </trkpt>
      <trkpt lat="47.546510" lon="7.865766">
        <ele>336.212192</ele>
        <time>2021-11-14T15:53:40.184Z</time>
      </trkpt>
      <trkpt lat="47.546819" lon="7.865489">
        <ele>336.266043</ele>
        <time>2021-11-14T15:53:48.337Z</time>
      </trkpt>
      <trkpt lat="47.546889" lon="7.865225">
        <ele>336.294590</ele>
        <time>2021-11-14T15:53:52.124Z</time>
      </trkpt>
      <trkpt lat="47.546894" lon="7.864837">
        <ele>336.333647</ele>
        <time>2021-11-14T15:53:57.301Z</time>
      </trkpt>
      <trkpt lat="47.546885" lon="7.864500">
        <ele>336.367590</ele>
        <time>2021-11-14T15:54:02.940Z</time>
      </trkpt>
      <trkpt lat="47.546974" lon="7.864423">
        <ele>336.382958</ele>
        <time>2021-11-14T15:54:04.528Z</time>
      </trkpt>
      <trkpt lat="47.547320" lon="7.863864">
        <ele>336.368306</ele>
        <time>2021-11-14T15:54:14.453Z</time>
      </trkpt>
      <trkpt lat="47.547568" lon="7.863151">
        <ele>335.522508</ele>
        <time>2021-11-14T15:54:23.466Z</time>
      </trkpt>
      <trkpt lat="47.547930" lon="7.861711">
        <ele>333.902171</ele>
        <time>2021-11-14T15:54:39.840Z</time>
      </trkpt>
      <trkpt lat="47.548049" lon="7.860929">
        <ele>333.177454</ele>
        <time>2021-11-14T15:54:48.539Z</time>
      </trkpt>
      <trkpt lat="47.548334" lon="7.859801">
        <ele>332.169374</ele>
        <time>2021-11-14T15:55:02.021Z</time>
      </trkpt>
      <trkpt lat="47.548611" lon="7.858381">
        <ele>331.335829</ele>
        <time>2021-11-14T15:55:19.977Z</time>
      </trkpt>
      <trkpt lat="47.548686" lon="7.857973">
        <ele>331.280190</ele>
        <time>2021-11-14T15:55:25.366Z</time>
      </trkpt>
      <trkpt lat="47.548701" lon="7.857893">
        <ele>331.269265</ele>
        <time>2021-11-14T15:55:26.487Z</time>
      </trkpt>
      <trkpt lat="47.548743" lon="7.857692">
        <ele>331.241579</ele>
        <time>2021-11-14T15:55:29.261Z</time>
      </trkpt>
      <trkpt lat="47.548887" lon="7.857308">
        <ele>331.183778</ele>
        <time>2021-11-14T15:55:35.294Z</time>
      </trkpt>
      <trkpt lat="47.549362" lon="7.855774">
        <ele>330.863828</ele>
        <time>2021-11-14T15:55:59.339Z</time>
      </trkpt>
      <trkpt lat="47.549566" lon="7.855225">
        <ele>330.699649</ele>
        <time>2021-11-14T15:56:07.957Z</time>
      </trkpt>
      <trkpt lat="47.549883" lon="7.854434">
        <ele>330.458654</ele>
        <time>2021-11-14T15:56:19.410Z</time>
      </trkpt>
      <trkpt lat="47.550221" lon="7.853833">
        <ele>329.671433</ele>
        <time>2021-11-14T15:56:25.804Z</time>
      </trkpt>
      <trkpt lat="47.551516" lon="7.851950">
        <ele>324.960832</ele>
        <time>2021-11-14T15:56:44.601Z</time>
      </trkpt>
      <trkpt lat="47.551660" lon="7.851725">
        <ele>324.280101</ele>
        <time>2021-11-14T15:56:46.632Z</time>
      </trkpt>
      <trkpt lat="47.551830" lon="7.851603">
        <ele>323.665680</ele>
        <time>2021-11-14T15:56:48.553Z</time>
      </trkpt>
      <trkpt lat="47.551925" lon="7.851845">
        <ele>323.051069</ele>
        <time>2021-11-14T15:56:50.397Z</time>
      </trkpt>
      <trkpt lat="47.552042" lon="7.852007">
        <ele>322.530182</ele>
        <time>2021-11-14T15:56:52.043Z</time>
      </trkpt>
      <trkpt lat="47.552097" lon="7.852063">
        <ele>322.313110</ele>
        <time>2021-11-14T15:56:52.674Z</time>
      </trkpt>
      <trkpt lat="47.552272" lon="7.852167">
        <ele>321.699793</ele>
        <time>2021-11-14T15:56:54.580Z</time>
      </trkpt>
      <trkpt lat="47.552449" lon="7.852231">
        <ele>321.107156</ele>
        <time>2021-11-14T15:56:56.380Z</time>
      </trkpt>
      <trkpt lat="47.552678" lon="7.851709">
        <ele>319.856807</ele>
        <time>2021-11-14T15:57:00.683Z</time>
      </trkpt>
      <trkpt lat="47.552876" lon="7.851300">
        <ele>319.139565</ele>
        <time>2021-11-14T15:57:04.227Z</time>
      </trkpt>
      <trkpt lat="47.553283" lon="7.850634">
        <ele>317.859298</ele>
        <time>2021-11-14T15:57:10.892Z</time>
      </trkpt>
      <trkpt lat="47.553344" lon="7.850525">
        <ele>317.657526</ele>
        <time>2021-11-14T15:57:11.973Z</time>
      </trkpt>
      <trkpt lat="47.553380" lon="7.850453">
        <ele>317.529841</ele>
        <time>2021-11-14T15:57:12.671Z</time>
      </trkpt>
      <trkpt lat="47.553537" lon="7.849904">
        <ele>316.680209</ele>
        <time>2021-11-14T15:57:17.170Z</time>
      </trkpt>
      <trkpt lat="47.553605" lon="7.849629">
        <ele>316.266678</ele>
        <time>2021-11-14T15:57:19.423Z</time>
      </trkpt>
      <trkpt lat="47.553725" lon="7.849291">
        <ele>315.898857</ele>
        <time>2021-11-14T15:57:22.363Z</time>
      </trkpt>
      <trkpt lat="47.554055" lon="7.848586">
        <ele>315.072552</ele>
        <time>2021-11-14T15:57:29.263Z</time>
      </trkpt>
      <trkpt lat="47.554209" lon="7.848300">
        <ele>314.720182</ele>
        <time>2021-11-14T15:57:32.201Z</time>
      </trkpt>
      <trkpt lat="47.554269" lon="7.848188">
        <ele>314.582464</ele>
        <time>2021-11-14T15:57:33.296Z</time>
      </trkpt>
      <trkpt lat="47.554351" lon="7.848049">
        <ele>314.404662</ele>
        <time>2021-11-14T15:57:34.742Z</time>
      </trkpt>
      <trkpt lat="47.554465" lon="7.847858">
        <ele>314.159096</ele>
        <time>2021-11-14T15:57:36.762Z</time>
      </trkpt>
      <trkpt lat="47.554618" lon="7.847626">
        <ele>313.846697</ele>
        <time>2021-11-14T15:57:39.261Z</time>
      </trkpt>
      <trkpt lat="47.554759" lon="7.847388">
        <ele>313.559270</ele>
        <time>2021-11-14T15:57:41.678Z</time>
      </trkpt>
      <trkpt lat="47.554892" lon="7.847148">
        <ele>313.291814</ele>
        <time>2021-11-14T15:57:44.109Z</time>
      </trkpt>
      <trkpt lat="47.554995" lon="7.846915">
        <ele>313.051926</ele>
        <time>2021-11-14T15:57:46.266Z</time>
      </trkpt>
      <trkpt lat="47.555068" lon="7.846672">
        <ele>312.822845</ele>
        <time>2021-11-14T15:57:48.327Z</time>
      </trkpt>
      <trkpt lat="47.555199" lon="7.846687">
        <ele>312.655171</ele>
        <time>2021-11-14T15:57:49.808Z</time>
      </trkpt>
      <trkpt lat="47.555727" lon="7.846715">
        <ele>311.980933</ele>
        <time>2021-11-14T15:57:56.266Z</time>
      </trkpt>
      <trkpt lat="47.555855" lon="7.846815">
        <ele>311.796273</ele>
        <time>2021-11-14T15:57:57.928Z</time>
      </trkpt>
      <trkpt lat="47.555892" lon="7.846856">
        <ele>311.737312</ele>
        <time>2021-11-14T15:57:58.485Z</time>
      </trkpt>
      <trkpt lat="47.555966" lon="7.846932">
        <ele>311.622412</ele>
        <time>2021-11-14T15:57:59.635Z</time>
      </trkpt>
      <trkpt lat="47.555990" lon="7.846965">
        <ele>311.580629</ele>
        <time>2021-11-14T15:58:00.067Z</time>
      </trkpt>
      <trkpt lat="47.556060" lon="7.846859">
        <ele>311.452903</ele>
        <time>2021-11-14T15:58:01.261Z</time>
      </trkpt>
      <trkpt lat="47.556636" lon="7.845928">
        <ele>310.791889</ele>
        <time>2021-11-14T15:58:11.647Z</time>
      </trkpt>
      <trkpt lat="47.557134" lon="7.845095">
        <ele>310.223955</ele>
        <time>2021-11-14T15:58:21.466Z</time>
      </trkpt>
      <trkpt lat="47.557282" lon="7.844832">
        <ele>310.051871</ele>
        <time>2021-11-14T15:58:24.606Z</time>
      </trkpt>
      <trkpt lat="47.557560" lon="7.844433">
        <ele>310.003967</ele>
        <time>2021-11-14T15:58:29.781Z</time>
      </trkpt>
      <trkpt lat="47.557715" lon="7.843940">
        <ele>309.958538</ele>
        <time>2021-11-14T15:58:34.786Z</time>
      </trkpt>
      <trkpt lat="47.557759" lon="7.843839">
        <ele>309.948496</ele>
        <time>2021-11-14T15:58:35.965Z</time>
      </trkpt>
      <trkpt lat="47.557846" lon="7.843756">
        <ele>309.935689</ele>
        <time>2021-11-14T15:58:37.313Z</time>
      </trkpt>
      <trkpt lat="47.557967" lon="7.843683">
        <ele>309.919518</ele>
        <time>2021-11-14T15:58:39.343Z</time>
      </trkpt>
      <trkpt lat="47.557967" lon="7.843683">
        <ele>309.919518</ele>
        <time>2021-11-14T15:58:39.348Z</time>
      </trkpt>
      <trkpt lat="47.557967" lon="7.843683">
        <ele>309.919518</ele>
        <time>2021-11-14T15:58:39.422Z</time>
      </trkpt>
      <trkpt lat="47.558136" lon="7.843582">
        <ele>309.896963</ele>
        <time>2021-11-14T15:58:42.109Z</time>
      </trkpt>
      <trkpt lat="47.558405" lon="7.843371">
        <ele>309.859291</ele>
        <time>2021-11-14T15:58:46.974Z</time>
      </trkpt>
      <trkpt lat="47.558471" lon="7.843365">
        <ele>309.851106</ele>
        <time>2021-11-14T15:58:47.825Z</time>
      </trkpt>
      <trkpt lat="47.558555" lon="7.843392">
        <ele>309.840467</ele>
        <time>2021-11-14T15:58:49.107Z</time>
      </trkpt>
      <trkpt lat="47.558884" lon="7.843836">
        <ele>309.864853</ele>
        <time>2021-11-14T15:58:56.386Z</time>
      </trkpt>
      <trkpt lat="47.559060" lon="7.844197">
        <ele>309.894261</ele>
        <time>2021-11-14T15:59:01.212Z</time>
      </trkpt>
      <trkpt lat="47.559109" lon="7.844229">
        <ele>309.899501</ele>
        <time>2021-11-14T15:59:02.190Z</time>
      </trkpt>
      <trkpt lat="47.559158" lon="7.844233">
        <ele>309.904303</ele>
        <time>2021-11-14T15:59:03.207Z</time>
      </trkpt>
      <trkpt lat="47.559583" lon="7.843813">
        <ele>309.954290</ele>
        <time>2021-11-14T15:59:11.187Z</time>
      </trkpt>
      <trkpt lat="47.559847" lon="7.843604">
        <ele>309.983579</ele>
        <time>2021-11-14T15:59:15.585Z</time>
      </trkpt>
      <trkpt lat="47.560139" lon="7.843433">
        <ele>309.922579</ele>
        <time>2021-11-14T15:59:19.816Z</time>
      </trkpt>
      <trkpt lat="47.560209" lon="7.843393">
        <ele>309.850996</ele>
        <time>2021-11-14T15:59:20.767Z</time>
      </trkpt>
      <trkpt lat="47.560338" lon="7.843341">
        <ele>309.723439</ele>
        <time>2021-11-14T15:59:22.433Z</time>
      </trkpt>
      <trkpt lat="47.560430" lon="7.843341">
        <ele>309.635658</ele>
        <time>2021-11-14T15:59:23.976Z</time>
      </trkpt>
      <trkpt lat="47.560515" lon="7.843379">
        <ele>309.550946</ele>
        <time>2021-11-14T15:59:25.010Z</time>
      </trkpt>
      <trkpt lat="47.560812" lon="7.843560">
        <ele>309.244539</ele>
        <time>2021-11-14T15:59:29.069Z</time>
      </trkpt>
      <trkpt lat="47.560934" lon="7.843550">
        <ele>309.127956</ele>
        <time>2021-11-14T15:59:30.591Z</time>
      </trkpt>
      <trkpt lat="47.561038" lon="7.843502">
        <ele>309.024024</ele>
        <time>2021-11-14T15:59:31.880Z</time>
      </trkpt>
      <trkpt lat="47.561434" lon="7.843181">
        <ele>308.593353</ele>
        <time>2021-11-14T15:59:37.321Z</time>
      </trkpt>
      <trkpt lat="47.561498" lon="7.843130">
        <ele>308.524019</ele>
        <time>2021-11-14T15:59:38.084Z</time>
      </trkpt>
      <trkpt lat="47.562179" lon="7.842500">
        <ele>307.597320</ele>
        <time>2021-11-14T15:59:47.342Z</time>
      </trkpt>
      <trkpt lat="47.562300" lon="7.842326">
        <ele>307.387812</ele>
        <time>2021-11-14T15:59:49.291Z</time>
      </trkpt>
      <trkpt lat="47.562385" lon="7.842183">
        <ele>307.228021</ele>
        <time>2021-11-14T15:59:50.705Z</time>
      </trkpt>
      <trkpt lat="47.562440" lon="7.842083">
        <ele>307.119847</ele>
        <time>2021-11-14T15:59:51.819Z</time>
      </trkpt>
      <trkpt lat="47.562574" lon="7.841873">
        <ele>306.877502</ele>
        <time>2021-11-14T15:59:54.213Z</time>
      </trkpt>
      <trkpt lat="47.562904" lon="7.841632">
        <ele>306.420353</ele>
        <time>2021-11-14T15:59:58.702Z</time>
      </trkpt>
      <trkpt lat="47.562965" lon="7.841597">
        <ele>306.339071</ele>
        <time>2021-11-14T15:59:59.495Z</time>
      </trkpt>
      <trkpt lat="47.563016" lon="7.841568">
        <ele>306.271192</ele>
        <time>2021-11-14T16:00:00.195Z</time>
      </trkpt>
      <trkpt lat="47.563300" lon="7.841391">
        <ele>305.913639</ele>
        <time>2021-11-14T16:00:03.933Z</time>
      </trkpt>
      <trkpt lat="47.563483" lon="7.841269">
        <ele>305.702216</ele>
        <time>2021-11-14T16:00:06.487Z</time>
      </trkpt>
      <trkpt lat="47.563659" lon="7.841150">
        <ele>305.498391</ele>
        <time>2021-11-14T16:00:08.817Z</time>
      </trkpt>
      <trkpt lat="47.563805" lon="7.841046">
        <ele>305.327716</ele>
        <time>2021-11-14T16:00:10.876Z</time>
      </trkpt>
      <trkpt lat="47.563941" lon="7.840948">
        <ele>305.168383</ele>
        <time>2021-11-14T16:00:12.731Z</time>
      </trkpt>
      <trkpt lat="47.563986" lon="7.840916">
        <ele>305.115795</ele>
        <time>2021-11-14T16:00:13.351Z</time>
      </trkpt>
      <trkpt lat="47.564094" lon="7.840838">
        <ele>304.989211</ele>
        <time>2021-11-14T16:00:14.818Z</time>
      </trkpt>
      <trkpt lat="47.564463" lon="7.840580">
        <ele>304.559330</ele>
        <time>2021-11-14T16:00:19.809Z</time>
      </trkpt>
      <trkpt lat="47.564534" lon="7.840532">
        <ele>304.477107</ele>
        <time>2021-11-14T16:00:20.716Z</time>
      </trkpt>
      <trkpt lat="47.564558" lon="7.840516">
        <ele>304.449379</ele>
        <time>2021-11-14T16:00:21.040Z</time>
      </trkpt>
      <trkpt lat="47.564936" lon="7.840261">
        <ele>303.997783</ele>
        <time>2021-11-14T16:00:25.941Z</time>
      </trkpt>
      <trkpt lat="47.565057" lon="7.840213">
        <ele>303.853292</ele>
        <time>2021-11-14T16:00:27.355Z</time>
      </trkpt>
      <trkpt lat="47.565168" lon="7.840179">
        <ele>303.722543</ele>
        <time>2021-11-14T16:00:28.696Z</time>
      </trkpt>
      <trkpt lat="47.565233" lon="7.840176">
        <ele>303.647527</ele>
        <time>2021-11-14T16:00:29.432Z</time>
      </trkpt>
      <trkpt lat="47.565343" lon="7.840185">
        <ele>303.520445</ele>
        <time>2021-11-14T16:00:30.691Z</time>
      </trkpt>
      <trkpt lat="47.565906" lon="7.840272">
        <ele>302.867483</ele>
        <time>2021-11-14T16:00:37.359Z</time>
      </trkpt>
      <trkpt lat="47.566081" lon="7.840309">
        <ele>302.663571</ele>
        <time>2021-11-14T16:00:39.474Z</time>
      </trkpt>
      <trkpt lat="47.566142" lon="7.840322">
        <ele>302.592481</ele>
        <time>2021-11-14T16:00:40.209Z</time>
      </trkpt>
      <trkpt lat="47.566221" lon="7.840340">
        <ele>302.500281</ele>
        <time>2021-11-14T16:00:41.349Z</time>
      </trkpt>
      <trkpt lat="47.566350" lon="7.840350">
        <ele>302.351272</ele>
        <time>2021-11-14T16:00:42.963Z</time>
      </trkpt>
      <trkpt lat="47.566450" lon="7.840326">
        <ele>302.234415</ele>
        <time>2021-11-14T16:00:44.214Z</time>
      </trkpt>
      <trkpt lat="47.566515" lon="7.840312">
        <ele>302.158648</ele>
        <time>2021-11-14T16:00:45.010Z</time>
      </trkpt>
      <trkpt lat="47.566592" lon="7.840279">
        <ele>302.072579</ele>
        <time>2021-11-14T16:00:46.122Z</time>
      </trkpt>
      <trkpt lat="47.566826" lon="7.840179">
        <ele>301.888563</ele>
        <time>2021-11-14T16:00:49.074Z</time>
      </trkpt>
      <trkpt lat="47.567111" lon="7.839998">
        <ele>301.654275</ele>
        <time>2021-11-14T16:00:53.004Z</time>
      </trkpt>
      <trkpt lat="47.567406" lon="7.839778">
        <ele>301.404741</ele>
        <time>2021-11-14T16:00:57.162Z</time>
      </trkpt>
      <trkpt lat="47.567481" lon="7.839664">
        <ele>301.323565</ele>
        <time>2021-11-14T16:00:58.458Z</time>
      </trkpt>
      <trkpt lat="47.567510" lon="7.839548">
        <ele>301.260496</ele>
        <time>2021-11-14T16:00:59.612Z</time>
      </trkpt>
      <trkpt lat="47.567530" lon="7.839459">
        <ele>301.212671</ele>
        <time>2021-11-14T16:01:00.418Z</time>
      </trkpt>
      <trkpt lat="47.567564" lon="7.839283">
        <ele>301.119336</ele>
        <time>2021-11-14T16:01:01.983Z</time>
      </trkpt>
      <trkpt lat="47.567584" lon="7.839211">
        <ele>301.079639</ele>
        <time>2021-11-14T16:01:02.651Z</time>
      </trkpt>
      <trkpt lat="47.567626" lon="7.839064">
        <ele>300.998253</ele>
        <time>2021-11-14T16:01:04.101Z</time>
      </trkpt>
      <trkpt lat="47.567634" lon="7.839037">
        <ele>300.983219</ele>
        <time>2021-11-14T16:01:04.329Z</time>
      </trkpt>
      <trkpt lat="47.567823" lon="7.838648">
        <ele>300.738829</ele>
        <time>2021-11-14T16:01:08.637Z</time>
      </trkpt>
      <trkpt lat="47.567846" lon="7.838609">
        <ele>300.705554</ele>
        <time>2021-11-14T16:01:09.061Z</time>
      </trkpt>
      <trkpt lat="47.567936" lon="7.838380">
        <ele>300.500278</ele>
        <time>2021-11-14T16:01:11.417Z</time>
      </trkpt>
      <trkpt lat="47.568042" lon="7.838436">
        <ele>300.371089</ele>
        <time>2021-11-14T16:01:13.507Z</time>
      </trkpt>
      <trkpt lat="47.568160" lon="7.838415">
        <ele>300.234651</ele>
        <time>2021-11-14T16:01:15.652Z</time>
      </trkpt>
      <trkpt lat="47.568420" lon="7.838300">
        <ele>299.923161</ele>
        <time>2021-11-14T16:01:20.441Z</time>
      </trkpt>
      <trkpt lat="47.568988" lon="7.838054">
        <ele>299.243823</ele>
        <time>2021-11-14T16:01:30.264Z</time>
      </trkpt>
      <trkpt lat="47.569310" lon="7.837922">
        <ele>298.860286</ele>
        <time>2021-11-14T16:01:35.771Z</time>
      </trkpt>
      <trkpt lat="47.569522" lon="7.837844">
        <ele>298.601133</ele>
        <time>2021-11-14T16:01:39.363Z</time>
      </trkpt>
      <trkpt lat="47.569665" lon="7.837789">
        <ele>298.403780</ele>
        <time>2021-11-14T16:01:41.800Z</time>
      </trkpt>
      <trkpt lat="47.569814" lon="7.837733">
        <ele>298.198439</ele>
        <time>2021-11-14T16:01:44.337Z</time>
      </trkpt>
      <trkpt lat="47.569907" lon="7.837696">
        <ele>298.069808</ele>
        <time>2021-11-14T16:01:45.912Z</time>
      </trkpt>
      <trkpt lat="47.570038" lon="7.837643">
        <ele>297.888410</ele>
        <time>2021-11-14T16:01:48.164Z</time>
      </trkpt>
      <trkpt lat="47.570298" lon="7.837528">
        <ele>297.525954</ele>
        <time>2021-11-14T16:01:52.616Z</time>
      </trkpt>
      <trkpt lat="47.570872" lon="7.837307">
        <ele>296.733730</ele>
        <time>2021-11-14T16:02:02.478Z</time>
      </trkpt>
      <trkpt lat="47.570985" lon="7.837265">
        <ele>296.578106</ele>
        <time>2021-11-14T16:02:04.405Z</time>
      </trkpt>
      <trkpt lat="47.571254" lon="7.837161">
        <ele>296.234241</ele>
        <time>2021-11-14T16:02:09.118Z</time>
      </trkpt>
      <trkpt lat="47.571771" lon="7.836971">
        <ele>295.903885</ele>
        <time>2021-11-14T16:02:18.624Z</time>
      </trkpt>
      <trkpt lat="47.571871" lon="7.836932">
        <ele>295.839754</ele>
        <time>2021-11-14T16:02:20.560Z</time>
      </trkpt>
      <trkpt lat="47.572139" lon="7.836834">
        <ele>295.668555</ele>
        <time>2021-11-14T16:02:25.756Z</time>
      </trkpt>
      <trkpt lat="47.572296" lon="7.836777">
        <ele>295.568304</ele>
        <time>2021-11-14T16:02:28.834Z</time>
      </trkpt>
      <trkpt lat="47.572760" lon="7.836606">
        <ele>295.271767</ele>
        <time>2021-11-14T16:02:37.852Z</time>
      </trkpt>
      <trkpt lat="47.573348" lon="7.836386">
        <ele>294.997581</ele>
        <time>2021-11-14T16:02:49.006Z</time>
      </trkpt>
      <trkpt lat="47.573815" lon="7.836215">
        <ele>294.822412</ele>
        <time>2021-11-14T16:02:57.818Z</time>
      </trkpt>
      <trkpt lat="47.574158" lon="7.836106">
        <ele>294.694672</ele>
        <time>2021-11-14T16:03:04.389Z</time>
      </trkpt>
      <trkpt lat="47.574568" lon="7.836025">
        <ele>294.544051</ele>
        <time>2021-11-14T16:03:10.080Z</time>
      </trkpt>
      <trkpt lat="47.575033" lon="7.835907">
        <ele>294.673351</ele>
        <time>2021-11-14T16:03:17.085Z</time>
      </trkpt>
      <trkpt lat="47.575959" lon="7.835718">
        <ele>295.221722</ele>
        <time>2021-11-14T16:03:32.702Z</time>
      </trkpt>
      <trkpt lat="47.576219" lon="7.835650">
        <ele>295.376609</ele>
        <time>2021-11-14T16:03:37.859Z</time>
      </trkpt>
      <trkpt lat="47.579073" lon="7.834987">
        <ele>298.478693</ele>
        <time>2021-11-14T16:04:36.696Z</time>
      </trkpt>
      <trkpt lat="47.580667" lon="7.834627">
        <ele>298.503305</ele>
        <time>2021-11-14T16:05:00.545Z</time>
      </trkpt>
      <trkpt lat="47.580816" lon="7.834599">
        <ele>298.360779</ele>
        <time>2021-11-14T16:05:02.642Z</time>
      </trkpt>
      <trkpt lat="47.582828" lon="7.834117">
        <ele>295.060364</ele>
        <time>2021-11-14T16:05:25.689Z</time>
      </trkpt>
      <trkpt lat="47.583163" lon="7.833942">
        <ele>294.242975</ele>
        <time>2021-11-14T16:05:29.519Z</time>
      </trkpt>
      <trkpt lat="47.583327" lon="7.833750">
        <ele>293.762078</ele>
        <time>2021-11-14T16:05:31.676Z</time>
      </trkpt>
      <trkpt lat="47.583401" lon="7.833658">
        <ele>293.539830</ele>
        <time>2021-11-14T16:05:32.609Z</time>
      </trkpt>
      <trkpt lat="47.583523" lon="7.833509">
        <ele>293.116122</ele>
        <time>2021-11-14T16:05:34.289Z</time>
      </trkpt>
      <trkpt lat="47.583696" lon="7.833171">
        <ele>291.895368</ele>
        <time>2021-11-14T16:05:37.125Z</time>
      </trkpt>
      <trkpt lat="47.583849" lon="7.832883">
        <ele>290.840611</ele>
        <time>2021-11-14T16:05:39.444Z</time>
      </trkpt>
      <trkpt lat="47.584029" lon="7.832543">
        <ele>289.597062</ele>
        <time>2021-11-14T16:05:42.179Z</time>
      </trkpt>
      <trkpt lat="47.584156" lon="7.832334">
        <ele>288.787717</ele>
        <time>2021-11-14T16:05:43.960Z</time>
      </trkpt>
      <trkpt lat="47.584367" lon="7.832247">
        <ele>287.853539</ele>
        <time>2021-11-14T16:05:46.018Z</time>
      </trkpt>
      <trkpt lat="47.584571" lon="7.832257">
        <ele>286.982902</ele>
        <time>2021-11-14T16:05:47.986Z</time>
      </trkpt>
      <trkpt lat="47.584717" lon="7.832264">
        <ele>286.359814</ele>
        <time>2021-11-14T16:05:49.407Z</time>
      </trkpt>
      <trkpt lat="47.585027" lon="7.832425">
        <ele>285.168751</ele>
        <time>2021-11-14T16:05:52.672Z</time>
      </trkpt>
      <trkpt lat="47.585195" lon="7.832588">
        <ele>284.604574</ele>
        <time>2021-11-14T16:05:54.730Z</time>
      </trkpt>
      <trkpt lat="47.585247" lon="7.832651">
        <ele>284.415874</ele>
        <time>2021-11-14T16:05:55.377Z</time>
      </trkpt>
      <trkpt lat="47.585278" lon="7.832688">
        <ele>284.304045</ele>
        <time>2021-11-14T16:05:55.759Z</time>
      </trkpt>
      <trkpt lat="47.586276" lon="7.833601">
        <ele>281.008804</ele>
        <time>2021-11-14T16:06:07.773Z</time>
      </trkpt>
      <trkpt lat="47.586496" lon="7.833050">
        <ele>280.520112</ele>
        <time>2021-11-14T16:06:13.010Z</time>
      </trkpt>
      <trkpt lat="47.587848" lon="7.834235">
        <ele>280.592273</ele>
        <time>2021-11-14T16:06:37.350Z</time>
      </trkpt>
      <trkpt lat="47.587628" lon="7.835942">
        <ele>283.417072</ele>
        <time>2021-11-14T16:07:05.245Z</time>
      </trkpt>
      <trkpt lat="47.587903" lon="7.836007">
        <ele>284.088179</ele>
        <time>2021-11-14T16:07:12.906Z</time>
      </trkpt>
      <trkpt lat="47.588059" lon="7.836042">
        <ele>284.468413</ele>
        <time>2021-11-14T16:07:17.751Z</time>
      </trkpt>
      <trkpt lat="47.588272" lon="7.836090">
        <ele>285.082188</ele>
        <time>2021-11-14T16:07:23.898Z</time>
      </trkpt>
      <trkpt lat="47.589181" lon="7.835983">
        <ele>288.845590</ele>
        <time>2021-11-14T16:07:51.565Z</time>
      </trkpt>
      <trkpt lat="47.590263" lon="7.835856">
        <ele>294.375849</ele>
        <time>2021-11-14T16:08:26.715Z</time>
      </trkpt>
      <trkpt lat="47.590166" lon="7.836338">
        <ele>297.181070</ele>
        <time>2021-11-14T16:08:37.890Z</time>
      </trkpt>
      <trkpt lat="47.591704" lon="7.836354">
        <ele>311.810715</ele>
        <time>2021-11-14T16:10:09.185Z</time>
      </trkpt>
      <trkpt lat="47.591953" lon="7.836379">
        <ele>315.309943</ele>
        <time>2021-11-14T16:10:32.218Z</time>
      </trkpt>
      <trkpt lat="47.592110" lon="7.836372">
        <ele>317.512237</ele>
        <time>2021-11-14T16:10:41.857Z</time>
      </trkpt>
      <trkpt lat="47.592182" lon="7.836371">
        <ele>318.521795</ele>
        <time>2021-11-14T16:10:48.193Z</time>
      </trkpt>
      <trkpt lat="47.592250" lon="7.836371">
        <ele>319.475224</ele>
        <time>2021-11-14T16:10:55.960Z</time>
      </trkpt>
      <trkpt lat="47.592897" lon="7.836379">
        <ele>328.547137</ele>
        <time>2021-11-14T16:11:45.235Z</time>
      </trkpt>
      <trkpt lat="47.593173" lon="7.836468">
        <ele>332.467346</ele>
        <time>2021-11-14T16:12:08.360Z</time>
      </trkpt>
      <trkpt lat="47.593342" lon="7.836538">
        <ele>334.208772</ele>
        <time>2021-11-14T16:12:26.398Z</time>
      </trkpt>
      <trkpt lat="47.593826" lon="7.836849">
        <ele>339.443773</ele>
        <time>2021-11-14T16:13:01.886Z</time>
      </trkpt>
      <trkpt lat="47.594180" lon="7.837132">
        <ele>343.435048</ele>
        <time>2021-11-14T16:13:24.184Z</time>
      </trkpt>
      <trkpt lat="47.594385" lon="7.837297">
        <ele>345.749931</ele>
        <time>2021-11-14T16:13:37.067Z</time>
      </trkpt>
      <trkpt lat="47.594473" lon="7.837349">
        <ele>346.690065</ele>
        <time>2021-11-14T16:13:41.493Z</time>
      </trkpt>
      <trkpt lat="47.594966" lon="7.837645">
        <ele>350.858134</ele>
        <time>2021-11-14T16:14:05.948Z</time>
      </trkpt>
      <trkpt lat="47.595487" lon="7.838131">
        <ele>353.085635</ele>
        <time>2021-11-14T16:14:27.235Z</time>
      </trkpt>
      <trkpt lat="47.595964" lon="7.838747">
        <ele>355.374710</ele>
        <time>2021-11-14T16:14:46.654Z</time>
      </trkpt>
      <trkpt lat="47.596578" lon="7.839929">
        <ele>358.687224</ele>
        <time>2021-11-14T16:15:17.144Z</time>
      </trkpt>
      <trkpt lat="47.596993" lon="7.840544">
        <ele>360.505178</ele>
        <time>2021-11-14T16:15:36.590Z</time>
      </trkpt>
      <trkpt lat="47.597263" lon="7.840840">
        <ele>361.545596</ele>
        <time>2021-11-14T16:15:47.920Z</time>
      </trkpt>
      <trkpt lat="47.597727" lon="7.841333">
        <ele>363.603657</ele>
        <time>2021-11-14T16:16:07.562Z</time>
      </trkpt>
      <trkpt lat="47.597842" lon="7.841614">
        <ele>364.487042</ele>
        <time>2021-11-14T16:16:15.581Z</time>
      </trkpt>
      <trkpt lat="47.598058" lon="7.842175">
        <ele>366.223180</ele>
        <time>2021-11-14T16:16:31.446Z</time>
      </trkpt>
      <trkpt lat="47.598238" lon="7.842763">
        <ele>367.958630</ele>
        <time>2021-11-14T16:16:47.272Z</time>
      </trkpt>
      <trkpt lat="47.598536" lon="7.843376">
        <ele>370.172051</ele>
        <time>2021-11-14T16:17:06.088Z</time>
      </trkpt>
      <trkpt lat="47.598696" lon="7.843499">
        <ele>371.143439</ele>
        <time>2021-11-14T16:17:12.870Z</time>
      </trkpt>
      <trkpt lat="47.598937" lon="7.843561">
        <ele>372.461832</ele>
        <time>2021-11-14T16:17:22.469Z</time>
      </trkpt>
      <trkpt lat="47.599568" lon="7.843496">
        <ele>375.871124</ele>
        <time>2021-11-14T16:17:48.660Z</time>
      </trkpt>
      <trkpt lat="47.599763" lon="7.843535">
        <ele>376.931691</ele>
        <time>2021-11-14T16:17:57.193Z</time>
      </trkpt>
      <trkpt lat="47.600072" lon="7.843673">
        <ele>378.671088</ele>
        <time>2021-11-14T16:18:11.850Z</time>
      </trkpt>
      <trkpt lat="47.600807" lon="7.843916">
        <ele>383.938795</ele>
        <time>2021-11-14T16:18:47.624Z</time>
      </trkpt>
      <trkpt lat="47.602198" lon="7.844937">
        <ele>395.995100</ele>
        <time>2021-11-14T16:20:06.144Z</time>
      </trkpt>
      <trkpt lat="47.602253" lon="7.845252">
        <ele>398.030352</ele>
        <time>2021-11-14T16:20:17.286Z</time>
      </trkpt>
      <trkpt lat="47.602229" lon="7.845655">
        <ele>400.560853</ele>
        <time>2021-11-14T16:20:31.011Z</time>
      </trkpt>
      <trkpt lat="47.602243" lon="7.846717">
        <ele>407.204732</ele>
        <time>2021-11-14T16:21:16.589Z</time>
      </trkpt>
      <trkpt lat="47.602236" lon="7.847007">
        <ele>409.052284</ele>
        <time>2021-11-14T16:21:30.617Z</time>
      </trkpt>
      <trkpt lat="47.602282" lon="7.847374">
        <ele>411.796218</ele>
        <time>2021-11-14T16:21:46.397Z</time>
      </trkpt>
      <trkpt lat="47.602400" lon="7.847680">
        <ele>414.387411</ele>
        <time>2021-11-14T16:22:00.387Z</time>
      </trkpt>
      <trkpt lat="47.602486" lon="7.847821">
        <ele>415.784989</ele>
        <time>2021-11-14T16:22:09.580Z</time>
      </trkpt>
      <trkpt lat="47.602606" lon="7.848016">
        <ele>417.725606</ele>
        <time>2021-11-14T16:22:21.206Z</time>
      </trkpt>
      <trkpt lat="47.603736" lon="7.848907">
        <ele>430.695404</ele>
        <time>2021-11-14T16:23:44.190Z</time>
      </trkpt>
      <trkpt lat="47.604551" lon="7.849629">
        <ele>437.902994</ele>
        <time>2021-11-14T16:24:31.666Z</time>
      </trkpt>
      <trkpt lat="47.604823" lon="7.849877">
        <ele>440.327138</ele>
        <time>2021-11-14T16:24:45.827Z</time>
      </trkpt>
      <trkpt lat="47.605011" lon="7.850048">
        <ele>442.001544</ele>
        <time>2021-11-14T16:24:55.063Z</time>
      </trkpt>
      <trkpt lat="47.605181" lon="7.850167">
        <ele>442.721532</ele>
        <time>2021-11-14T16:25:02.732Z</time>
      </trkpt>
      <trkpt lat="47.605584" lon="7.850507">
        <ele>444.370013</ele>
        <time>2021-11-14T16:25:20.637Z</time>
      </trkpt>
      <trkpt lat="47.605922" lon="7.850724">
        <ele>445.679543</ele>
        <time>2021-11-14T16:25:33.670Z</time>
      </trkpt>
      <trkpt lat="47.606259" lon="7.850845">
        <ele>446.912370</ele>
        <time>2021-11-14T16:25:44.779Z</time>
      </trkpt>
      <trkpt lat="47.606432" lon="7.850826">
        <ele>447.529163</ele>
        <time>2021-11-14T16:25:49.760Z</time>
      </trkpt>
      <trkpt lat="47.606642" lon="7.850761">
        <ele>448.291912</ele>
        <time>2021-11-14T16:25:55.932Z</time>
      </trkpt>
      <trkpt lat="47.606841" lon="7.850541">
        <ele>448.438522</ele>
        <time>2021-11-14T16:26:02.926Z</time>
      </trkpt>
      <trkpt lat="47.607206" lon="7.849906">
        <ele>448.276195</ele>
        <time>2021-11-14T16:26:16.294Z</time>
      </trkpt>
      <trkpt lat="47.607512" lon="7.849734">
        <ele>448.181777</ele>
        <time>2021-11-14T16:26:22.292Z</time>
      </trkpt>
      <trkpt lat="47.607779" lon="7.849458">
        <ele>448.087876</ele>
        <time>2021-11-14T16:26:27.736Z</time>
      </trkpt>
      <trkpt lat="47.608193" lon="7.849027">
        <ele>447.565899</ele>
        <time>2021-11-14T16:26:35.720Z</time>
      </trkpt>
      <trkpt lat="47.608499" lon="7.848767">
        <ele>446.299507</ele>
        <time>2021-11-14T16:26:40.972Z</time>
      </trkpt>
      <trkpt lat="47.608647" lon="7.848750">
        <ele>445.766439</ele>
        <time>2021-11-14T16:26:43.088Z</time>
      </trkpt>
      <trkpt lat="47.608958" lon="7.849213">
        <ele>444.184096</ele>
        <time>2021-11-14T16:26:49.264Z</time>
      </trkpt>
      <trkpt lat="47.609180" lon="7.849407">
        <ele>443.258811</ele>
        <time>2021-11-14T16:26:52.832Z</time>
      </trkpt>
      <trkpt lat="47.609671" lon="7.849581">
        <ele>441.466602</ele>
        <time>2021-11-14T16:26:59.728Z</time>
      </trkpt>
      <trkpt lat="47.609900" lon="7.849721">
        <ele>440.840057</ele>
        <time>2021-11-14T16:27:03.188Z</time>
      </trkpt>
      <trkpt lat="47.610164" lon="7.850132">
        <ele>439.871947</ele>
        <time>2021-11-14T16:27:08.744Z</time>
      </trkpt>
      <trkpt lat="47.610866" lon="7.850970">
        <ele>437.592560</ele>
        <time>2021-11-14T16:27:22.751Z</time>
      </trkpt>
      <trkpt lat="47.611197" lon="7.851511">
        <ele>436.217363</ele>
        <time>2021-11-14T16:27:31.752Z</time>
      </trkpt>
      <trkpt lat="47.611373" lon="7.852022">
        <ele>435.034459</ele>
        <time>2021-11-14T16:27:38.436Z</time>
      </trkpt>
      <trkpt lat="47.611487" lon="7.852197">
        <ele>434.532808</ele>
        <time>2021-11-14T16:27:41.222Z</time>
      </trkpt>
      <trkpt lat="47.611909" lon="7.852604">
        <ele>432.993647</ele>
        <time>2021-11-14T16:27:48.568Z</time>
      </trkpt>
      <trkpt lat="47.612224" lon="7.852925">
        <ele>431.825049</ele>
        <time>2021-11-14T16:27:53.708Z</time>
      </trkpt>
      <trkpt lat="47.612366" lon="7.853056">
        <ele>431.066465</ele>
        <time>2021-11-14T16:27:55.930Z</time>
      </trkpt>
      <trkpt lat="47.612473" lon="7.853153">
        <ele>430.060767</ele>
        <time>2021-11-14T16:27:57.583Z</time>
      </trkpt>
      <trkpt lat="47.612894" lon="7.853499">
        <ele>426.200790</ele>
        <time>2021-11-14T16:28:03.762Z</time>
      </trkpt>
      <trkpt lat="47.613147" lon="7.853586">
        <ele>424.117939</ele>
        <time>2021-11-14T16:28:06.975Z</time>
      </trkpt>
      <trkpt lat="47.613350" lon="7.853629">
        <ele>422.473377</ele>
        <time>2021-11-14T16:28:09.518Z</time>
      </trkpt>
      <trkpt lat="47.613558" lon="7.853788">
        <ele>420.596764</ele>
        <time>2021-11-14T16:28:12.396Z</time>
      </trkpt>
      <trkpt lat="47.613564" lon="7.854464">
        <ele>416.943732</ele>
        <time>2021-11-14T16:28:17.967Z</time>
      </trkpt>
      <trkpt lat="47.613607" lon="7.854572">
        <ele>416.279603</ele>
        <time>2021-11-14T16:28:18.978Z</time>
      </trkpt>
      <trkpt lat="47.613659" lon="7.854700">
        <ele>415.488314</ele>
        <time>2021-11-14T16:28:20.270Z</time>
      </trkpt>
      <trkpt lat="47.613792" lon="7.854776">
        <ele>414.368861</ele>
        <time>2021-11-14T16:28:22.070Z</time>
      </trkpt>
      <trkpt lat="47.613988" lon="7.854392">
        <ele>411.818605</ele>
        <time>2021-11-14T16:28:26.116Z</time>
      </trkpt>
      <trkpt lat="47.614100" lon="7.854196">
        <ele>410.458155</ele>
        <time>2021-11-14T16:28:28.249Z</time>
      </trkpt>
      <trkpt lat="47.614301" lon="7.854162">
        <ele>408.869203</ele>
        <time>2021-11-14T16:28:31.072Z</time>
      </trkpt>
      <trkpt lat="47.614629" lon="7.854431">
        <ele>405.925480</ele>
        <time>2021-11-14T16:28:35.845Z</time>
      </trkpt>
      <trkpt lat="47.614801" lon="7.854465">
        <ele>404.562593</ele>
        <time>2021-11-14T16:28:37.978Z</time>
      </trkpt>
      <trkpt lat="47.615213" lon="7.854374">
        <ele>401.484500</ele>
        <time>2021-11-14T16:28:43.378Z</time>
      </trkpt>
      <trkpt lat="47.615794" lon="7.854262">
        <ele>397.431585</ele>
        <time>2021-11-14T16:28:50.780Z</time>
      </trkpt>
      <trkpt lat="47.615857" lon="7.854262">
        <ele>396.995776</ele>
        <time>2021-11-14T16:28:51.590Z</time>
      </trkpt>
      <trkpt lat="47.615860" lon="7.854339">
        <ele>396.636115</ele>
        <time>2021-11-14T16:28:52.262Z</time>
      </trkpt>
      <trkpt lat="47.615853" lon="7.854674">
        <ele>395.073214</ele>
        <time>2021-11-14T16:28:55.095Z</time>
      </trkpt>
      <trkpt lat="47.615878" lon="7.854830">
        <ele>394.325491</ele>
        <time>2021-11-14T16:28:56.488Z</time>
      </trkpt>
      <trkpt lat="47.615940" lon="7.855213">
        <ele>392.488735</ele>
        <time>2021-11-14T16:28:59.833Z</time>
      </trkpt>
      <trkpt lat="47.615886" lon="7.855415">
        <ele>391.475416</ele>
        <time>2021-11-14T16:29:01.790Z</time>
      </trkpt>
      <trkpt lat="47.615482" lon="7.855744">
        <ele>389.958104</ele>
        <time>2021-11-14T16:29:07.997Z</time>
      </trkpt>
      <trkpt lat="47.615230" lon="7.856082">
        <ele>389.405586</ele>
        <time>2021-11-14T16:29:12.774Z</time>
      </trkpt>
      <trkpt lat="47.615591" lon="7.856559">
        <ele>388.619354</ele>
        <time>2021-11-14T16:29:20.376Z</time>
      </trkpt>
      <trkpt lat="47.615844" lon="7.856900">
        <ele>388.063424</ele>
        <time>2021-11-14T16:29:26.815Z</time>
      </trkpt>
      <trkpt lat="47.616000" lon="7.856839">
        <ele>387.801051</ele>
        <time>2021-11-14T16:29:31.398Z</time>
      </trkpt>
      <trkpt lat="47.616206" lon="7.856813">
        <ele>387.854194</ele>
        <time>2021-11-14T16:29:35.734Z</time>
      </trkpt>
      <trkpt lat="47.616185" lon="7.856991">
        <ele>388.600942</ele>
        <time>2021-11-14T16:29:40.335Z</time>
      </trkpt>
      <trkpt lat="47.616062" lon="7.857266">
        <ele>389.964755</ele>
        <time>2021-11-14T16:29:46.583Z</time>
      </trkpt>
      <trkpt lat="47.615675" lon="7.857668">
        <ele>392.860979</ele>
        <time>2021-11-14T16:30:05.349Z</time>
      </trkpt>
      <trkpt lat="47.615620" lon="7.857851">
        <ele>393.688974</ele>
        <time>2021-11-14T16:30:10.747Z</time>
      </trkpt>
      <trkpt lat="47.615612" lon="7.857977">
        <ele>394.211967</ele>
        <time>2021-11-14T16:30:13.900Z</time>
      </trkpt>
      <trkpt lat="47.615609" lon="7.858249">
        <ele>395.336142</ele>
        <time>2021-11-14T16:30:23.147Z</time>
      </trkpt>
      <trkpt lat="47.615543" lon="7.858897">
        <ele>398.044362</ele>
        <time>2021-11-14T16:30:42.128Z</time>
      </trkpt>
      <trkpt lat="47.615334" lon="7.860080">
        <ele>406.444358</ele>
        <time>2021-11-14T16:31:25.968Z</time>
      </trkpt>
      <trkpt lat="47.615241" lon="7.860672">
        <ele>410.813717</ele>
        <time>2021-11-14T16:31:53.093Z</time>
      </trkpt>
      <trkpt lat="47.615092" lon="7.861630">
        <ele>417.850540</ele>
        <time>2021-11-14T16:32:33.436Z</time>
      </trkpt>
      <trkpt lat="47.615080" lon="7.861804">
        <ele>418.812696</ele>
        <time>2021-11-14T16:32:42.466Z</time>
      </trkpt>
      <trkpt lat="47.615143" lon="7.862040">
        <ele>420.208998</ele>
        <time>2021-11-14T16:32:51.094Z</time>
      </trkpt>
      <trkpt lat="47.615533" lon="7.862749">
        <ele>425.242825</ele>
        <time>2021-11-14T16:33:24.888Z</time>
      </trkpt>
      <trkpt lat="47.615733" lon="7.863226">
        <ele>428.332892</ele>
        <time>2021-11-14T16:33:41.962Z</time>
      </trkpt>
      <trkpt lat="47.615791" lon="7.863469">
        <ele>429.750916</ele>
        <time>2021-11-14T16:33:49.550Z</time>
      </trkpt>
      <trkpt lat="47.615826" lon="7.863677">
        <ele>430.930199</ele>
        <time>2021-11-14T16:33:55.660Z</time>
      </trkpt>
      <trkpt lat="47.615975" lon="7.864921">
        <ele>433.829120</ele>
        <time>2021-11-14T16:34:17.339Z</time>
      </trkpt>
      <trkpt lat="47.616072" lon="7.865259">
        <ele>434.348044</ele>
        <time>2021-11-14T16:34:21.634Z</time>
      </trkpt>
      <trkpt lat="47.616709" lon="7.866450">
        <ele>436.737265</ele>
        <time>2021-11-14T16:34:41.215Z</time>
      </trkpt>
      <trkpt lat="47.616988" lon="7.867193">
        <ele>438.915153</ele>
        <time>2021-11-14T16:34:55.646Z</time>
      </trkpt>
      <trkpt lat="47.617092" lon="7.867491">
        <ele>439.774445</ele>
        <time>2021-11-14T16:35:01.869Z</time>
      </trkpt>
      <trkpt lat="47.617186" lon="7.867759">
        <ele>440.548052</ele>
        <time>2021-11-14T16:35:08.608Z</time>
      </trkpt>
      <trkpt lat="47.617859" lon="7.869709">
        <ele>447.271375</ele>
        <time>2021-11-14T16:36:04.323Z</time>
      </trkpt>
      <trkpt lat="47.617864" lon="7.870723">
        <ele>450.792712</ele>
        <time>2021-11-14T16:36:28.528Z</time>
      </trkpt>
      <trkpt lat="47.617973" lon="7.871350">
        <ele>452.818106</ele>
        <time>2021-11-14T16:36:42.635Z</time>
      </trkpt>
      <trkpt lat="47.618120" lon="7.871681">
        <ele>453.781747</ele>
        <time>2021-11-14T16:36:50.806Z</time>
      </trkpt>
      <trkpt lat="47.619528" lon="7.873535">
        <ele>460.604698</ele>
        <time>2021-11-14T16:37:43.292Z</time>
      </trkpt>
      <trkpt lat="47.619781" lon="7.873960">
        <ele>462.008688</ele>
        <time>2021-11-14T16:37:56.951Z</time>
      </trkpt>
      <trkpt lat="47.619829" lon="7.874041">
        <ele>462.275740</ele>
        <time>2021-11-14T16:37:58.949Z</time>
      </trkpt>
      <trkpt lat="47.619939" lon="7.874280">
        <ele>462.992324</ele>
        <time>2021-11-14T16:38:05.111Z</time>
      </trkpt>
      <trkpt lat="47.620060" lon="7.874687">
        <ele>464.093761</ele>
        <time>2021-11-14T16:38:13.738Z</time>
      </trkpt>
      <trkpt lat="47.620229" lon="7.875324">
        <ele>465.489196</ele>
        <time>2021-11-14T16:38:26.834Z</time>
      </trkpt>
      <trkpt lat="47.620355" lon="7.875825">
        <ele>465.815089</ele>
        <time>2021-11-14T16:38:35.749Z</time>
      </trkpt>
      <trkpt lat="47.620438" lon="7.876135">
        <ele>466.018374</ele>
        <time>2021-11-14T16:38:40.348Z</time>
      </trkpt>
      <trkpt lat="47.620646" lon="7.876653">
        <ele>466.385837</ele>
        <time>2021-11-14T16:38:49.393Z</time>
      </trkpt>
      <trkpt lat="47.621473" lon="7.877633">
        <ele>466.832467</ele>
        <time>2021-11-14T16:39:01.861Z</time>
      </trkpt>
      <trkpt lat="47.621851" lon="7.878198">
        <ele>466.556196</ele>
        <time>2021-11-14T16:39:08.328Z</time>
      </trkpt>
      <trkpt lat="47.622140" lon="7.878531">
        <ele>466.367790</ele>
        <time>2021-11-14T16:39:13.273Z</time>
      </trkpt>
      <trkpt lat="47.622668" lon="7.879223">
        <ele>466.080603</ele>
        <time>2021-11-14T16:39:24.834Z</time>
      </trkpt>
      <trkpt lat="47.623257" lon="7.880066">
        <ele>466.027256</ele>
        <time>2021-11-14T16:39:38.801Z</time>
      </trkpt>
      <trkpt lat="47.623689" lon="7.880796">
        <ele>465.984576</ele>
        <time>2021-11-14T16:39:48.262Z</time>
      </trkpt>
      <trkpt lat="47.623726" lon="7.880866">
        <ele>465.980668</ele>
        <time>2021-11-14T16:39:49.005Z</time>
      </trkpt>
      <trkpt lat="47.623737" lon="7.880886">
        <ele>465.979534</ele>
        <time>2021-11-14T16:39:49.196Z</time>
      </trkpt>
      <trkpt lat="47.623987" lon="7.881363">
        <ele>465.193409</ele>
        <time>2021-11-14T16:39:53.809Z</time>
      </trkpt>
      <trkpt lat="47.624168" lon="7.882017">
        <ele>464.055894</ele>
        <time>2021-11-14T16:39:59.008Z</time>
      </trkpt>
      <trkpt lat="47.624203" lon="7.882243">
        <ele>463.682795</ele>
        <time>2021-11-14T16:40:00.663Z</time>
      </trkpt>
      <trkpt lat="47.624255" lon="7.882581">
        <ele>463.124983</ele>
        <time>2021-11-14T16:40:03.081Z</time>
      </trkpt>
      <trkpt lat="47.624310" lon="7.883001">
        <ele>462.436587</ele>
        <time>2021-11-14T16:40:06.003Z</time>
      </trkpt>
      <trkpt lat="47.624331" lon="7.883160">
        <ele>462.175899</ele>
        <time>2021-11-14T16:40:07.099Z</time>
      </trkpt>
      <trkpt lat="47.624490" lon="7.883959">
        <ele>460.286591</ele>
        <time>2021-11-14T16:40:12.797Z</time>
      </trkpt>
      <trkpt lat="47.625152" lon="7.885204">
        <ele>456.077946</ele>
        <time>2021-11-14T16:40:23.263Z</time>
      </trkpt>
      <trkpt lat="47.625398" lon="7.886057">
        <ele>453.329371</ele>
        <time>2021-11-14T16:40:29.287Z</time>
      </trkpt>
      <trkpt lat="47.625424" lon="7.886225">
        <ele>452.738628</ele>
        <time>2021-11-14T16:40:30.337Z</time>
      </trkpt>
      <trkpt lat="47.625441" lon="7.886331">
        <ele>452.365208</ele>
        <time>2021-11-14T16:40:31.033Z</time>
      </trkpt>
      <trkpt lat="47.625481" lon="7.886856">
        <ele>450.554503</ele>
        <time>2021-11-14T16:40:34.380Z</time>
      </trkpt>
      <trkpt lat="47.625484" lon="7.887146">
        <ele>449.560517</ele>
        <time>2021-11-14T16:40:36.254Z</time>
      </trkpt>
      <trkpt lat="47.625499" lon="7.888101">
        <ele>446.286718</ele>
        <time>2021-11-14T16:40:42.252Z</time>
      </trkpt>
      <trkpt lat="47.625564" lon="7.889453">
        <ele>440.771937</ele>
        <time>2021-11-14T16:40:50.734Z</time>
      </trkpt>
      <trkpt lat="47.625716" lon="7.890252">
        <ele>437.277415</ele>
        <time>2021-11-14T16:40:55.797Z</time>
      </trkpt>
      <trkpt lat="47.625853" lon="7.890611">
        <ele>435.540915</ele>
        <time>2021-11-14T16:40:58.370Z</time>
      </trkpt>
      <trkpt lat="47.626106" lon="7.891132">
        <ele>432.194761</ele>
        <time>2021-11-14T16:41:02.272Z</time>
      </trkpt>
      <trkpt lat="47.626263" lon="7.891476">
        <ele>429.631509</ele>
        <time>2021-11-14T16:41:04.738Z</time>
      </trkpt>
      <trkpt lat="47.626348" lon="7.891663">
        <ele>428.239888</ele>
        <time>2021-11-14T16:41:06.043Z</time>
      </trkpt>
      <trkpt lat="47.626714" lon="7.892752">
        <ele>420.731975</ele>
        <time>2021-11-14T16:41:13.139Z</time>
      </trkpt>
      <trkpt lat="47.626818" lon="7.893202">
        <ele>417.796906</ele>
        <time>2021-11-14T16:41:15.886Z</time>
      </trkpt>
      <trkpt lat="47.626855" lon="7.893551">
        <ele>415.048293</ele>
        <time>2021-11-14T16:41:17.904Z</time>
      </trkpt>
      <trkpt lat="47.626865" lon="7.894506">
        <ele>407.586155</ele>
        <time>2021-11-14T16:41:23.420Z</time>
      </trkpt>
      <trkpt lat="47.626674" lon="7.895101">
        <ele>402.437146</ele>
        <time>2021-11-14T16:41:27.198Z</time>
      </trkpt>
      <trkpt lat="47.626363" lon="7.895584">
        <ele>397.218138</ele>
        <time>2021-11-14T16:41:30.966Z</time>
      </trkpt>
      <trkpt lat="47.625546" lon="7.896308">
        <ele>385.101308</ele>
        <time>2021-11-14T16:41:38.953Z</time>
      </trkpt>
      <trkpt lat="47.625340" lon="7.896501">
        <ele>381.991024</ele>
        <time>2021-11-14T16:41:41.025Z</time>
      </trkpt>
      <trkpt lat="47.625217" lon="7.896657">
        <ele>379.925258</ele>
        <time>2021-11-14T16:41:42.358Z</time>
      </trkpt>
      <trkpt lat="47.625137" lon="7.896861">
        <ele>377.894486</ele>
        <time>2021-11-14T16:41:43.752Z</time>
      </trkpt>
      <trkpt lat="47.625133" lon="7.897004">
        <ele>376.663017</ele>
        <time>2021-11-14T16:41:44.561Z</time>
      </trkpt>
      <trkpt lat="47.625188" lon="7.897128">
        <ele>375.385774</ele>
        <time>2021-11-14T16:41:45.390Z</time>
      </trkpt>
      <trkpt lat="47.625408" lon="7.897172">
        <ele>373.010028</ele>
        <time>2021-11-14T16:41:47.325Z</time>
      </trkpt>
      <trkpt lat="47.625555" lon="7.897164">
        <ele>371.751777</ele>
        <time>2021-11-14T16:41:48.533Z</time>
      </trkpt>
      <trkpt lat="47.625709" lon="7.897156">
        <ele>370.433688</ele>
        <time>2021-11-14T16:41:49.886Z</time>
      </trkpt>
      <trkpt lat="47.625946" lon="7.897132">
        <ele>368.401727</ele>
        <time>2021-11-14T16:41:51.879Z</time>
      </trkpt>
      <trkpt lat="47.626062" lon="7.897113">
        <ele>367.403461</ele>
        <time>2021-11-14T16:41:52.921Z</time>
      </trkpt>
      <trkpt lat="47.626245" lon="7.897103">
        <ele>365.837059</ele>
        <time>2021-11-14T16:41:54.457Z</time>
      </trkpt>
      <trkpt lat="47.626428" lon="7.897120">
        <ele>364.268652</ele>
        <time>2021-11-14T16:41:56.150Z</time>
      </trkpt>
      <trkpt lat="47.626521" lon="7.897153">
        <ele>363.450719</ele>
        <time>2021-11-14T16:41:57.012Z</time>
      </trkpt>
      <trkpt lat="47.626680" lon="7.897256">
        <ele>361.966698</ele>
        <time>2021-11-14T16:41:58.583Z</time>
      </trkpt>
      <trkpt lat="47.626939" lon="7.897544">
        <ele>359.198185</ele>
        <time>2021-11-14T16:42:01.582Z</time>
      </trkpt>
      <trkpt lat="47.627064" lon="7.897836">
        <ele>358.442344</ele>
        <time>2021-11-14T16:42:03.976Z</time>
      </trkpt>
      <trkpt lat="47.627129" lon="7.898072">
        <ele>358.319456</ele>
        <time>2021-11-14T16:42:05.907Z</time>
      </trkpt>
      <trkpt lat="47.627440" lon="7.900175">
        <ele>357.281666</ele>
        <time>2021-11-14T16:42:26.654Z</time>
      </trkpt>
      <trkpt lat="47.627514" lon="7.900453">
        <ele>357.450691</ele>
        <time>2021-11-14T16:42:31.644Z</time>
      </trkpt>
      <trkpt lat="47.628120" lon="7.901056">
        <ele>358.172842</ele>
        <time>2021-11-14T16:42:48.953Z</time>
      </trkpt>
      <trkpt lat="47.628239" lon="7.901249">
        <ele>358.347323</ele>
        <time>2021-11-14T16:42:52.620Z</time>
      </trkpt>
      <trkpt lat="47.628617" lon="7.902195">
        <ele>358.989799</ele>
        <time>2021-11-14T16:43:04.981Z</time>
      </trkpt>
      <trkpt lat="47.628663" lon="7.902374">
        <ele>358.751457</ele>
        <time>2021-11-14T16:43:06.652Z</time>
      </trkpt>
      <trkpt lat="47.628980" lon="7.902307">
        <ele>358.160341</ele>
        <time>2021-11-14T16:43:12.258Z</time>
      </trkpt>
      <trkpt lat="47.628958" lon="7.902505">
        <ele>357.910677</ele>
        <time>2021-11-14T16:43:14.341Z</time>
      </trkpt>
      <trkpt lat="47.628725" lon="7.903052">
        <ele>357.105597</ele>
        <time>2021-11-14T16:43:21.286Z</time>
      </trkpt>
      <trkpt lat="47.628646" lon="7.903407">
        <ele>356.640472</ele>
        <time>2021-11-14T16:43:25.057Z</time>
      </trkpt>
      <trkpt lat="47.628608" lon="7.903754">
        <ele>356.203094</ele>
        <time>2021-11-14T16:43:28.677Z</time>
      </trkpt>
      <trkpt lat="47.628610" lon="7.904064">
        <ele>355.817393</ele>
        <time>2021-11-14T16:43:31.735Z</time>
      </trkpt>
      <trkpt lat="47.628650" lon="7.904559">
        <ele>354.887854</ele>
        <time>2021-11-14T16:43:36.585Z</time>
      </trkpt>
      <trkpt lat="47.627955" lon="7.904708">
        <ele>352.837174</ele>
        <time>2021-11-14T16:43:43.821Z</time>
      </trkpt>
      <trkpt lat="47.627467" lon="7.904744">
        <ele>351.410311</ele>
        <time>2021-11-14T16:43:48.776Z</time>
      </trkpt>
      <trkpt lat="47.627287" lon="7.904761">
        <ele>350.883594</ele>
        <time>2021-11-14T16:43:50.588Z</time>
      </trkpt>
      <trkpt lat="47.627067" lon="7.904813">
        <ele>350.484537</ele>
        <time>2021-11-14T16:43:52.871Z</time>
      </trkpt>
      <trkpt lat="47.626505" lon="7.904968">
        <ele>350.542632</ele>
        <time>2021-11-14T16:43:59.220Z</time>
      </trkpt>
      <trkpt lat="47.626440" lon="7.905007">
        <ele>350.549758</ele>
        <time>2021-11-14T16:44:00.084Z</time>
      </trkpt>
      <trkpt lat="47.626460" lon="7.905124">
        <ele>350.558026</ele>
        <time>2021-11-14T16:44:00.984Z</time>
      </trkpt>
      <trkpt lat="47.626443" lon="7.905945">
        <ele>350.614287</ele>
        <time>2021-11-14T16:44:10.277Z</time>
      </trkpt>
      <trkpt lat="47.626439" lon="7.906299">
        <ele>350.638538</ele>
        <time>2021-11-14T16:44:15.730Z</time>
      </trkpt>
      <trkpt lat="47.626436" lon="7.906623">
        <ele>350.797013</ele>
        <time>2021-11-14T16:44:21.869Z</time>
      </trkpt>
      <trkpt lat="47.626436" lon="7.907061">
        <ele>353.030392</ele>
        <time>2021-11-14T16:44:30.960Z</time>
      </trkpt>
      <trkpt lat="47.626436" lon="7.907187">
        <ele>353.672871</ele>
        <time>2021-11-14T16:44:33.517Z</time>
      </trkpt>
      <trkpt lat="47.626442" lon="7.907543">
        <ele>355.488697</ele>
        <time>2021-11-14T16:44:42.286Z</time>
      </trkpt>
      <trkpt lat="47.626446" lon="7.907798">
        <ele>356.789304</ele>
        <time>2021-11-14T16:44:51.501Z</time>
      </trkpt>
      <trkpt lat="47.626436" lon="7.907974">
        <ele>357.689918</ele>
        <time>2021-11-14T16:44:56.268Z</time>
      </trkpt>
      <trkpt lat="47.626373" lon="7.908242">
        <ele>359.137202</ele>
        <time>2021-11-14T16:45:07.948Z</time>
      </trkpt>
      <trkpt lat="47.626074" lon="7.908682">
        <ele>362.323277</ele>
        <time>2021-11-14T16:45:30.642Z</time>
      </trkpt>
      <trkpt lat="47.625875" lon="7.909372">
        <ele>366.398149</ele>
        <time>2021-11-14T16:45:57.837Z</time>
      </trkpt>
      <trkpt lat="47.625820" lon="7.909530">
        <ele>367.424285</ele>
        <time>2021-11-14T16:46:06.233Z</time>
      </trkpt>
      <trkpt lat="47.625738" lon="7.909657">
        <ele>368.439138</ele>
        <time>2021-11-14T16:46:12.287Z</time>
      </trkpt>
      <trkpt lat="47.625660" lon="7.909693">
        <ele>369.138512</ele>
        <time>2021-11-14T16:46:15.423Z</time>
      </trkpt>
      <trkpt lat="47.625630" lon="7.909700">
        <ele>369.398519</ele>
        <time>2021-11-14T16:46:17.328Z</time>
      </trkpt>
      <trkpt lat="47.625586" lon="7.909712">
        <ele>369.781545</ele>
        <time>2021-11-14T16:46:20.515Z</time>
      </trkpt>
      <trkpt lat="47.625366" lon="7.909623">
        <ele>371.733873</ele>
        <time>2021-11-14T16:46:32.238Z</time>
      </trkpt>
      <trkpt lat="47.624962" lon="7.909272">
        <ele>375.742165</ele>
        <time>2021-11-14T16:46:54.450Z</time>
      </trkpt>
      <trkpt lat="47.624823" lon="7.909229">
        <ele>376.957831</ele>
        <time>2021-11-14T16:47:02.013Z</time>
      </trkpt>
      <trkpt lat="47.624367" lon="7.909092">
        <ele>380.450194</ele>
        <time>2021-11-14T16:47:21.275Z</time>
      </trkpt>
      <trkpt lat="47.623851" lon="7.909030">
        <ele>383.175313</ele>
        <time>2021-11-14T16:47:38.863Z</time>
      </trkpt>
      <trkpt lat="47.623414" lon="7.909173">
        <ele>385.530967</ele>
        <time>2021-11-14T16:47:55.082Z</time>
      </trkpt>
      <trkpt lat="47.622850" lon="7.910055">
        <ele>389.789850</ele>
        <time>2021-11-14T16:48:22.058Z</time>
      </trkpt>
      <trkpt lat="47.622755" lon="7.910176">
        <ele>390.398168</ele>
        <time>2021-11-14T16:48:26.031Z</time>
      </trkpt>
      <trkpt lat="47.622666" lon="7.910254">
        <ele>390.900389</ele>
        <time>2021-11-14T16:48:30.164Z</time>
      </trkpt>
      <trkpt lat="47.622368" lon="7.910396">
        <ele>392.421090</ele>
        <time>2021-11-14T16:48:40.282Z</time>
      </trkpt>
      <trkpt lat="47.621461" lon="7.910146">
        <ele>396.903230</ele>
        <time>2021-11-14T16:49:12.334Z</time>
      </trkpt>
      <trkpt lat="47.621308" lon="7.910162">
        <ele>397.648438</ele>
        <time>2021-11-14T16:49:18.199Z</time>
      </trkpt>
      <trkpt lat="47.620712" lon="7.910483">
        <ele>401.368291</ele>
        <time>2021-11-14T16:49:39.373Z</time>
      </trkpt>
      <trkpt lat="47.620245" lon="7.910440">
        <ele>404.150482</ele>
        <time>2021-11-14T16:49:54.990Z</time>
      </trkpt>
      <trkpt lat="47.620162" lon="7.910587">
        <ele>404.919046</ele>
        <time>2021-11-14T16:50:00.191Z</time>
      </trkpt>
      <trkpt lat="47.620181" lon="7.910694">
        <ele>405.362528</ele>
        <time>2021-11-14T16:50:03.443Z</time>
      </trkpt>
      <trkpt lat="47.620625" lon="7.910808">
        <ele>408.041860</ele>
        <time>2021-11-14T16:50:23.889Z</time>
      </trkpt>
      <trkpt lat="47.620846" lon="7.911023">
        <ele>410.180426</ele>
        <time>2021-11-14T16:50:36.301Z</time>
      </trkpt>
      <trkpt lat="47.620946" lon="7.911321">
        <ele>412.238726</ele>
        <time>2021-11-14T16:50:47.357Z</time>
      </trkpt>
      <trkpt lat="47.620953" lon="7.911653">
        <ele>414.292534</ele>
        <time>2021-11-14T16:50:58.033Z</time>
      </trkpt>
      <trkpt lat="47.620910" lon="7.911951">
        <ele>416.176859</ele>
        <time>2021-11-14T16:51:08.501Z</time>
      </trkpt>
      <trkpt lat="47.620858" lon="7.912289">
        <ele>418.320511</ele>
        <time>2021-11-14T16:51:20.952Z</time>
      </trkpt>
      <trkpt lat="47.620822" lon="7.912670">
        <ele>420.699328</ele>
        <time>2021-11-14T16:51:34.189Z</time>
      </trkpt>
      <trkpt lat="47.620841" lon="7.913331">
        <ele>424.790108</ele>
        <time>2021-11-14T16:51:59.292Z</time>
      </trkpt>
      <trkpt lat="47.620869" lon="7.913635">
        <ele>426.829511</ele>
        <time>2021-11-14T16:52:10.818Z</time>
      </trkpt>
      <trkpt lat="47.621037" lon="7.914355">
        <ele>431.954438</ele>
        <time>2021-11-14T16:52:41.702Z</time>
      </trkpt>
      <trkpt lat="47.621530" lon="7.915222">
        <ele>439.584157</ele>
        <time>2021-11-14T16:53:21.792Z</time>
      </trkpt>
      <trkpt lat="47.621809" lon="7.915582">
        <ele>443.275846</ele>
        <time>2021-11-14T16:53:41.289Z</time>
      </trkpt>
      <trkpt lat="47.622393" lon="7.916077">
        <ele>450.035072</ele>
        <time>2021-11-14T16:54:17.281Z</time>
      </trkpt>
      <trkpt lat="47.622576" lon="7.916379">
        <ele>452.785849</ele>
        <time>2021-11-14T16:54:33.285Z</time>
      </trkpt>
      <trkpt lat="47.622647" lon="7.916647">
        <ele>454.736355</ele>
        <time>2021-11-14T16:54:44.845Z</time>
      </trkpt>
      <trkpt lat="47.622677" lon="7.917170">
        <ele>458.291726</ele>
        <time>2021-11-14T16:55:04.569Z</time>
      </trkpt>
      <trkpt lat="47.622656" lon="7.917625">
        <ele>461.370602</ele>
        <time>2021-11-14T16:55:21.119Z</time>
      </trkpt>
      <trkpt lat="47.622587" lon="7.917873">
        <ele>463.122958</ele>
        <time>2021-11-14T16:55:30.649Z</time>
      </trkpt>
      <trkpt lat="47.622424" lon="7.918069">
        <ele>465.156101</ele>
        <time>2021-11-14T16:55:42.206Z</time>
      </trkpt>
      <trkpt lat="47.622381" lon="7.918164">
        <ele>465.903512</ele>
        <time>2021-11-14T16:55:46.770Z</time>
      </trkpt>
      <trkpt lat="47.622366" lon="7.918470">
        <ele>467.907398</ele>
        <time>2021-11-14T16:55:57.102Z</time>
      </trkpt>
      <trkpt lat="47.622446" lon="7.918652">
        <ele>469.326558</ele>
        <time>2021-11-14T16:56:05.308Z</time>
      </trkpt>
      <trkpt lat="47.623010" lon="7.918947">
        <ele>475.121573</ele>
        <time>2021-11-14T16:56:35.323Z</time>
      </trkpt>
      <trkpt lat="47.623255" lon="7.919315">
        <ele>478.499941</ele>
        <time>2021-11-14T16:56:55.494Z</time>
      </trkpt>
      <trkpt lat="47.623430" lon="7.919875">
        <ele>482.998642</ele>
        <time>2021-11-14T16:57:18.657Z</time>
      </trkpt>
      <trkpt lat="47.623561" lon="7.920975">
        <ele>491.144420</ele>
        <time>2021-11-14T16:58:00.727Z</time>
      </trkpt>
      <trkpt lat="47.623588" lon="7.921368">
        <ele>494.025136</ele>
        <time>2021-11-14T16:58:17.174Z</time>
      </trkpt>
      <trkpt lat="47.623611" lon="7.921528">
        <ele>495.218143</ele>
        <time>2021-11-14T16:58:24.337Z</time>
      </trkpt>
      <trkpt lat="47.623626" lon="7.921633">
        <ele>496.000842</ele>
        <time>2021-11-14T16:58:29.253Z</time>
      </trkpt>
      <trkpt lat="47.623564" lon="7.921962">
        <ele>498.514987</ele>
        <time>2021-11-14T16:58:43.120Z</time>
      </trkpt>
      <trkpt lat="47.623298" lon="7.922501">
        <ele>503.606108</ele>
        <time>2021-11-14T16:59:11.491Z</time>
      </trkpt>
      <trkpt lat="47.623251" lon="7.922713">
        <ele>505.306921</ele>
        <time>2021-11-14T16:59:20.343Z</time>
      </trkpt>
      <trkpt lat="47.623227" lon="7.922954">
        <ele>507.163527</ele>
        <time>2021-11-14T16:59:31.581Z</time>
      </trkpt>
      <trkpt lat="47.623246" lon="7.923768">
        <ele>513.370757</ele>
        <time>2021-11-14T17:00:04.782Z</time>
      </trkpt>
      <trkpt lat="47.623206" lon="7.923969">
        <ele>514.967957</ele>
        <time>2021-11-14T17:00:13.442Z</time>
      </trkpt>
      <trkpt lat="47.623053" lon="7.924259">
        <ele>517.774628</ele>
        <time>2021-11-14T17:00:26.044Z</time>
      </trkpt>
      <trkpt lat="47.621723" lon="7.924936">
        <ele>533.136067</ele>
        <time>2021-11-14T17:01:43.442Z</time>
      </trkpt>
      <trkpt lat="47.621339" lon="7.925596">
        <ele>539.782646</ele>
        <time>2021-11-14T17:02:22.461Z</time>
      </trkpt>
      <trkpt lat="47.621290" lon="7.925709">
        <ele>540.915319</ele>
        <time>2021-11-14T17:02:29.287Z</time>
      </trkpt>
      <trkpt lat="47.621092" lon="7.926230">
        <ele>545.957285</ele>
        <time>2021-11-14T17:02:56.704Z</time>
      </trkpt>
      <trkpt lat="47.621008" lon="7.926716">
        <ele>550.186758</ele>
        <time>2021-11-14T17:03:19.155Z</time>
      </trkpt>
      <trkpt lat="47.621010" lon="7.926916">
        <ele>551.872920</ele>
        <time>2021-11-14T17:03:27.655Z</time>
      </trkpt>
      <trkpt lat="47.620993" lon="7.927078">
        <ele>553.255014</ele>
        <time>2021-11-14T17:03:35.018Z</time>
      </trkpt>
      <trkpt lat="47.620930" lon="7.927423">
        <ele>556.268168</ele>
        <time>2021-11-14T17:03:50.538Z</time>
      </trkpt>
      <trkpt lat="47.620873" lon="7.927631">
        <ele>558.160965</ele>
        <time>2021-11-14T17:04:01.069Z</time>
      </trkpt>
      <trkpt lat="47.620796" lon="7.927816">
        <ele>559.993870</ele>
        <time>2021-11-14T17:04:10.239Z</time>
      </trkpt>
      <trkpt lat="47.620670" lon="7.927946">
        <ele>561.454806</ele>
        <time>2021-11-14T17:04:20.460Z</time>
      </trkpt>
      <trkpt lat="47.620384" lon="7.928242">
        <ele>564.458484</ele>
        <time>2021-11-14T17:04:40.516Z</time>
      </trkpt>
      <trkpt lat="47.619053" lon="7.929381">
        <ele>577.433025</ele>
        <time>2021-11-14T17:05:49.255Z</time>
      </trkpt>
      <trkpt lat="47.618861" lon="7.929607">
        <ele>579.231637</ele>
        <time>2021-11-14T17:05:59.309Z</time>
      </trkpt>
      <trkpt lat="47.618734" lon="7.929873">
        <ele>580.844059</ele>
        <time>2021-11-14T17:06:06.851Z</time>
      </trkpt>
      <trkpt lat="47.618733" lon="7.929945">
        <ele>581.200289</ele>
        <time>2021-11-14T17:06:09.885Z</time>
      </trkpt>
      <trkpt lat="47.618761" lon="7.930033">
        <ele>581.681648</ele>
        <time>2021-11-14T17:06:12.735Z</time>
      </trkpt>
      <trkpt lat="47.618921" lon="7.930073">
        <ele>582.872360</ele>
        <time>2021-11-14T17:06:18.664Z</time>
      </trkpt>
      <trkpt lat="47.619210" lon="7.929687">
        <ele>585.726057</ele>
        <time>2021-11-14T17:06:35.190Z</time>
      </trkpt>
      <trkpt lat="47.619329" lon="7.929527">
        <ele>586.904617</ele>
        <time>2021-11-14T17:06:43.490Z</time>
      </trkpt>
      <trkpt lat="47.619604" lon="7.929315">
        <ele>589.197159</ele>
        <time>2021-11-14T17:06:58.089Z</time>
      </trkpt>
      <trkpt lat="47.619928" lon="7.929124">
        <ele>592.760268</ele>
        <time>2021-11-14T17:07:15.921Z</time>
      </trkpt>
      <trkpt lat="47.620569" lon="7.928919">
        <ele>599.461760</ele>
        <time>2021-11-14T17:07:50.857Z</time>
      </trkpt>
      <trkpt lat="47.621861" lon="7.928723">
        <ele>613.278266</ele>
        <time>2021-11-14T17:09:10.209Z</time>
      </trkpt>
      <trkpt lat="47.622913" lon="7.928884">
        <ele>625.211899</ele>
        <time>2021-11-14T17:10:15.646Z</time>
      </trkpt>
      <trkpt lat="47.622990" lon="7.929067">
        <ele>626.852630</ele>
        <time>2021-11-14T17:10:23.564Z</time>
      </trkpt>
      <trkpt lat="47.622989" lon="7.929175">
        <ele>627.674091</ele>
        <time>2021-11-14T17:10:29.194Z</time>
      </trkpt>
      <trkpt lat="47.623083" lon="7.929217">
        <ele>628.638629</ele>
        <time>2021-11-14T17:10:33.514Z</time>
      </trkpt>
      <trkpt lat="47.623184" lon="7.929263">
        <ele>629.655089</ele>
        <time>2021-11-14T17:10:38.167Z</time>
      </trkpt>
      <trkpt lat="47.623243" lon="7.929290">
        <ele>630.249108</ele>
        <time>2021-11-14T17:10:42.174Z</time>
      </trkpt>
      <trkpt lat="47.623515" lon="7.929516">
        <ele>633.248393</ele>
        <time>2021-11-14T17:10:58.152Z</time>
      </trkpt>
      <trkpt lat="47.623661" lon="7.929775">
        <ele>635.437836</ele>
        <time>2021-11-14T17:11:10.875Z</time>
      </trkpt>
      <trkpt lat="47.623898" lon="7.929981">
        <ele>638.080449</ele>
        <time>2021-11-14T17:11:25.647Z</time>
      </trkpt>
      <trkpt lat="47.624148" lon="7.929878">
        <ele>640.576677</ele>
        <time>2021-11-14T17:11:37.033Z</time>
      </trkpt>
      <trkpt lat="47.624516" lon="7.929342">
        <ele>645.555367</ele>
        <time>2021-11-14T17:12:04.441Z</time>
      </trkpt>
      <trkpt lat="47.624693" lon="7.929271">
        <ele>647.391692</ele>
        <time>2021-11-14T17:12:14.498Z</time>
      </trkpt>
      <trkpt lat="47.625522" lon="7.929345">
        <ele>655.709273</ele>
        <time>2021-11-14T17:13:02.573Z</time>
      </trkpt>
      <trkpt lat="47.626033" lon="7.929516">
        <ele>660.955567</ele>
        <time>2021-11-14T17:13:32.267Z</time>
      </trkpt>
      <trkpt lat="47.626414" lon="7.929713">
        <ele>664.865815</ele>
        <time>2021-11-14T17:13:52.797Z</time>
      </trkpt>
      <trkpt lat="47.626513" lon="7.929764">
        <ele>665.842006</ele>
        <time>2021-11-14T17:13:56.986Z</time>
      </trkpt>
      <trkpt lat="47.626886" lon="7.929825">
        <ele>669.337562</ele>
        <time>2021-11-14T17:14:15.420Z</time>
      </trkpt>
      <trkpt lat="47.626987" lon="7.929783">
        <ele>670.314633</ele>
        <time>2021-11-14T17:14:21.302Z</time>
      </trkpt>
      <trkpt lat="47.627834" lon="7.928864">
        <ele>680.133579</ele>
        <time>2021-11-14T17:15:17.142Z</time>
      </trkpt>
      <trkpt lat="47.628161" lon="7.928726">
        <ele>683.988046</ele>
        <time>2021-11-14T17:15:34.195Z</time>
      </trkpt>
      <trkpt lat="47.628543" lon="7.928608">
        <ele>688.411905</ele>
        <time>2021-11-14T17:15:56.344Z</time>
      </trkpt>
      <trkpt lat="47.629245" lon="7.928563">
        <ele>696.378401</ele>
        <time>2021-11-14T17:16:40.821Z</time>
      </trkpt>
      <trkpt lat="47.630399" lon="7.928619">
        <ele>710.043538</ele>
        <time>2021-11-14T17:17:58.247Z</time>
      </trkpt>
      <trkpt lat="47.632437" lon="7.928120">
        <ele>734.580247</ele>
        <time>2021-11-14T17:20:02.312Z</time>
      </trkpt>
      <trkpt lat="47.633595" lon="7.928236">
        <ele>748.585030</ele>
        <time>2021-11-14T17:21:16.953Z</time>
      </trkpt>
      <trkpt lat="47.634257" lon="7.928526">
        <ele>757.299178</ele>
        <time>2021-11-14T17:22:03.282Z</time>
      </trkpt>
      <trkpt lat="47.634762" lon="7.929013">
        <ele>764.902606</ele>
        <time>2021-11-14T17:22:43.044Z</time>
      </trkpt>
      <trkpt lat="47.635221" lon="7.929664">
        <ele>771.942823</ele>
        <time>2021-11-14T17:23:23.349Z</time>
      </trkpt>
      <trkpt lat="47.635488" lon="7.930306">
        <ele>777.488724</ele>
        <time>2021-11-14T17:23:53.337Z</time>
      </trkpt>
      <trkpt lat="47.635717" lon="7.930591">
        <ele>780.749136</ele>
        <time>2021-11-14T17:24:09.699Z</time>
      </trkpt>
      <trkpt lat="47.636022" lon="7.930655">
        <ele>784.109533</ele>
        <time>2021-11-14T17:24:25.907Z</time>
      </trkpt>
      <trkpt lat="47.636603" lon="7.930541">
        <ele>789.694160</ele>
        <time>2021-11-14T17:24:56.824Z</time>
      </trkpt>
      <trkpt lat="47.637092" lon="7.930719">
        <ele>794.322804</ele>
        <time>2021-11-14T17:25:23.349Z</time>
      </trkpt>
      <trkpt lat="47.637860" lon="7.930973">
        <ele>801.556246</ele>
        <time>2021-11-14T17:26:03.020Z</time>
      </trkpt>
      <trkpt lat="47.638146" lon="7.931131">
        <ele>804.489073</ele>
        <time>2021-11-14T17:26:18.305Z</time>
      </trkpt>
      <trkpt lat="47.638612" lon="7.931348">
        <ele>809.210953</ele>
        <time>2021-11-14T17:26:42.190Z</time>
      </trkpt>
      <trkpt lat="47.638875" lon="7.931601">
        <ele>812.241076</ele>
        <time>2021-11-14T17:26:59.521Z</time>
      </trkpt>
      <trkpt lat="47.639059" lon="7.932072">
        <ele>815.787723</ele>
        <time>2021-11-14T17:27:21.405Z</time>
      </trkpt>
      <trkpt lat="47.639161" lon="7.932537">
        <ele>818.973356</ele>
        <time>2021-11-14T17:27:40.474Z</time>
      </trkpt>
      <trkpt lat="47.639206" lon="7.933065">
        <ele>822.295533</ele>
        <time>2021-11-14T17:27:59.656Z</time>
      </trkpt>
      <trkpt lat="47.639165" lon="7.933477">
        <ele>824.884010</ele>
        <time>2021-11-14T17:28:13.352Z</time>
      </trkpt>
      <trkpt lat="47.639130" lon="7.933575">
        <ele>825.573382</ele>
        <time>2021-11-14T17:28:18.906Z</time>
      </trkpt>
      <trkpt lat="47.638943" lon="7.934020">
        <ele>828.833004</ele>
        <time>2021-11-14T17:28:37.246Z</time>
      </trkpt>
      <trkpt lat="47.638794" lon="7.934551">
        <ele>832.408093</ele>
        <time>2021-11-14T17:28:56.930Z</time>
      </trkpt>
      <trkpt lat="47.638822" lon="7.934800">
        <ele>833.977115</ele>
        <time>2021-11-14T17:29:04.565Z</time>
      </trkpt>
      <trkpt lat="47.638891" lon="7.934970">
        <ele>835.210613</ele>
        <time>2021-11-14T17:29:10.836Z</time>
      </trkpt>
      <trkpt lat="47.638983" lon="7.935124">
        <ele>836.366069</ele>
        <time>2021-11-14T17:29:18.509Z</time>
      </trkpt>
      <trkpt lat="47.639093" lon="7.935378">
        <ele>837.863603</ele>
        <time>2021-11-14T17:29:26.841Z</time>
      </trkpt>
      <trkpt lat="47.639308" lon="7.936143">
        <ele>841.974592</ele>
        <time>2021-11-14T17:29:53.349Z</time>
      </trkpt>
      <trkpt lat="47.639320" lon="7.936602">
        <ele>844.252800</ele>
        <time>2021-11-14T17:30:07.157Z</time>
      </trkpt>
      <trkpt lat="47.639124" lon="7.937579">
        <ele>849.250605</ele>
        <time>2021-11-14T17:30:35.537Z</time>
      </trkpt>
      <trkpt lat="47.638997" lon="7.937892">
        <ele>850.514635</ele>
        <time>2021-11-14T17:30:45.087Z</time>
      </trkpt>
      <trkpt lat="47.638865" lon="7.938060">
        <ele>851.407469</ele>
        <time>2021-11-14T17:30:52.129Z</time>
      </trkpt>
      <trkpt lat="47.638716" lon="7.938236">
        <ele>852.385235</ele>
        <time>2021-11-14T17:30:59.375Z</time>
      </trkpt>
      <trkpt lat="47.638539" lon="7.938594">
        <ele>853.921434</ele>
        <time>2021-11-14T17:31:10.924Z</time>
      </trkpt>
      <trkpt lat="47.638720" lon="7.939846">
        <ele>858.351456</ele>
        <time>2021-11-14T17:31:39.955Z</time>
      </trkpt>
      <trkpt lat="47.638649" lon="7.940702">
        <ele>858.940339</ele>
        <time>2021-11-14T17:31:53.503Z</time>
      </trkpt>
      <trkpt lat="47.638557" lon="7.941269">
        <ele>859.338343</ele>
        <time>2021-11-14T17:32:00.266Z</time>
      </trkpt>
      <trkpt lat="47.638425" lon="7.941930">
        <ele>859.808832</ele>
        <time>2021-11-14T17:32:07.859Z</time>
      </trkpt>
      <trkpt lat="47.638178" lon="7.942718">
        <ele>860.032664</ele>
        <time>2021-11-14T17:32:15.385Z</time>
      </trkpt>
      <trkpt lat="47.638082" lon="7.942969">
        <ele>859.911188</ele>
        <time>2021-11-14T17:32:17.595Z</time>
      </trkpt>
      <trkpt lat="47.637910" lon="7.943332">
        <ele>859.724410</ele>
        <time>2021-11-14T17:32:21.127Z</time>
      </trkpt>
      <trkpt lat="47.637613" lon="7.943952">
        <ele>859.404231</ele>
        <time>2021-11-14T17:32:27.543Z</time>
      </trkpt>
      <trkpt lat="47.637571" lon="7.944037">
        <ele>859.359866</ele>
        <time>2021-11-14T17:32:28.417Z</time>
      </trkpt>
      <trkpt lat="47.637442" lon="7.944256">
        <ele>859.237435</ele>
        <time>2021-11-14T17:32:30.806Z</time>
      </trkpt>
      <trkpt lat="47.637583" lon="7.944404">
        <ele>859.129558</ele>
        <time>2021-11-14T17:32:33.747Z</time>
      </trkpt>
      <trkpt lat="47.637690" lon="7.944520">
        <ele>859.054144</ele>
        <time>2021-11-14T17:32:35.481Z</time>
      </trkpt>
      <trkpt lat="47.637846" lon="7.944700">
        <ele>859.211537</ele>
        <time>2021-11-14T17:32:39.326Z</time>
      </trkpt>
      <trkpt lat="47.637977" lon="7.944887">
        <ele>859.356313</ele>
        <time>2021-11-14T17:32:41.710Z</time>
      </trkpt>
      <trkpt lat="47.638087" lon="7.945165">
        <ele>859.529338</ele>
        <time>2021-11-14T17:32:45.717Z</time>
      </trkpt>
      <trkpt lat="47.638180" lon="7.945471">
        <ele>859.709501</ele>
        <time>2021-11-14T17:32:48.779Z</time>
      </trkpt>
      <trkpt lat="47.638187" lon="7.945494">
        <ele>859.723046</ele>
        <time>2021-11-14T17:32:49.969Z</time>
      </trkpt>
      <trkpt lat="47.638490" lon="7.946296">
        <ele>860.216519</ele>
        <time>2021-11-14T17:33:00.844Z</time>
      </trkpt>
      <trkpt lat="47.638601" lon="7.946470">
        <ele>860.345118</ele>
        <time>2021-11-14T17:33:05.086Z</time>
      </trkpt>
      <trkpt lat="47.638633" lon="7.946522">
        <ele>860.382913</ele>
        <time>2021-11-14T17:33:06.060Z</time>
      </trkpt>
      <trkpt lat="47.638801" lon="7.946735">
        <ele>860.587207</ele>
        <time>2021-11-14T17:33:10.110Z</time>
      </trkpt>
      <trkpt lat="47.639079" lon="7.947097">
        <ele>860.991115</ele>
        <time>2021-11-14T17:33:18.440Z</time>
      </trkpt>
      <trkpt lat="47.639171" lon="7.947230">
        <ele>861.131379</ele>
        <time>2021-11-14T17:33:22.248Z</time>
      </trkpt>
      <trkpt lat="47.639245" lon="7.947417">
        <ele>861.290965</ele>
        <time>2021-11-14T17:33:24.875Z</time>
      </trkpt>
      <trkpt lat="47.639305" lon="7.947792">
        <ele>861.574590</ele>
        <time>2021-11-14T17:33:30.396Z</time>
      </trkpt>
      <trkpt lat="47.639254" lon="7.948202">
        <ele>861.881395</ele>
        <time>2021-11-14T17:33:35.988Z</time>
      </trkpt>
      <trkpt lat="47.639170" lon="7.948455">
        <ele>862.088946</ele>
        <time>2021-11-14T17:33:39.132Z</time>
      </trkpt>
      <trkpt lat="47.639038" lon="7.948758">
        <ele>862.354460</ele>
        <time>2021-11-14T17:33:43.155Z</time>
      </trkpt>
      <trkpt lat="47.638845" lon="7.949151">
        <ele>861.891977</ele>
        <time>2021-11-14T17:33:47.990Z</time>
      </trkpt>
      <trkpt lat="47.638433" lon="7.949786">
        <ele>860.534903</ele>
        <time>2021-11-14T17:33:55.050Z</time>
      </trkpt>
      <trkpt lat="47.637813" lon="7.950431">
        <ele>858.805023</ele>
        <time>2021-11-14T17:34:02.669Z</time>
      </trkpt>
      <trkpt lat="47.637598" lon="7.950642">
        <ele>858.060647</ele>
        <time>2021-11-14T17:34:05.126Z</time>
      </trkpt>
      <trkpt lat="47.637451" lon="7.950859">
        <ele>856.980807</ele>
        <time>2021-11-14T17:34:07.165Z</time>
      </trkpt>
      <trkpt lat="47.637383" lon="7.950993">
        <ele>856.392113</ele>
        <time>2021-11-14T17:34:08.185Z</time>
      </trkpt>
      <trkpt lat="47.637337" lon="7.951149">
        <ele>855.794531</ele>
        <time>2021-11-14T17:34:09.332Z</time>
      </trkpt>
      <trkpt lat="47.637306" lon="7.951326">
        <ele>855.152737</ele>
        <time>2021-11-14T17:34:10.502Z</time>
      </trkpt>
      <trkpt lat="47.637300" lon="7.951504">
        <ele>854.527292</ele>
        <time>2021-11-14T17:34:11.577Z</time>
      </trkpt>
      <trkpt lat="47.637400" lon="7.954079">
        <ele>846.042387</ele>
        <time>2021-11-14T17:34:27.711Z</time>
      </trkpt>
      <trkpt lat="47.637492" lon="7.954483">
        <ele>844.788521</ele>
        <time>2021-11-14T17:34:30.528Z</time>
      </trkpt>
      <trkpt lat="47.637714" lon="7.954725">
        <ele>843.586569</ele>
        <time>2021-11-14T17:34:33.293Z</time>
      </trkpt>
      <trkpt lat="47.637932" lon="7.954791">
        <ele>842.615720</ele>
        <time>2021-11-14T17:34:35.529Z</time>
      </trkpt>
      <trkpt lat="47.638760" lon="7.954525">
        <ele>839.499819</ele>
        <time>2021-11-14T17:34:43.902Z</time>
      </trkpt>
      <trkpt lat="47.639207" lon="7.954547">
        <ele>838.062859</ele>
        <time>2021-11-14T17:34:48.359Z</time>
      </trkpt>
      <trkpt lat="47.639497" lon="7.954714">
        <ele>837.063435</ele>
        <time>2021-11-14T17:34:51.470Z</time>
      </trkpt>
      <trkpt lat="47.639696" lon="7.954882">
        <ele>836.327864</ele>
        <time>2021-11-14T17:34:53.810Z</time>
      </trkpt>
      <trkpt lat="47.639795" lon="7.954985">
        <ele>835.939416</ele>
        <time>2021-11-14T17:34:55.001Z</time>
      </trkpt>
      <trkpt lat="47.640167" lon="7.955381">
        <ele>835.328834</ele>
        <time>2021-11-14T17:34:59.987Z</time>
      </trkpt>
      <trkpt lat="47.640501" lon="7.955695">
        <ele>835.308682</ele>
        <time>2021-11-14T17:35:04.647Z</time>
      </trkpt>
      <trkpt lat="47.641056" lon="7.956097">
        <ele>835.277206</ele>
        <time>2021-11-14T17:35:13.054Z</time>
      </trkpt>
      <trkpt lat="47.641512" lon="7.956418">
        <ele>835.251482</ele>
        <time>2021-11-14T17:35:24.937Z</time>
      </trkpt>
      <trkpt lat="47.641799" lon="7.956605">
        <ele>836.553765</ele>
        <time>2021-11-14T17:35:33.565Z</time>
      </trkpt>
      <trkpt lat="47.642280" lon="7.956756">
        <ele>838.657193</ele>
        <time>2021-11-14T17:35:48.566Z</time>
      </trkpt>
      <trkpt lat="47.642688" lon="7.956755">
        <ele>840.402772</ele>
        <time>2021-11-14T17:36:03.314Z</time>
      </trkpt>
      <trkpt lat="47.643476" lon="7.956624">
        <ele>844.019294</ele>
        <time>2021-11-14T17:36:31.318Z</time>
      </trkpt>
      <trkpt lat="47.643852" lon="7.956655">
        <ele>846.055725</ele>
        <time>2021-11-14T17:36:44.304Z</time>
      </trkpt>
      <trkpt lat="47.643910" lon="7.956673">
        <ele>846.376154</ele>
        <time>2021-11-14T17:36:46.966Z</time>
      </trkpt>
      <trkpt lat="47.644164" lon="7.956750">
        <ele>847.778067</ele>
        <time>2021-11-14T17:36:55.436Z</time>
      </trkpt>
      <trkpt lat="47.645406" lon="7.957496">
        <ele>855.454846</ele>
        <time>2021-11-14T17:37:46.184Z</time>
      </trkpt>
      <trkpt lat="47.645747" lon="7.957554">
        <ele>857.651514</ele>
        <time>2021-11-14T17:37:59.594Z</time>
      </trkpt>
      <trkpt lat="47.646155" lon="7.957498">
        <ele>860.273836</ele>
        <time>2021-11-14T17:38:16.224Z</time>
      </trkpt>
      <trkpt lat="47.646613" lon="7.957202">
        <ele>863.470812</ele>
        <time>2021-11-14T17:38:37.529Z</time>
      </trkpt>
      <trkpt lat="47.647946" lon="7.955473">
        <ele>875.809556</ele>
        <time>2021-11-14T17:39:54.927Z</time>
      </trkpt>
      <trkpt lat="47.648068" lon="7.955382">
        <ele>876.766473</ele>
        <time>2021-11-14T17:40:00.746Z</time>
      </trkpt>
      <trkpt lat="47.648185" lon="7.955328">
        <ele>877.557401</ele>
        <time>2021-11-14T17:40:05.312Z</time>
      </trkpt>
      <trkpt lat="47.648456" lon="7.955339">
        <ele>879.303229</ele>
        <time>2021-11-14T17:40:15.191Z</time>
      </trkpt>
      <trkpt lat="47.648720" lon="7.955532">
        <ele>881.198327</ele>
        <time>2021-11-14T17:40:27.495Z</time>
      </trkpt>
      <trkpt lat="47.648779" lon="7.955603">
        <ele>881.687444</ele>
        <time>2021-11-14T17:40:30.479Z</time>
      </trkpt>
      <trkpt lat="47.648843" lon="7.955710">
        <ele>882.308204</ele>
        <time>2021-11-14T17:40:34.080Z</time>
      </trkpt>
      <trkpt lat="47.648999" lon="7.956144">
        <ele>884.442267</ele>
        <time>2021-11-14T17:40:48.073Z</time>
      </trkpt>
      <trkpt lat="47.649197" lon="7.956371">
        <ele>886.053360</ele>
        <time>2021-11-14T17:40:59.253Z</time>
      </trkpt>
      <trkpt lat="47.649402" lon="7.956302">
        <ele>887.407024</ele>
        <time>2021-11-14T17:41:07.494Z</time>
      </trkpt>
      <trkpt lat="47.649584" lon="7.955970">
        <ele>889.247129</ele>
        <time>2021-11-14T17:41:17.952Z</time>
      </trkpt>
      <trkpt lat="47.649631" lon="7.955853">
        <ele>889.826949</ele>
        <time>2021-11-14T17:41:22.081Z</time>
      </trkpt>
      <trkpt lat="47.649724" lon="7.955623">
        <ele>890.968733</ele>
        <time>2021-11-14T17:41:28.629Z</time>
      </trkpt>
      <trkpt lat="47.650002" lon="7.954933">
        <ele>894.390831</ele>
        <time>2021-11-14T17:41:51.185Z</time>
      </trkpt>
      <trkpt lat="47.650118" lon="7.954645">
        <ele>895.819069</ele>
        <time>2021-11-14T17:42:00.803Z</time>
      </trkpt>
      <trkpt lat="47.650345" lon="7.953699">
        <ele>900.019663</ele>
        <time>2021-11-14T17:42:29.015Z</time>
      </trkpt>
      <trkpt lat="47.650482" lon="7.953573">
        <ele>900.827195</ele>
        <time>2021-11-14T17:42:34.158Z</time>
      </trkpt>
      <trkpt lat="47.650633" lon="7.953615">
        <ele>901.596969</ele>
        <time>2021-11-14T17:42:38.829Z</time>
      </trkpt>
      <trkpt lat="47.650657" lon="7.953661">
        <ele>901.793361</ele>
        <time>2021-11-14T17:42:41.354Z</time>
      </trkpt>
      <trkpt lat="47.650679" lon="7.953702">
        <ele>901.970290</ele>
        <time>2021-11-14T17:42:42.835Z</time>
      </trkpt>
      <trkpt lat="47.650715" lon="7.954086">
        <ele>903.278940</ele>
        <time>2021-11-14T17:42:50.119Z</time>
      </trkpt>
      <trkpt lat="47.650592" lon="7.955306">
        <ele>907.442810</ele>
        <time>2021-11-14T17:43:18.367Z</time>
      </trkpt>
      <trkpt lat="47.650609" lon="7.955764">
        <ele>909.024581</ele>
        <time>2021-11-14T17:43:29.698Z</time>
      </trkpt>
      <trkpt lat="47.650655" lon="7.955948">
        <ele>909.778841</ele>
        <time>2021-11-14T17:43:34.214Z</time>
      </trkpt>
      <trkpt lat="47.650842" lon="7.956246">
        <ele>911.343992</ele>
        <time>2021-11-14T17:43:43.400Z</time>
      </trkpt>
      <trkpt lat="47.651095" lon="7.956386">
        <ele>912.884359</ele>
        <time>2021-11-14T17:43:52.442Z</time>
      </trkpt>
      <trkpt lat="47.651292" lon="7.956406">
        <ele>914.010854</ele>
        <time>2021-11-14T17:43:59.257Z</time>
      </trkpt>
      <trkpt lat="47.651516" lon="7.956396">
        <ele>915.289336</ele>
        <time>2021-11-14T17:44:07.931Z</time>
      </trkpt>
      <trkpt lat="47.651719" lon="7.956399">
        <ele>916.447493</ele>
        <time>2021-11-14T17:44:15.906Z</time>
      </trkpt>
      <trkpt lat="47.651975" lon="7.956501">
        <ele>917.959645</ele>
        <time>2021-11-14T17:44:25.512Z</time>
      </trkpt>
      <trkpt lat="47.652053" lon="7.956533">
        <ele>918.421309</ele>
        <time>2021-11-14T17:44:29.771Z</time>
      </trkpt>
      <trkpt lat="47.652507" lon="7.957087">
        <ele>923.490760</ele>
        <time>2021-11-14T17:44:55.148Z</time>
      </trkpt>
      <trkpt lat="47.652595" lon="7.957204">
        <ele>924.583359</ele>
        <time>2021-11-14T17:45:01.739Z</time>
      </trkpt>
      <trkpt lat="47.652772" lon="7.957441">
        <ele>926.787929</ele>
        <time>2021-11-14T17:45:15.068Z</time>
      </trkpt>
      <trkpt lat="47.653096" lon="7.957768">
        <ele>930.411486</ele>
        <time>2021-11-14T17:45:35.621Z</time>
      </trkpt>
      <trkpt lat="47.653181" lon="7.957841">
        <ele>931.319712</ele>
        <time>2021-11-14T17:45:41.115Z</time>
      </trkpt>
      <trkpt lat="47.653828" lon="7.958393">
        <ele>938.884251</ele>
        <time>2021-11-14T17:46:23.406Z</time>
      </trkpt>
      <trkpt lat="47.653936" lon="7.958486">
        <ele>940.336125</ele>
        <time>2021-11-14T17:46:32.236Z</time>
      </trkpt>
      <trkpt lat="47.654813" lon="7.959256">
        <ele>952.184470</ele>
        <time>2021-11-14T17:47:35.806Z</time>
      </trkpt>
      <trkpt lat="47.655127" lon="7.959601">
        <ele>956.717730</ele>
        <time>2021-11-14T17:48:01.248Z</time>
      </trkpt>
      <trkpt lat="47.655427" lon="7.960070">
        <ele>961.497465</ele>
        <time>2021-11-14T17:48:27.113Z</time>
      </trkpt>
      <trkpt lat="47.655779" lon="7.960622">
        <ele>967.114820</ele>
        <time>2021-11-14T17:48:56.958Z</time>
      </trkpt>
      <trkpt lat="47.655850" lon="7.960949">
        <ele>969.653797</ele>
        <time>2021-11-14T17:49:10.412Z</time>
      </trkpt>
      <trkpt lat="47.655933" lon="7.962104">
        <ele>977.811597</ele>
        <time>2021-11-14T17:49:55.610Z</time>
      </trkpt>
      <trkpt lat="47.656081" lon="7.962896">
        <ele>982.553445</ele>
        <time>2021-11-14T17:50:26.157Z</time>
      </trkpt>
      <trkpt lat="47.656315" lon="7.963729">
        <ele>987.760419</ele>
        <time>2021-11-14T17:50:56.180Z</time>
      </trkpt>
      <trkpt lat="47.656368" lon="7.964081">
        <ele>989.841311</ele>
        <time>2021-11-14T17:51:07.884Z</time>
      </trkpt>
      <trkpt lat="47.656380" lon="7.964222">
        <ele>990.661242</ele>
        <time>2021-11-14T17:51:11.224Z</time>
      </trkpt>
      <trkpt lat="47.656398" lon="7.964453">
        <ele>991.747278</ele>
        <time>2021-11-14T17:51:17.158Z</time>
      </trkpt>
      <trkpt lat="47.656388" lon="7.964704">
        <ele>991.972144</ele>
        <time>2021-11-14T17:51:23.538Z</time>
      </trkpt>
      <trkpt lat="47.656383" lon="7.964840">
        <ele>992.093952</ele>
        <time>2021-11-14T17:51:25.947Z</time>
      </trkpt>
      <trkpt lat="47.656286" lon="7.965454">
        <ele>992.657964</ele>
        <time>2021-11-14T17:51:38.422Z</time>
      </trkpt>
      <trkpt lat="47.656243" lon="7.965641">
        <ele>992.834678</ele>
        <time>2021-11-14T17:51:42.724Z</time>
      </trkpt>
      <trkpt lat="47.656195" lon="7.965776">
        <ele>992.971199</ele>
        <time>2021-11-14T17:51:44.617Z</time>
      </trkpt>
      <trkpt lat="47.656122" lon="7.965934">
        <ele>993.142548</ele>
        <time>2021-11-14T17:51:47.163Z</time>
      </trkpt>
      <trkpt lat="47.656018" lon="7.966160">
        <ele>993.387329</ele>
        <time>2021-11-14T17:51:51.596Z</time>
      </trkpt>
      <trkpt lat="47.655941" lon="7.966294">
        <ele>993.544852</ele>
        <time>2021-11-14T17:51:52.938Z</time>
      </trkpt>
      <trkpt lat="47.655278" lon="7.967139">
        <ele>990.587161</ele>
        <time>2021-11-14T17:52:01.329Z</time>
      </trkpt>
      <trkpt lat="47.654821" lon="7.967589">
        <ele>986.452219</ele>
        <time>2021-11-14T17:52:06.227Z</time>
      </trkpt>
      <trkpt lat="47.654762" lon="7.967700">
        <ele>985.734061</ele>
        <time>2021-11-14T17:52:07.039Z</time>
      </trkpt>
      <trkpt lat="47.654750" lon="7.968047">
        <ele>983.969313</ele>
        <time>2021-11-14T17:52:09.117Z</time>
      </trkpt>
      <trkpt lat="47.654817" lon="7.968152">
        <ele>983.234720</ele>
        <time>2021-11-14T17:52:09.959Z</time>
      </trkpt>
      <trkpt lat="47.654885" lon="7.968206">
        <ele>982.653241</ele>
        <time>2021-11-14T17:52:10.594Z</time>
      </trkpt>
      <trkpt lat="47.655779" lon="7.968196">
        <ele>974.462361</ele>
        <time>2021-11-14T17:52:18.271Z</time>
      </trkpt>
      <trkpt lat="47.655957" lon="7.968245">
        <ele>972.668448</ele>
        <time>2021-11-14T17:52:19.792Z</time>
      </trkpt>
      <trkpt lat="47.656511" lon="7.968670">
        <ele>966.489120</ele>
        <time>2021-11-14T17:52:25.147Z</time>
      </trkpt>
      <trkpt lat="47.656696" lon="7.968854">
        <ele>964.282549</ele>
        <time>2021-11-14T17:52:27.102Z</time>
      </trkpt>
      <trkpt lat="47.656773" lon="7.968937">
        <ele>963.339631</ele>
        <time>2021-11-14T17:52:27.949Z</time>
      </trkpt>
      <trkpt lat="47.656962" lon="7.969271">
        <ele>961.181252</ele>
        <time>2021-11-14T17:52:30.567Z</time>
      </trkpt>
      <trkpt lat="47.657039" lon="7.969626">
        <ele>959.516075</ele>
        <time>2021-11-14T17:52:32.811Z</time>
      </trkpt>
      <trkpt lat="47.657032" lon="7.969793">
        <ele>958.769002</ele>
        <time>2021-11-14T17:52:33.801Z</time>
      </trkpt>
      <trkpt lat="47.656989" lon="7.969970">
        <ele>957.928892</ele>
        <time>2021-11-14T17:52:34.929Z</time>
      </trkpt>
      <trkpt lat="47.656815" lon="7.970288">
        <ele>956.099626</ele>
        <time>2021-11-14T17:52:37.397Z</time>
      </trkpt>
      <trkpt lat="47.656340" lon="7.970890">
        <ele>951.959770</ele>
        <time>2021-11-14T17:52:43.205Z</time>
      </trkpt>
      <trkpt lat="47.656102" lon="7.971198">
        <ele>950.033974</ele>
        <time>2021-11-14T17:52:46.246Z</time>
      </trkpt>
      <trkpt lat="47.655950" lon="7.971412">
        <ele>948.899300</ele>
        <time>2021-11-14T17:52:48.171Z</time>
      </trkpt>
      <trkpt lat="47.655150" lon="7.972945">
        <ele>941.823877</ele>
        <time>2021-11-14T17:53:00.498Z</time>
      </trkpt>
      <trkpt lat="47.655003" lon="7.973149">
        <ele>940.643907</ele>
        <time>2021-11-14T17:53:02.300Z</time>
      </trkpt>
      <trkpt lat="47.654310" lon="7.973921">
        <ele>934.561705</ele>
        <time>2021-11-14T17:53:10.065Z</time>
      </trkpt>
      <trkpt lat="47.654258" lon="7.973979">
        <ele>934.105115</ele>
        <time>2021-11-14T17:53:10.632Z</time>
      </trkpt>
      <trkpt lat="47.654129" lon="7.974161">
        <ele>932.855816</ele>
        <time>2021-11-14T17:53:12.226Z</time>
      </trkpt>
      <trkpt lat="47.654073" lon="7.974336">
        <ele>931.939662</ele>
        <time>2021-11-14T17:53:13.387Z</time>
      </trkpt>
      <trkpt lat="47.654051" lon="7.974524">
        <ele>931.037349</ele>
        <time>2021-11-14T17:53:14.544Z</time>
      </trkpt>
      <trkpt lat="47.654064" lon="7.974789">
        <ele>929.780922</ele>
        <time>2021-11-14T17:53:16.119Z</time>
      </trkpt>
      <trkpt lat="47.654068" lon="7.974892">
        <ele>929.293057</ele>
        <time>2021-11-14T17:53:16.746Z</time>
      </trkpt>
      <trkpt lat="47.654088" lon="7.975088">
        <ele>928.367858</ele>
        <time>2021-11-14T17:53:17.972Z</time>
      </trkpt>
      <trkpt lat="47.654099" lon="7.975313">
        <ele>927.534009</ele>
        <time>2021-11-14T17:53:19.317Z</time>
      </trkpt>
      <trkpt lat="47.654103" lon="7.976072">
        <ele>924.728454</ele>
        <time>2021-11-14T17:53:23.907Z</time>
      </trkpt>
      <trkpt lat="47.653874" lon="7.977660">
        <ele>918.725764</ele>
        <time>2021-11-14T17:53:34.256Z</time>
      </trkpt>
      <trkpt lat="47.653843" lon="7.977840">
        <ele>918.287471</ele>
        <time>2021-11-14T17:53:35.497Z</time>
      </trkpt>
      <trkpt lat="47.653813" lon="7.977977">
        <ele>918.018088</ele>
        <time>2021-11-14T17:53:36.543Z</time>
      </trkpt>
      <trkpt lat="47.653810" lon="7.978101">
        <ele>917.786062</ele>
        <time>2021-11-14T17:53:37.429Z</time>
      </trkpt>
      <trkpt lat="47.653855" lon="7.978549">
        <ele>916.939052</ele>
        <time>2021-11-14T17:53:40.607Z</time>
      </trkpt>
      <trkpt lat="47.653868" lon="7.978760">
        <ele>916.542841</ele>
        <time>2021-11-14T17:53:42.082Z</time>
      </trkpt>
      <trkpt lat="47.653862" lon="7.978904">
        <ele>916.273051</ele>
        <time>2021-11-14T17:53:43.078Z</time>
      </trkpt>
      <trkpt lat="47.653749" lon="7.979154">
        <ele>915.710065</ele>
        <time>2021-11-14T17:53:45.269Z</time>
      </trkpt>
      <trkpt lat="47.653520" lon="7.979391">
        <ele>914.935115</ele>
        <time>2021-11-14T17:53:48.200Z</time>
      </trkpt>
      <trkpt lat="47.653397" lon="7.979529">
        <ele>914.507114</ele>
        <time>2021-11-14T17:53:49.808Z</time>
      </trkpt>
      <trkpt lat="47.653193" lon="7.980022">
        <ele>913.460999</ele>
        <time>2021-11-14T17:53:54.032Z</time>
      </trkpt>
      <trkpt lat="47.652765" lon="7.981492">
        <ele>911.334887</ele>
        <time>2021-11-14T17:54:05.855Z</time>
      </trkpt>
      <trkpt lat="47.652576" lon="7.982196">
        <ele>910.328739</ele>
        <time>2021-11-14T17:54:11.601Z</time>
      </trkpt>
      <trkpt lat="47.652510" lon="7.982613">
        <ele>909.640513</ele>
        <time>2021-11-14T17:54:15.100Z</time>
      </trkpt>
      <trkpt lat="47.652508" lon="7.982678">
        <ele>909.511769</ele>
        <time>2021-11-14T17:54:15.482Z</time>
      </trkpt>
      <trkpt lat="47.652505" lon="7.982801">
        <ele>909.268239</ele>
        <time>2021-11-14T17:54:16.886Z</time>
      </trkpt>
      <trkpt lat="47.652559" lon="7.983185">
        <ele>908.492071</ele>
        <time>2021-11-14T17:54:19.704Z</time>
      </trkpt>
      <trkpt lat="47.652643" lon="7.983778">
        <ele>907.293092</ele>
        <time>2021-11-14T17:54:24.164Z</time>
      </trkpt>
      <trkpt lat="47.652643" lon="7.983793">
        <ele>907.263413</ele>
        <time>2021-11-14T17:54:24.281Z</time>
      </trkpt>
      <trkpt lat="47.652633" lon="7.984339">
        <ele>906.182691</ele>
        <time>2021-11-14T17:54:28.016Z</time>
      </trkpt>
      <trkpt lat="47.652604" lon="7.984546">
        <ele>905.764354</ele>
        <time>2021-11-14T17:54:29.557Z</time>
      </trkpt>
      <trkpt lat="47.652523" lon="7.984756">
        <ele>905.285550</ele>
        <time>2021-11-14T17:54:31.109Z</time>
      </trkpt>
      <trkpt lat="47.651945" lon="7.985453">
        <ele>901.294560</ele>
        <time>2021-11-14T17:54:38.151Z</time>
      </trkpt>
      <trkpt lat="47.651880" lon="7.985568">
        <ele>900.667315</ele>
        <time>2021-11-14T17:54:39.042Z</time>
      </trkpt>
      <trkpt lat="47.651807" lon="7.985695">
        <ele>899.969740</ele>
        <time>2021-11-14T17:54:40.081Z</time>
      </trkpt>
      <trkpt lat="47.651585" lon="7.986334">
        <ele>896.965611</ele>
        <time>2021-11-14T17:54:44.503Z</time>
      </trkpt>
      <trkpt lat="47.651572" lon="7.986401">
        <ele>896.674281</ele>
        <time>2021-11-14T17:54:44.917Z</time>
      </trkpt>
      <trkpt lat="47.651542" lon="7.986566">
        <ele>895.960182</ele>
        <time>2021-11-14T17:54:45.908Z</time>
      </trkpt>
      <trkpt lat="47.651466" lon="7.987627">
        <ele>891.418366</ele>
        <time>2021-11-14T17:54:52.331Z</time>
      </trkpt>
      <trkpt lat="47.651331" lon="7.989520">
        <ele>883.142152</ele>
        <time>2021-11-14T17:55:04.032Z</time>
      </trkpt>
      <trkpt lat="47.651306" lon="7.989748">
        <ele>882.137826</ele>
        <time>2021-11-14T17:55:05.462Z</time>
      </trkpt>
      <trkpt lat="47.651177" lon="7.990271">
        <ele>879.932937</ele>
        <time>2021-11-14T17:55:08.941Z</time>
      </trkpt>
      <trkpt lat="47.651085" lon="7.990554">
        <ele>878.698889</ele>
        <time>2021-11-14T17:55:10.894Z</time>
      </trkpt>
      <trkpt lat="47.650965" lon="7.990892">
        <ele>877.198423</ele>
        <time>2021-11-14T17:55:13.222Z</time>
      </trkpt>
      <trkpt lat="47.650648" lon="7.991764">
        <ele>873.307044</ele>
        <time>2021-11-14T17:55:19.379Z</time>
      </trkpt>
      <trkpt lat="47.650570" lon="7.992409">
        <ele>870.771065</ele>
        <time>2021-11-14T17:55:23.526Z</time>
      </trkpt>
      <trkpt lat="47.650522" lon="7.992647">
        <ele>869.845182</ele>
        <time>2021-11-14T17:55:25.057Z</time>
      </trkpt>
      <trkpt lat="47.650491" lon="7.992757">
        <ele>869.400803</ele>
        <time>2021-11-14T17:55:25.783Z</time>
      </trkpt>
      <trkpt lat="47.649934" lon="7.993901">
        <ele>864.140278</ele>
        <time>2021-11-14T17:55:34.604Z</time>
      </trkpt>
      <trkpt lat="47.649717" lon="7.994345">
        <ele>862.095930</ele>
        <time>2021-11-14T17:55:38.011Z</time>
      </trkpt>
      <trkpt lat="47.649609" lon="7.994509">
        <ele>861.357185</ele>
        <time>2021-11-14T17:55:39.416Z</time>
      </trkpt>
      <trkpt lat="47.649526" lon="7.994608">
        <ele>861.013718</ele>
        <time>2021-11-14T17:55:40.423Z</time>
      </trkpt>
      <trkpt lat="47.649427" lon="7.994686">
        <ele>860.652168</ele>
        <time>2021-11-14T17:55:41.530Z</time>
      </trkpt>
      <trkpt lat="47.649113" lon="7.994889">
        <ele>859.547371</ele>
        <time>2021-11-14T17:55:44.859Z</time>
      </trkpt>
      <trkpt lat="47.649038" lon="7.995009">
        <ele>859.191651</ele>
        <time>2021-11-14T17:55:45.936Z</time>
      </trkpt>
      <trkpt lat="47.649001" lon="7.995162">
        <ele>858.838389</ele>
        <time>2021-11-14T17:55:46.997Z</time>
      </trkpt>
      <trkpt lat="47.649052" lon="7.996133">
        <ele>856.721880</ele>
        <time>2021-11-14T17:55:53.899Z</time>
      </trkpt>
      <trkpt lat="47.649036" lon="7.996383">
        <ele>856.176152</ele>
        <time>2021-11-14T17:55:55.819Z</time>
      </trkpt>
      <trkpt lat="47.649000" lon="7.996557">
        <ele>855.780597</ele>
        <time>2021-11-14T17:55:57.258Z</time>
      </trkpt>
      <trkpt lat="47.648943" lon="7.996727">
        <ele>855.596991</ele>
        <time>2021-11-14T17:55:58.633Z</time>
      </trkpt>
      <trkpt lat="47.648540" lon="7.997501">
        <ele>854.864778</ele>
        <time>2021-11-14T17:56:07.752Z</time>
      </trkpt>
      <trkpt lat="47.648430" lon="7.997629">
        <ele>854.709482</ele>
        <time>2021-11-14T17:56:09.399Z</time>
      </trkpt>
      <trkpt lat="47.648402" lon="7.997659">
        <ele>854.671114</ele>
        <time>2021-11-14T17:56:10.542Z</time>
      </trkpt>
      <trkpt lat="47.647654" lon="7.997949">
        <ele>853.812144</ele>
        <time>2021-11-14T17:56:20.001Z</time>
      </trkpt>
      <trkpt lat="47.647486" lon="7.997973">
        <ele>853.455770</ele>
        <time>2021-11-14T17:56:21.710Z</time>
      </trkpt>
      <trkpt lat="47.647314" lon="7.997912">
        <ele>852.907375</ele>
        <time>2021-11-14T17:56:23.907Z</time>
      </trkpt>
      <trkpt lat="47.647123" lon="7.997773">
        <ele>852.247715</ele>
        <time>2021-11-14T17:56:26.014Z</time>
      </trkpt>
      <trkpt lat="47.646998" lon="7.997715">
        <ele>851.841585</ele>
        <time>2021-11-14T17:56:27.673Z</time>
      </trkpt>
      <trkpt lat="47.646802" lon="7.997752">
        <ele>851.228882</ele>
        <time>2021-11-14T17:56:29.613Z</time>
      </trkpt>
      <trkpt lat="47.646626" lon="7.997988">
        <ele>850.493369</ele>
        <time>2021-11-14T17:56:32.071Z</time>
      </trkpt>
      <trkpt lat="47.646428" lon="7.998315">
        <ele>849.574825</ele>
        <time>2021-11-14T17:56:34.996Z</time>
      </trkpt>
      <trkpt lat="47.646322" lon="7.998514">
        <ele>849.044825</ele>
        <time>2021-11-14T17:56:36.606Z</time>
      </trkpt>
      <trkpt lat="47.646124" lon="7.999072">
        <ele>847.681384</ele>
        <time>2021-11-14T17:56:40.700Z</time>
      </trkpt>
      <trkpt lat="47.645900" lon="8.000202">
        <ele>844.947921</ele>
        <time>2021-11-14T17:56:48.724Z</time>
      </trkpt>
      <trkpt lat="47.645825" lon="8.000415">
        <ele>844.390187</ele>
        <time>2021-11-14T17:56:50.383Z</time>
      </trkpt>
      <trkpt lat="47.645740" lon="8.000610">
        <ele>843.851205</ele>
        <time>2021-11-14T17:56:52.098Z</time>
      </trkpt>
      <trkpt lat="47.645398" lon="8.001143">
        <ele>842.143078</ele>
        <time>2021-11-14T17:56:57.325Z</time>
      </trkpt>
      <trkpt lat="47.644473" lon="8.002508">
        <ele>834.449524</ele>
        <time>2021-11-14T17:57:09.553Z</time>
      </trkpt>
      <trkpt lat="47.644444" lon="8.002552">
        <ele>834.200243</ele>
        <time>2021-11-14T17:57:09.918Z</time>
      </trkpt>
      <trkpt lat="47.644240" lon="8.002748">
        <ele>832.739487</ele>
        <time>2021-11-14T17:57:12.125Z</time>
      </trkpt>
      <trkpt lat="47.644119" lon="8.002821">
        <ele>831.954354</ele>
        <time>2021-11-14T17:57:13.306Z</time>
      </trkpt>
      <trkpt lat="47.644033" lon="8.002850">
        <ele>831.424225</ele>
        <time>2021-11-14T17:57:14.042Z</time>
      </trkpt>
      <trkpt lat="47.643341" lon="8.002817">
        <ele>825.264596</ele>
        <time>2021-11-14T17:57:20.047Z</time>
      </trkpt>
      <trkpt lat="47.643241" lon="8.002879">
        <ele>824.276980</ele>
        <time>2021-11-14T17:57:20.964Z</time>
      </trkpt>
      <trkpt lat="47.643046" lon="8.003223">
        <ele>821.516741</ele>
        <time>2021-11-14T17:57:23.563Z</time>
      </trkpt>
      <trkpt lat="47.643066" lon="8.003659">
        <ele>818.833554</ele>
        <time>2021-11-14T17:57:26.155Z</time>
      </trkpt>
      <trkpt lat="47.643093" lon="8.003754">
        <ele>818.200492</ele>
        <time>2021-11-14T17:57:26.729Z</time>
      </trkpt>
      <trkpt lat="47.643178" lon="8.003944">
        <ele>816.800164</ele>
        <time>2021-11-14T17:57:28.082Z</time>
      </trkpt>
      <trkpt lat="47.643447" lon="8.004400">
        <ele>813.588001</ele>
        <time>2021-11-14T17:57:31.723Z</time>
      </trkpt>
      <trkpt lat="47.643726" lon="8.005069">
        <ele>810.235444</ele>
        <time>2021-11-14T17:57:36.430Z</time>
      </trkpt>
      <trkpt lat="47.644186" lon="8.005517">
        <ele>806.755829</ele>
        <time>2021-11-14T17:57:41.418Z</time>
      </trkpt>
      <trkpt lat="47.644332" lon="8.006091">
        <ele>804.141529</ele>
        <time>2021-11-14T17:57:45.394Z</time>
      </trkpt>
      <trkpt lat="47.644406" lon="8.006203">
        <ele>803.473114</ele>
        <time>2021-11-14T17:57:46.409Z</time>
      </trkpt>
      <trkpt lat="47.644496" lon="8.006280">
        <ele>803.136573</ele>
        <time>2021-11-14T17:57:47.403Z</time>
      </trkpt>
      <trkpt lat="47.644976" lon="8.006338">
        <ele>801.861560</ele>
        <time>2021-11-14T17:57:52.234Z</time>
      </trkpt>
      <trkpt lat="47.645050" lon="8.006418">
        <ele>801.619186</ele>
        <time>2021-11-14T17:57:53.140Z</time>
      </trkpt>
      <trkpt lat="47.645066" lon="8.006638">
        <ele>801.224494</ele>
        <time>2021-11-14T17:57:54.640Z</time>
      </trkpt>
      <trkpt lat="47.645009" lon="8.006748">
        <ele>800.976966</ele>
        <time>2021-11-14T17:57:55.673Z</time>
      </trkpt>
      <trkpt lat="47.644813" lon="8.006998">
        <ele>800.292774</ele>
        <time>2021-11-14T17:57:58.334Z</time>
      </trkpt>
      <trkpt lat="47.644652" lon="8.006827">
        <ele>799.768634</ele>
        <time>2021-11-14T17:58:00.562Z</time>
      </trkpt>
      <trkpt lat="47.644119" lon="8.006394">
        <ele>798.774912</ele>
        <time>2021-11-14T17:58:07.774Z</time>
      </trkpt>
      <trkpt lat="47.643978" lon="8.006145">
        <ele>798.995768</ele>
        <time>2021-11-14T17:58:10.526Z</time>
      </trkpt>
      <trkpt lat="47.643811" lon="8.005674">
        <ele>799.357160</ele>
        <time>2021-11-14T17:58:15.608Z</time>
      </trkpt>
      <trkpt lat="47.643684" lon="8.005510">
        <ele>799.526813</ele>
        <time>2021-11-14T17:58:19.583Z</time>
      </trkpt>
      <trkpt lat="47.643340" lon="8.005252">
        <ele>799.915247</ele>
        <time>2021-11-14T17:58:29.534Z</time>
      </trkpt>
      <trkpt lat="47.643046" lon="8.005032">
        <ele>800.247070</ele>
        <time>2021-11-14T17:58:38.279Z</time>
      </trkpt>
      <trkpt lat="47.642796" lon="8.004845">
        <ele>800.498178</ele>
        <time>2021-11-14T17:58:43.784Z</time>
      </trkpt>
      <trkpt lat="47.642427" lon="8.004770">
        <ele>800.768735</ele>
        <time>2021-11-14T17:58:51.816Z</time>
      </trkpt>
      <trkpt lat="47.642337" lon="8.004796">
        <ele>800.835342</ele>
        <time>2021-11-14T17:58:54.771Z</time>
      </trkpt>
      <trkpt lat="47.642209" lon="8.004861">
        <ele>800.933618</ele>
        <time>2021-11-14T17:58:56.649Z</time>
      </trkpt>
      <trkpt lat="47.641961" lon="8.005163">
        <ele>801.166652</ele>
        <time>2021-11-14T17:59:02.497Z</time>
      </trkpt>
      <trkpt lat="47.641834" lon="8.005484">
        <ele>801.348850</ele>
        <time>2021-11-14T17:59:07.673Z</time>
      </trkpt>
      <trkpt lat="47.641804" lon="8.005576">
        <ele>801.398876</ele>
        <time>2021-11-14T17:59:08.374Z</time>
      </trkpt>
      <trkpt lat="47.641616" lon="8.005980">
        <ele>801.639191</ele>
        <time>2021-11-14T17:59:13.966Z</time>
      </trkpt>
      <trkpt lat="47.641404" lon="8.006152">
        <ele>801.308903</ele>
        <time>2021-11-14T17:59:16.959Z</time>
      </trkpt>
      <trkpt lat="47.640890" lon="8.006404">
        <ele>799.493141</ele>
        <time>2021-11-14T17:59:22.838Z</time>
      </trkpt>
      <trkpt lat="47.640257" lon="8.007048">
        <ele>796.918875</ele>
        <time>2021-11-14T17:59:30.188Z</time>
      </trkpt>
      <trkpt lat="47.640044" lon="8.007144">
        <ele>796.172183</ele>
        <time>2021-11-14T17:59:32.298Z</time>
      </trkpt>
      <trkpt lat="47.639834" lon="8.007071">
        <ele>795.345374</ele>
        <time>2021-11-14T17:59:34.422Z</time>
      </trkpt>
      <trkpt lat="47.639742" lon="8.006994">
        <ele>794.840241</ele>
        <time>2021-11-14T17:59:35.376Z</time>
      </trkpt>
      <trkpt lat="47.639631" lon="8.006838">
        <ele>794.109134</ele>
        <time>2021-11-14T17:59:36.799Z</time>
      </trkpt>
      <trkpt lat="47.639324" lon="8.006323">
        <ele>791.893322</ele>
        <time>2021-11-14T17:59:41.280Z</time>
      </trkpt>
      <trkpt lat="47.639248" lon="8.006245">
        <ele>791.451407</ele>
        <time>2021-11-14T17:59:42.105Z</time>
      </trkpt>
      <trkpt lat="47.639158" lon="8.006154">
        <ele>790.930582</ele>
        <time>2021-11-14T17:59:43.131Z</time>
      </trkpt>
      <trkpt lat="47.638830" lon="8.006018">
        <ele>789.301845</ele>
        <time>2021-11-14T17:59:46.384Z</time>
      </trkpt>
      <trkpt lat="47.638494" lon="8.006004">
        <ele>787.694285</ele>
        <time>2021-11-14T17:59:49.562Z</time>
      </trkpt>
      <trkpt lat="47.638358" lon="8.005969">
        <ele>787.045512</ele>
        <time>2021-11-14T17:59:50.882Z</time>
      </trkpt>
      <trkpt lat="47.638215" lon="8.005891">
        <ele>786.466787</ele>
        <time>2021-11-14T17:59:52.275Z</time>
      </trkpt>
      <trkpt lat="47.638107" lon="8.005814">
        <ele>786.011653</ele>
        <time>2021-11-14T17:59:53.501Z</time>
      </trkpt>
      <trkpt lat="47.637957" lon="8.005580">
        <ele>785.184984</ele>
        <time>2021-11-14T17:59:55.585Z</time>
      </trkpt>
      <trkpt lat="47.637787" lon="8.004794">
        <ele>783.072077</ele>
        <time>2021-11-14T18:00:01.208Z</time>
      </trkpt>
      <trkpt lat="47.637523" lon="8.004214">
        <ele>781.280557</ele>
        <time>2021-11-14T18:00:05.911Z</time>
      </trkpt>
      <trkpt lat="47.637184" lon="8.003698">
        <ele>779.722782</ele>
        <time>2021-11-14T18:00:10.718Z</time>
      </trkpt>
      <trkpt lat="47.636315" lon="8.003463">
        <ele>777.539592</ele>
        <time>2021-11-14T18:00:19.632Z</time>
      </trkpt>
      <trkpt lat="47.636070" lon="8.003329">
        <ele>776.894234</ele>
        <time>2021-11-14T18:00:22.485Z</time>
      </trkpt>
      <trkpt lat="47.635796" lon="8.002999">
        <ele>776.022060</ele>
        <time>2021-11-14T18:00:26.738Z</time>
      </trkpt>
      <trkpt lat="47.635608" lon="8.002439">
        <ele>775.479778</ele>
        <time>2021-11-14T18:00:33.085Z</time>
      </trkpt>
      <trkpt lat="47.635108" lon="8.000327">
        <ele>773.929277</ele>
        <time>2021-11-14T18:00:51.735Z</time>
      </trkpt>
      <trkpt lat="47.634953" lon="7.999648">
        <ele>772.793801</ele>
        <time>2021-11-14T18:00:56.987Z</time>
      </trkpt>
      <trkpt lat="47.634762" lon="7.999174">
        <ele>771.919057</ele>
        <time>2021-11-14T18:01:00.880Z</time>
      </trkpt>
      <trkpt lat="47.634587" lon="7.998962">
        <ele>771.388074</ele>
        <time>2021-11-14T18:01:03.246Z</time>
      </trkpt>
      <trkpt lat="47.634410" lon="7.998818">
        <ele>770.913624</ele>
        <time>2021-11-14T18:01:05.245Z</time>
      </trkpt>
      <trkpt lat="47.633905" lon="7.998683">
        <ele>769.805118</ele>
        <time>2021-11-14T18:01:10.426Z</time>
      </trkpt>
      <trkpt lat="47.633717" lon="7.998578">
        <ele>769.781688</ele>
        <time>2021-11-14T18:01:12.633Z</time>
      </trkpt>
      <trkpt lat="47.633574" lon="7.998408">
        <ele>769.760315</ele>
        <time>2021-11-14T18:01:14.865Z</time>
      </trkpt>
      <trkpt lat="47.633477" lon="7.998164">
        <ele>769.738048</ele>
        <time>2021-11-14T18:01:17.441Z</time>
      </trkpt>
      <trkpt lat="47.633385" lon="7.997544">
        <ele>769.688146</ele>
        <time>2021-11-14T18:01:25.927Z</time>
      </trkpt>
      <trkpt lat="47.633251" lon="7.995948">
        <ele>769.581114</ele>
        <time>2021-11-14T18:01:45.151Z</time>
      </trkpt>
      <trkpt lat="47.633236" lon="7.995517">
        <ele>769.564190</ele>
        <time>2021-11-14T18:01:50.137Z</time>
      </trkpt>
      <trkpt lat="47.633225" lon="7.995204">
        <ele>769.551900</ele>
        <time>2021-11-14T18:01:52.788Z</time>
      </trkpt>
      <trkpt lat="47.633165" lon="7.994756">
        <ele>769.533988</ele>
        <time>2021-11-14T18:01:57.604Z</time>
      </trkpt>
      <trkpt lat="47.633096" lon="7.994417">
        <ele>769.520102</ele>
        <time>2021-11-14T18:02:01.172Z</time>
      </trkpt>
      <trkpt lat="47.633034" lon="7.994185">
        <ele>769.510315</ele>
        <time>2021-11-14T18:02:03.118Z</time>
      </trkpt>
      <trkpt lat="47.632976" lon="7.993592">
        <ele>769.399124</ele>
        <time>2021-11-14T18:02:08.235Z</time>
      </trkpt>
      <trkpt lat="47.633263" lon="7.990675">
        <ele>768.422382</ele>
        <time>2021-11-14T18:02:33.669Z</time>
      </trkpt>
      <trkpt lat="47.633206" lon="7.989849">
        <ele>768.519018</ele>
        <time>2021-11-14T18:02:43.405Z</time>
      </trkpt>
      <trkpt lat="47.633172" lon="7.989666">
        <ele>768.541111</ele>
        <time>2021-11-14T18:02:45.803Z</time>
      </trkpt>
      <trkpt lat="47.633147" lon="7.989515">
        <ele>768.559207</ele>
        <time>2021-11-14T18:02:47.505Z</time>
      </trkpt>
      <trkpt lat="47.632909" lon="7.988820">
        <ele>768.649939</ele>
        <time>2021-11-14T18:02:56.089Z</time>
      </trkpt>
      <trkpt lat="47.632690" lon="7.988422">
        <ele>768.514551</ele>
        <time>2021-11-14T18:03:01.445Z</time>
      </trkpt>
      <trkpt lat="47.632504" lon="7.988217">
        <ele>768.335640</ele>
        <time>2021-11-14T18:03:04.828Z</time>
      </trkpt>
      <trkpt lat="47.632324" lon="7.988059">
        <ele>768.174148</ele>
        <time>2021-11-14T18:03:07.854Z</time>
      </trkpt>
      <trkpt lat="47.632243" lon="7.988006">
        <ele>768.105789</ele>
        <time>2021-11-14T18:03:09.028Z</time>
      </trkpt>
      <trkpt lat="47.632056" lon="7.987880">
        <ele>767.947200</ele>
        <time>2021-11-14T18:03:11.639Z</time>
      </trkpt>
      <trkpt lat="47.631642" lon="7.987687">
        <ele>767.612105</ele>
        <time>2021-11-14T18:03:16.998Z</time>
      </trkpt>
      <trkpt lat="47.631277" lon="7.987638">
        <ele>767.329102</ele>
        <time>2021-11-14T18:03:21.237Z</time>
      </trkpt>
      <trkpt lat="47.630656" lon="7.987791">
        <ele>765.713376</ele>
        <time>2021-11-14T18:03:28.039Z</time>
      </trkpt>
      <trkpt lat="47.628500" lon="7.989076">
        <ele>758.719242</ele>
        <time>2021-11-14T18:03:51.665Z</time>
      </trkpt>
      <trkpt lat="47.628046" lon="7.989331">
        <ele>757.114078</ele>
        <time>2021-11-14T18:03:56.484Z</time>
      </trkpt>
      <trkpt lat="47.627783" lon="7.989478">
        <ele>756.206411</ele>
        <time>2021-11-14T18:03:59.265Z</time>
      </trkpt>
      <trkpt lat="47.627745" lon="7.989499">
        <ele>756.085780</ele>
        <time>2021-11-14T18:03:59.673Z</time>
      </trkpt>
      <trkpt lat="47.627614" lon="7.989571">
        <ele>755.670194</ele>
        <time>2021-11-14T18:04:01.049Z</time>
      </trkpt>
      <trkpt lat="47.627368" lon="7.989707">
        <ele>754.889226</ele>
        <time>2021-11-14T18:04:03.681Z</time>
      </trkpt>
      <trkpt lat="47.627037" lon="7.989869">
        <ele>753.852355</ele>
        <time>2021-11-14T18:04:07.194Z</time>
      </trkpt>
      <trkpt lat="47.626890" lon="7.989948">
        <ele>753.387246</ele>
        <time>2021-11-14T18:04:08.776Z</time>
      </trkpt>
      <trkpt lat="47.626641" lon="7.990055">
        <ele>752.616061</ele>
        <time>2021-11-14T18:04:11.402Z</time>
      </trkpt>
      <trkpt lat="47.626285" lon="7.990191">
        <ele>751.522463</ele>
        <time>2021-11-14T18:04:15.248Z</time>
      </trkpt>
      <trkpt lat="47.626059" lon="7.990262">
        <ele>751.029338</ele>
        <time>2021-11-14T18:04:17.835Z</time>
      </trkpt>
      <trkpt lat="47.626001" lon="7.990279">
        <ele>751.012695</ele>
        <time>2021-11-14T18:04:18.459Z</time>
      </trkpt>
      <trkpt lat="47.625865" lon="7.990306">
        <ele>750.974071</ele>
        <time>2021-11-14T18:04:20.017Z</time>
      </trkpt>
      <trkpt lat="47.625484" lon="7.990308">
        <ele>750.866819</ele>
        <time>2021-11-14T18:04:24.528Z</time>
      </trkpt>
      <trkpt lat="47.625165" lon="7.990242">
        <ele>750.776152</ele>
        <time>2021-11-14T18:04:28.796Z</time>
      </trkpt>
      <trkpt lat="47.625082" lon="7.990226">
        <ele>750.752592</ele>
        <time>2021-11-14T18:04:30.252Z</time>
      </trkpt>
      <trkpt lat="47.624491" lon="7.989945">
        <ele>750.577893</ele>
        <time>2021-11-14T18:04:41.208Z</time>
      </trkpt>
      <trkpt lat="47.624001" lon="7.989485">
        <ele>751.307490</ele>
        <time>2021-11-14T18:04:53.427Z</time>
      </trkpt>
      <trkpt lat="47.623838" lon="7.989292">
        <ele>751.656213</ele>
        <time>2021-11-14T18:04:58.207Z</time>
      </trkpt>
      <trkpt lat="47.623561" lon="7.988865">
        <ele>752.324160</ele>
        <time>2021-11-14T18:05:07.371Z</time>
      </trkpt>
      <trkpt lat="47.623508" lon="7.988782">
        <ele>752.453021</ele>
        <time>2021-11-14T18:05:09.053Z</time>
      </trkpt>
      <trkpt lat="47.623303" lon="7.988291">
        <ele>753.103979</ele>
        <time>2021-11-14T18:05:17.862Z</time>
      </trkpt>
      <trkpt lat="47.623087" lon="7.987725">
        <ele>753.683190</ele>
        <time>2021-11-14T18:05:27.817Z</time>
      </trkpt>
      <trkpt lat="47.622073" lon="7.985033">
        <ele>754.289822</ele>
        <time>2021-11-14T18:06:03.355Z</time>
      </trkpt>
      <trkpt lat="47.622067" lon="7.985017">
        <ele>754.272003</ele>
        <time>2021-11-14T18:06:03.508Z</time>
      </trkpt>
      <trkpt lat="47.621842" lon="7.984392">
        <ele>753.582445</ele>
        <time>2021-11-14T18:06:09.267Z</time>
      </trkpt>
      <trkpt lat="47.621773" lon="7.984199">
        <ele>753.369834</ele>
        <time>2021-11-14T18:06:10.904Z</time>
      </trkpt>
      <trkpt lat="47.621453" lon="7.983289">
        <ele>752.370954</ele>
        <time>2021-11-14T18:06:18.268Z</time>
      </trkpt>
      <trkpt lat="47.621414" lon="7.983181">
        <ele>752.050603</ele>
        <time>2021-11-14T18:06:19.078Z</time>
      </trkpt>
      <trkpt lat="47.621287" lon="7.982952">
        <ele>751.133127</ele>
        <time>2021-11-14T18:06:21.099Z</time>
      </trkpt>
      <trkpt lat="47.621148" lon="7.982684">
        <ele>750.086922</ele>
        <time>2021-11-14T18:06:23.302Z</time>
      </trkpt>
      <trkpt lat="47.620712" lon="7.982017">
        <ele>747.212300</ele>
        <time>2021-11-14T18:06:29.239Z</time>
      </trkpt>
      <trkpt lat="47.620533" lon="7.981699">
        <ele>745.930501</ele>
        <time>2021-11-14T18:06:31.793Z</time>
      </trkpt>
      <trkpt lat="47.620263" lon="7.981105">
        <ele>743.738238</ele>
        <time>2021-11-14T18:06:36.293Z</time>
      </trkpt>
      <trkpt lat="47.619965" lon="7.980295">
        <ele>741.068756</ele>
        <time>2021-11-14T18:06:42.183Z</time>
      </trkpt>
      <trkpt lat="47.619797" lon="7.980012">
        <ele>739.977852</ele>
        <time>2021-11-14T18:06:44.725Z</time>
      </trkpt>
      <trkpt lat="47.619731" lon="7.979949">
        <ele>739.641033</ele>
        <time>2021-11-14T18:06:45.422Z</time>
      </trkpt>
      <trkpt lat="47.619484" lon="7.979885">
        <ele>738.564931</ele>
        <time>2021-11-14T18:06:47.937Z</time>
      </trkpt>
      <trkpt lat="47.619309" lon="7.979839">
        <ele>737.802182</ele>
        <time>2021-11-14T18:06:49.627Z</time>
      </trkpt>
      <trkpt lat="47.619179" lon="7.979764">
        <ele>737.203556</ele>
        <time>2021-11-14T18:06:51.096Z</time>
      </trkpt>
      <trkpt lat="47.619073" lon="7.979702">
        <ele>736.714554</ele>
        <time>2021-11-14T18:06:52.211Z</time>
      </trkpt>
      <trkpt lat="47.618976" lon="7.979589">
        <ele>736.219045</ele>
        <time>2021-11-14T18:06:53.485Z</time>
      </trkpt>
      <trkpt lat="47.618620" lon="7.979065">
        <ele>734.462898</ele>
        <time>2021-11-14T18:06:58.595Z</time>
      </trkpt>
      <trkpt lat="47.618419" lon="7.978768">
        <ele>733.469456</ele>
        <time>2021-11-14T18:07:01.495Z</time>
      </trkpt>
      <trkpt lat="47.617897" lon="7.977926">
        <ele>730.769125</ele>
        <time>2021-11-14T18:07:09.253Z</time>
      </trkpt>
      <trkpt lat="47.617863" lon="7.977860">
        <ele>730.573044</ele>
        <time>2021-11-14T18:07:09.717Z</time>
      </trkpt>
      <trkpt lat="47.617183" lon="7.976739">
        <ele>728.122994</ele>
        <time>2021-11-14T18:07:19.954Z</time>
      </trkpt>
      <trkpt lat="47.617143" lon="7.976643">
        <ele>727.953298</ele>
        <time>2021-11-14T18:07:20.608Z</time>
      </trkpt>
      <trkpt lat="47.617122" lon="7.976576">
        <ele>727.842198</ele>
        <time>2021-11-14T18:07:21.296Z</time>
      </trkpt>
      <trkpt lat="47.617087" lon="7.976456">
        <ele>727.645600</ele>
        <time>2021-11-14T18:07:22.375Z</time>
      </trkpt>
      <trkpt lat="47.617050" lon="7.976280">
        <ele>727.368394</ele>
        <time>2021-11-14T18:07:25.088Z</time>
      </trkpt>
      <trkpt lat="47.617035" lon="7.976194">
        <ele>727.234825</ele>
        <time>2021-11-14T18:07:25.620Z</time>
      </trkpt>
      <trkpt lat="47.616932" lon="7.975644">
        <ele>726.376519</ele>
        <time>2021-11-14T18:07:30.617Z</time>
      </trkpt>
      <trkpt lat="47.616823" lon="7.975315">
        <ele>726.328355</ele>
        <time>2021-11-14T18:07:35.732Z</time>
      </trkpt>
      <trkpt lat="47.616605" lon="7.975163">
        <ele>726.951494</ele>
        <time>2021-11-14T18:07:39.167Z</time>
      </trkpt>
      <trkpt lat="47.616374" lon="7.975153">
        <ele>727.549333</ele>
        <time>2021-11-14T18:07:43.687Z</time>
      </trkpt>
      <trkpt lat="47.615835" lon="7.975151">
        <ele>728.943701</ele>
        <time>2021-11-14T18:07:58.675Z</time>
      </trkpt>
      <trkpt lat="47.615388" lon="7.975207">
        <ele>730.104181</ele>
        <time>2021-11-14T18:08:12.964Z</time>
      </trkpt>
      <trkpt lat="47.615223" lon="7.975285">
        <ele>730.552176</ele>
        <time>2021-11-14T18:08:18.347Z</time>
      </trkpt>
      <trkpt lat="47.614735" lon="7.975625">
        <ele>732.620749</ele>
        <time>2021-11-14T18:08:34.951Z</time>
      </trkpt>
      <trkpt lat="47.614050" lon="7.976273">
        <ele>735.868554</ele>
        <time>2021-11-14T18:08:57.870Z</time>
      </trkpt>
      <trkpt lat="47.613802" lon="7.976286">
        <ele>736.860588</ele>
        <time>2021-11-14T18:09:05.789Z</time>
      </trkpt>
      <trkpt lat="47.613439" lon="7.976020">
        <ele>738.568247</ele>
        <time>2021-11-14T18:09:19.944Z</time>
      </trkpt>
      <trkpt lat="47.613266" lon="7.975808">
        <ele>739.603710</ele>
        <time>2021-11-14T18:09:27.820Z</time>
      </trkpt>
      <trkpt lat="47.613184" lon="7.975689">
        <ele>740.133054</ele>
        <time>2021-11-14T18:09:31.995Z</time>
      </trkpt>
      <trkpt lat="47.612962" lon="7.975399">
        <ele>741.498050</ele>
        <time>2021-11-14T18:09:41.937Z</time>
      </trkpt>
      <trkpt lat="47.612866" lon="7.975328">
        <ele>741.993041</ele>
        <time>2021-11-14T18:09:45.786Z</time>
      </trkpt>
      <trkpt lat="47.612717" lon="7.975295">
        <ele>742.688212</ele>
        <time>2021-11-14T18:09:51.201Z</time>
      </trkpt>
      <trkpt lat="47.612535" lon="7.975326">
        <ele>743.533557</ele>
        <time>2021-11-14T18:09:56.933Z</time>
      </trkpt>
      <trkpt lat="47.612478" lon="7.975388">
        <ele>743.859715</ele>
        <time>2021-11-14T18:09:59.573Z</time>
      </trkpt>
      <trkpt lat="47.612357" lon="7.975517">
        <ele>744.547308</ele>
        <time>2021-11-14T18:10:04.142Z</time>
      </trkpt>
      <trkpt lat="47.612223" lon="7.975718">
        <ele>745.426681</ele>
        <time>2021-11-14T18:10:10.774Z</time>
      </trkpt>
      <trkpt lat="47.612133" lon="7.975906">
        <ele>746.143967</ele>
        <time>2021-11-14T18:10:15.653Z</time>
      </trkpt>
      <trkpt lat="47.611876" lon="7.976376">
        <ele>746.123185</ele>
        <time>2021-11-14T18:10:27.846Z</time>
      </trkpt>
      <trkpt lat="47.611711" lon="7.976600">
        <ele>746.079038</ele>
        <time>2021-11-14T18:10:34.494Z</time>
      </trkpt>
      <trkpt lat="47.611588" lon="7.976702">
        <ele>746.051224</ele>
        <time>2021-11-14T18:10:38.146Z</time>
      </trkpt>
      <trkpt lat="47.611343" lon="7.976840">
        <ele>745.999497</ele>
        <time>2021-11-14T18:10:42.734Z</time>
      </trkpt>
      <trkpt lat="47.610048" lon="7.976910">
        <ele>741.961002</ele>
        <time>2021-11-14T18:10:55.259Z</time>
      </trkpt>
      <trkpt lat="47.609956" lon="7.976908">
        <ele>741.272785</ele>
        <time>2021-11-14T18:10:56.092Z</time>
      </trkpt>
      <trkpt lat="47.609734" lon="7.976902">
        <ele>739.611992</ele>
        <time>2021-11-14T18:10:58.069Z</time>
      </trkpt>
      <trkpt lat="47.609554" lon="7.976848">
        <ele>738.238364</ele>
        <time>2021-11-14T18:10:59.671Z</time>
      </trkpt>
      <trkpt lat="47.609405" lon="7.976774">
        <ele>737.063059</ele>
        <time>2021-11-14T18:11:01.075Z</time>
      </trkpt>
      <trkpt lat="47.609225" lon="7.976647">
        <ele>735.572135</ele>
        <time>2021-11-14T18:11:02.793Z</time>
      </trkpt>
      <trkpt lat="47.609083" lon="7.976509">
        <ele>734.302329</ele>
        <time>2021-11-14T18:11:04.267Z</time>
      </trkpt>
      <trkpt lat="47.609057" lon="7.976492">
        <ele>734.089798</ele>
        <time>2021-11-14T18:11:04.503Z</time>
      </trkpt>
      <trkpt lat="47.608829" lon="7.976172">
        <ele>731.745663</ele>
        <time>2021-11-14T18:11:07.247Z</time>
      </trkpt>
      <trkpt lat="47.608764" lon="7.976082">
        <ele>731.084356</ele>
        <time>2021-11-14T18:11:07.985Z</time>
      </trkpt>
      <trkpt lat="47.608361" lon="7.975503">
        <ele>726.911679</ele>
        <time>2021-11-14T18:11:12.872Z</time>
      </trkpt>
      <trkpt lat="47.608085" lon="7.975248">
        <ele>724.493379</ele>
        <time>2021-11-14T18:11:15.707Z</time>
      </trkpt>
      <trkpt lat="47.607949" lon="7.975198">
        <ele>723.451320</ele>
        <time>2021-11-14T18:11:16.933Z</time>
      </trkpt>
      <trkpt lat="47.607811" lon="7.975152">
        <ele>722.399397</ele>
        <time>2021-11-14T18:11:18.216Z</time>
      </trkpt>
      <trkpt lat="47.607703" lon="7.975163">
        <ele>721.594294</ele>
        <time>2021-11-14T18:11:19.253Z</time>
      </trkpt>
      <trkpt lat="47.607293" lon="7.975219">
        <ele>718.873652</ele>
        <time>2021-11-14T18:11:23.271Z</time>
      </trkpt>
      <trkpt lat="47.607002" lon="7.975117">
        <ele>718.219467</ele>
        <time>2021-11-14T18:11:26.620Z</time>
      </trkpt>
      <trkpt lat="47.606836" lon="7.974966">
        <ele>717.793432</ele>
        <time>2021-11-14T18:11:28.740Z</time>
      </trkpt>
      <trkpt lat="47.606683" lon="7.974772">
        <ele>717.353054</ele>
        <time>2021-11-14T18:11:31.040Z</time>
      </trkpt>
      <trkpt lat="47.606512" lon="7.974504">
        <ele>716.808780</ele>
        <time>2021-11-14T18:11:33.929Z</time>
      </trkpt>
      <trkpt lat="47.606402" lon="7.974261">
        <ele>716.377046</ele>
        <time>2021-11-14T18:11:36.256Z</time>
      </trkpt>
      <trkpt lat="47.606300" lon="7.973918">
        <ele>715.824073</ele>
        <time>2021-11-14T18:11:39.102Z</time>
      </trkpt>
      <trkpt lat="47.606116" lon="7.973296">
        <ele>714.821138</ele>
        <time>2021-11-14T18:11:44.291Z</time>
      </trkpt>
      <trkpt lat="47.606058" lon="7.973155">
        <ele>714.576541</ele>
        <time>2021-11-14T18:11:45.336Z</time>
      </trkpt>
      <trkpt lat="47.605981" lon="7.973005">
        <ele>714.297354</ele>
        <time>2021-11-14T18:11:46.818Z</time>
      </trkpt>
      <trkpt lat="47.605871" lon="7.972904">
        <ele>714.013199</ele>
        <time>2021-11-14T18:11:48.295Z</time>
      </trkpt>
      <trkpt lat="47.605644" lon="7.972831">
        <ele>713.503028</ele>
        <time>2021-11-14T18:11:50.776Z</time>
      </trkpt>
      <trkpt lat="47.605516" lon="7.972819">
        <ele>713.221326</ele>
        <time>2021-11-14T18:11:52.255Z</time>
      </trkpt>
      <trkpt lat="47.605374" lon="7.972905">
        <ele>712.884435</ele>
        <time>2021-11-14T18:11:53.769Z</time>
      </trkpt>
      <trkpt lat="47.604923" lon="7.973403">
        <ele>711.649468</ele>
        <time>2021-11-14T18:12:00.085Z</time>
      </trkpt>
      <trkpt lat="47.604857" lon="7.973536">
        <ele>711.404911</ele>
        <time>2021-11-14T18:12:01.149Z</time>
      </trkpt>
      <trkpt lat="47.604839" lon="7.973573">
        <ele>711.337344</ele>
        <time>2021-11-14T18:12:01.483Z</time>
      </trkpt>
      <trkpt lat="47.604831" lon="7.973588">
        <ele>711.309021</ele>
        <time>2021-11-14T18:12:01.619Z</time>
      </trkpt>
      <trkpt lat="47.604760" lon="7.973795">
        <ele>711.060196</ele>
        <time>2021-11-14T18:12:03.450Z</time>
      </trkpt>
      <trkpt lat="47.604738" lon="7.973885">
        <ele>711.000019</ele>
        <time>2021-11-14T18:12:04.164Z</time>
      </trkpt>
      <trkpt lat="47.604708" lon="7.974012">
        <ele>710.915429</ele>
        <time>2021-11-14T18:12:05.032Z</time>
      </trkpt>
      <trkpt lat="47.604645" lon="7.974490">
        <ele>710.609272</ele>
        <time>2021-11-14T18:12:08.634Z</time>
      </trkpt>
      <trkpt lat="47.604722" lon="7.975230">
        <ele>710.138602</ele>
        <time>2021-11-14T18:12:14.641Z</time>
      </trkpt>
      <trkpt lat="47.604837" lon="7.975632">
        <ele>709.864101</ele>
        <time>2021-11-14T18:12:18.484Z</time>
      </trkpt>
      <trkpt lat="47.604916" lon="7.975943">
        <ele>709.655193</ele>
        <time>2021-11-14T18:12:22.082Z</time>
      </trkpt>
      <trkpt lat="47.605029" lon="7.976646">
        <ele>710.238922</ele>
        <time>2021-11-14T18:12:30.675Z</time>
      </trkpt>
      <trkpt lat="47.605075" lon="7.977483">
        <ele>711.880688</ele>
        <time>2021-11-14T18:12:42.784Z</time>
      </trkpt>
      <trkpt lat="47.604988" lon="7.978584">
        <ele>714.047880</ele>
        <time>2021-11-14T18:13:05.622Z</time>
      </trkpt>
      <trkpt lat="47.604918" lon="7.978996">
        <ele>715.090148</ele>
        <time>2021-11-14T18:13:15.411Z</time>
      </trkpt>
      <trkpt lat="47.604776" lon="7.979454">
        <ele>717.069974</ele>
        <time>2021-11-14T18:13:27.944Z</time>
      </trkpt>
      <trkpt lat="47.604731" lon="7.979649">
        <ele>717.879440</ele>
        <time>2021-11-14T18:13:34.297Z</time>
      </trkpt>
      <trkpt lat="47.604684" lon="7.980290">
        <ele>720.411769</ele>
        <time>2021-11-14T18:13:50.521Z</time>
      </trkpt>
      <trkpt lat="47.604707" lon="7.980526">
        <ele>721.348277</ele>
        <time>2021-11-14T18:13:56.937Z</time>
      </trkpt>
      <trkpt lat="47.604737" lon="7.980685">
        <ele>721.996729</ele>
        <time>2021-11-14T18:14:02.378Z</time>
      </trkpt>
      <trkpt lat="47.604742" lon="7.981251">
        <ele>724.219848</ele>
        <time>2021-11-14T18:14:18.156Z</time>
      </trkpt>
      <trkpt lat="47.604541" lon="7.981767">
        <ele>725.957040</ele>
        <time>2021-11-14T18:14:33.781Z</time>
      </trkpt>
      <trkpt lat="47.603580" lon="7.982596">
        <ele>729.670988</ele>
        <time>2021-11-14T18:15:07.157Z</time>
      </trkpt>
      <trkpt lat="47.602904" lon="7.983364">
        <ele>729.676375</ele>
        <time>2021-11-14T18:15:22.574Z</time>
      </trkpt>
      <trkpt lat="47.602721" lon="7.983621">
        <ele>728.762124</ele>
        <time>2021-11-14T18:15:25.495Z</time>
      </trkpt>
      <trkpt lat="47.602644" lon="7.983742">
        <ele>728.355163</ele>
        <time>2021-11-14T18:15:26.500Z</time>
      </trkpt>
      <trkpt lat="47.602182" lon="7.984530">
        <ele>725.800983</ele>
        <time>2021-11-14T18:15:33.174Z</time>
      </trkpt>
      <trkpt lat="47.602072" lon="7.984743">
        <ele>725.144729</ele>
        <time>2021-11-14T18:15:34.852Z</time>
      </trkpt>
      <trkpt lat="47.601944" lon="7.984990">
        <ele>724.098763</ele>
        <time>2021-11-14T18:15:36.682Z</time>
      </trkpt>
      <trkpt lat="47.601786" lon="7.985227">
        <ele>722.346266</ele>
        <time>2021-11-14T18:15:38.742Z</time>
      </trkpt>
      <trkpt lat="47.601702" lon="7.985353">
        <ele>721.414557</ele>
        <time>2021-11-14T18:15:39.753Z</time>
      </trkpt>
      <trkpt lat="47.601244" lon="7.985812">
        <ele>717.103851</ele>
        <time>2021-11-14T18:15:44.643Z</time>
      </trkpt>
      <trkpt lat="47.600959" lon="7.986011">
        <ele>714.647289</ele>
        <time>2021-11-14T18:15:47.380Z</time>
      </trkpt>
      <trkpt lat="47.600869" lon="7.986065">
        <ele>713.890168</ele>
        <time>2021-11-14T18:15:48.247Z</time>
      </trkpt>
      <trkpt lat="47.600674" lon="7.986173">
        <ele>712.266894</ele>
        <time>2021-11-14T18:15:50.042Z</time>
      </trkpt>
      <trkpt lat="47.599584" lon="7.986808">
        <ele>704.546871</ele>
        <time>2021-11-14T18:16:00.681Z</time>
      </trkpt>
      <trkpt lat="47.598970" lon="7.987189">
        <ele>700.338049</ele>
        <time>2021-11-14T18:16:06.862Z</time>
      </trkpt>
      <trkpt lat="47.598718" lon="7.987384">
        <ele>698.516590</ele>
        <time>2021-11-14T18:16:09.464Z</time>
      </trkpt>
      <trkpt lat="47.598468" lon="7.987626">
        <ele>696.562833</ele>
        <time>2021-11-14T18:16:12.201Z</time>
      </trkpt>
      <trkpt lat="47.598432" lon="7.987661">
        <ele>696.281124</ele>
        <time>2021-11-14T18:16:12.598Z</time>
      </trkpt>
      <trkpt lat="47.598168" lon="7.987924">
        <ele>694.199806</ele>
        <time>2021-11-14T18:16:15.481Z</time>
      </trkpt>
      <trkpt lat="47.597809" lon="7.988272">
        <ele>691.393023</ele>
        <time>2021-11-14T18:16:19.343Z</time>
      </trkpt>
      <trkpt lat="47.597197" lon="7.988790">
        <ele>686.941730</ele>
        <time>2021-11-14T18:16:25.649Z</time>
      </trkpt>
      <trkpt lat="47.596445" lon="7.989273">
        <ele>682.847703</ele>
        <time>2021-11-14T18:16:33.181Z</time>
      </trkpt>
      <trkpt lat="47.595940" lon="7.989500">
        <ele>680.211503</ele>
        <time>2021-11-14T18:16:38.297Z</time>
      </trkpt>
      <trkpt lat="47.595627" lon="7.989468">
        <ele>678.644129</ele>
        <time>2021-11-14T18:16:41.430Z</time>
      </trkpt>
      <trkpt lat="47.595392" lon="7.989263">
        <ele>677.966522</ele>
        <time>2021-11-14T18:16:44.232Z</time>
      </trkpt>
      <trkpt lat="47.595288" lon="7.989057">
        <ele>677.597778</ele>
        <time>2021-11-14T18:16:46.095Z</time>
      </trkpt>
      <trkpt lat="47.595231" lon="7.988803">
        <ele>677.214184</ele>
        <time>2021-11-14T18:16:48.061Z</time>
      </trkpt>
      <trkpt lat="47.595279" lon="7.987696">
        <ele>675.624628</ele>
        <time>2021-11-14T18:16:56.620Z</time>
      </trkpt>
      <trkpt lat="47.595223" lon="7.987252">
        <ele>674.977364</ele>
        <time>2021-11-14T18:17:00.094Z</time>
      </trkpt>
      <trkpt lat="47.595069" lon="7.987007">
        <ele>674.388823</ele>
        <time>2021-11-14T18:17:02.631Z</time>
      </trkpt>
      <trkpt lat="47.594863" lon="7.986909">
        <ele>673.604438</ele>
        <time>2021-11-14T18:17:05.031Z</time>
      </trkpt>
      <trkpt lat="47.594655" lon="7.986957">
        <ele>672.841219</ele>
        <time>2021-11-14T18:17:07.267Z</time>
      </trkpt>
      <trkpt lat="47.594497" lon="7.987070">
        <ele>672.205214</ele>
        <time>2021-11-14T18:17:09.092Z</time>
      </trkpt>
      <trkpt lat="47.593485" lon="7.987901">
        <ele>668.003765</ele>
        <time>2021-11-14T18:17:20.262Z</time>
      </trkpt>
      <trkpt lat="47.592751" lon="7.988147">
        <ele>665.109333</ele>
        <time>2021-11-14T18:17:27.204Z</time>
      </trkpt>
      <trkpt lat="47.592324" lon="7.988430">
        <ele>663.310352</ele>
        <time>2021-11-14T18:17:31.770Z</time>
      </trkpt>
      <trkpt lat="47.592119" lon="7.988433">
        <ele>662.521813</ele>
        <time>2021-11-14T18:17:33.753Z</time>
      </trkpt>
      <trkpt lat="47.591971" lon="7.988287">
        <ele>661.838083</ele>
        <time>2021-11-14T18:17:35.972Z</time>
      </trkpt>
      <trkpt lat="47.591910" lon="7.988145">
        <ele>661.401356</ele>
        <time>2021-11-14T18:17:37.455Z</time>
      </trkpt>
      <trkpt lat="47.591874" lon="7.987958">
        <ele>661.178582</ele>
        <time>2021-11-14T18:17:38.739Z</time>
      </trkpt>
      <trkpt lat="47.591872" lon="7.987834">
        <ele>661.144731</ele>
        <time>2021-11-14T18:17:40.903Z</time>
      </trkpt>
      <trkpt lat="47.591989" lon="7.986949">
        <ele>660.898609</ele>
        <time>2021-11-14T18:17:49.379Z</time>
      </trkpt>
      <trkpt lat="47.591825" lon="7.986496">
        <ele>660.758294</ele>
        <time>2021-11-14T18:17:55.286Z</time>
      </trkpt>
      <trkpt lat="47.591744" lon="7.986404">
        <ele>660.717005</ele>
        <time>2021-11-14T18:17:58.307Z</time>
      </trkpt>
      <trkpt lat="47.591589" lon="7.986285">
        <ele>660.646373</ele>
        <time>2021-11-14T18:18:01.828Z</time>
      </trkpt>
      <trkpt lat="47.591392" lon="7.986243">
        <ele>660.565834</ele>
        <time>2021-11-14T18:18:05.064Z</time>
      </trkpt>
      <trkpt lat="47.591143" lon="7.986333">
        <ele>660.239953</ele>
        <time>2021-11-14T18:18:07.857Z</time>
      </trkpt>
      <trkpt lat="47.591034" lon="7.986459">
        <ele>659.612187</ele>
        <time>2021-11-14T18:18:10.880Z</time>
      </trkpt>
      <trkpt lat="47.590902" lon="7.986783">
        <ele>658.452644</ele>
        <time>2021-11-14T18:18:13.315Z</time>
      </trkpt>
      <trkpt lat="47.590700" lon="7.987535">
        <ele>655.973046</ele>
        <time>2021-11-14T18:18:18.745Z</time>
      </trkpt>
      <trkpt lat="47.590598" lon="7.987915">
        <ele>654.720180</ele>
        <time>2021-11-14T18:18:21.293Z</time>
      </trkpt>
      <trkpt lat="47.590529" lon="7.988254">
        <ele>653.635454</ele>
        <time>2021-11-14T18:18:23.400Z</time>
      </trkpt>
      <trkpt lat="47.590456" lon="7.988863">
        <ele>651.612834</ele>
        <time>2021-11-14T18:18:27.086Z</time>
      </trkpt>
      <trkpt lat="47.590392" lon="7.989205">
        <ele>650.283288</ele>
        <time>2021-11-14T18:18:29.361Z</time>
      </trkpt>
      <trkpt lat="47.590332" lon="7.989372">
        <ele>649.574468</ele>
        <time>2021-11-14T18:18:30.440Z</time>
      </trkpt>
      <trkpt lat="47.590153" lon="7.989440">
        <ele>648.548118</ele>
        <time>2021-11-14T18:18:32.239Z</time>
      </trkpt>
      <trkpt lat="47.589888" lon="7.989555">
        <ele>647.014455</ele>
        <time>2021-11-14T18:18:34.692Z</time>
      </trkpt>
      <trkpt lat="47.589802" lon="7.989594">
        <ele>646.514934</ele>
        <time>2021-11-14T18:18:35.598Z</time>
      </trkpt>
      <trkpt lat="47.589745" lon="7.989634">
        <ele>646.164664</ele>
        <time>2021-11-14T18:18:36.178Z</time>
      </trkpt>
      <trkpt lat="47.589661" lon="7.989741">
        <ele>645.549561</ele>
        <time>2021-11-14T18:18:37.124Z</time>
      </trkpt>
      <trkpt lat="47.589516" lon="7.989967">
        <ele>644.381054</ele>
        <time>2021-11-14T18:18:39.547Z</time>
      </trkpt>
      <trkpt lat="47.589334" lon="7.990467">
        <ele>642.295331</ele>
        <time>2021-11-14T18:18:43.424Z</time>
      </trkpt>
      <trkpt lat="47.589254" lon="7.990683">
        <ele>641.926001</ele>
        <time>2021-11-14T18:18:44.934Z</time>
      </trkpt>
      <trkpt lat="47.589147" lon="7.990836">
        <ele>641.595668</ele>
        <time>2021-11-14T18:18:47.535Z</time>
      </trkpt>
      <trkpt lat="47.588977" lon="7.991069">
        <ele>641.081216</ele>
        <time>2021-11-14T18:18:49.996Z</time>
      </trkpt>
      <trkpt lat="47.588784" lon="7.991274">
        <ele>640.553635</ele>
        <time>2021-11-14T18:18:52.844Z</time>
      </trkpt>
      <trkpt lat="47.588182" lon="7.992002">
        <ele>638.827331</ele>
        <time>2021-11-14T18:19:01.346Z</time>
      </trkpt>
      <trkpt lat="47.587950" lon="7.992314">
        <ele>637.957702</ele>
        <time>2021-11-14T18:19:04.946Z</time>
      </trkpt>
      <trkpt lat="47.587615" lon="7.992977">
        <ele>635.613933</ele>
        <time>2021-11-14T18:19:11.032Z</time>
      </trkpt>
      <trkpt lat="47.587069" lon="7.995057">
        <ele>627.727816</ele>
        <time>2021-11-14T18:19:25.120Z</time>
      </trkpt>
      <trkpt lat="47.586778" lon="7.995749">
        <ele>622.975692</ele>
        <time>2021-11-14T18:19:29.936Z</time>
      </trkpt>
      <trkpt lat="47.586622" lon="7.995984">
        <ele>621.054234</ele>
        <time>2021-11-14T18:19:31.831Z</time>
      </trkpt>
      <trkpt lat="47.586511" lon="7.996110">
        <ele>619.846397</ele>
        <time>2021-11-14T18:19:33.083Z</time>
      </trkpt>
      <trkpt lat="47.586377" lon="7.996241">
        <ele>618.459620</ele>
        <time>2021-11-14T18:19:34.443Z</time>
      </trkpt>
      <trkpt lat="47.586010" lon="7.996485">
        <ele>614.993936</ele>
        <time>2021-11-14T18:19:37.908Z</time>
      </trkpt>
      <trkpt lat="47.585973" lon="7.996492">
        <ele>614.683422</ele>
        <time>2021-11-14T18:19:38.220Z</time>
      </trkpt>
      <trkpt lat="47.585324" lon="7.996614">
        <ele>609.237391</ele>
        <time>2021-11-14T18:19:43.829Z</time>
      </trkpt>
      <trkpt lat="47.584188" lon="7.996318">
        <ele>599.815311</ele>
        <time>2021-11-14T18:19:54.124Z</time>
      </trkpt>
      <trkpt lat="47.584002" lon="7.996337">
        <ele>598.704099</ele>
        <time>2021-11-14T18:19:55.911Z</time>
      </trkpt>
      <trkpt lat="47.583554" lon="7.996491">
        <ele>595.963127</ele>
        <time>2021-11-14T18:20:00.261Z</time>
      </trkpt>
      <trkpt lat="47.583357" lon="7.996485">
        <ele>594.788734</ele>
        <time>2021-11-14T18:20:02.159Z</time>
      </trkpt>
      <trkpt lat="47.583085" lon="7.996290">
        <ele>592.987982</ele>
        <time>2021-11-14T18:20:05.054Z</time>
      </trkpt>
      <trkpt lat="47.582889" lon="7.995812">
        <ele>590.739098</ele>
        <time>2021-11-14T18:20:08.455Z</time>
      </trkpt>
      <trkpt lat="47.582884" lon="7.995369">
        <ele>588.713760</ele>
        <time>2021-11-14T18:20:11.119Z</time>
      </trkpt>
      <trkpt lat="47.582924" lon="7.995208">
        <ele>587.738824</ele>
        <time>2021-11-14T18:20:12.095Z</time>
      </trkpt>
      <trkpt lat="47.582956" lon="7.995058">
        <ele>586.844864</ele>
        <time>2021-11-14T18:20:13.088Z</time>
      </trkpt>
      <trkpt lat="47.583068" lon="7.994495">
        <ele>583.509498</ele>
        <time>2021-11-14T18:20:16.625Z</time>
      </trkpt>
      <trkpt lat="47.582994" lon="7.994245">
        <ele>581.958161</ele>
        <time>2021-11-14T18:20:18.300Z</time>
      </trkpt>
      <trkpt lat="47.582981" lon="7.994223">
        <ele>581.791966</ele>
        <time>2021-11-14T18:20:18.473Z</time>
      </trkpt>
      <trkpt lat="47.582850" lon="7.994143">
        <ele>580.598436</ele>
        <time>2021-11-14T18:20:19.772Z</time>
      </trkpt>
      <trkpt lat="47.582626" lon="7.994275">
        <ele>578.567810</ele>
        <time>2021-11-14T18:20:21.845Z</time>
      </trkpt>
      <trkpt lat="47.582354" lon="7.994436">
        <ele>576.100546</ele>
        <time>2021-11-14T18:20:24.473Z</time>
      </trkpt>
      <trkpt lat="47.582041" lon="7.994482">
        <ele>573.611057</ele>
        <time>2021-11-14T18:20:27.169Z</time>
      </trkpt>
      <trkpt lat="47.581631" lon="7.994181">
        <ele>570.409972</ele>
        <time>2021-11-14T18:20:31.074Z</time>
      </trkpt>
      <trkpt lat="47.581061" lon="7.993595">
        <ele>565.556777</ele>
        <time>2021-11-14T18:20:37.380Z</time>
      </trkpt>
      <trkpt lat="47.580922" lon="7.993422">
        <ele>564.286951</ele>
        <time>2021-11-14T18:20:39.048Z</time>
      </trkpt>
      <trkpt lat="47.580746" lon="7.993147">
        <ele>562.497858</ele>
        <time>2021-11-14T18:20:41.542Z</time>
      </trkpt>
      <trkpt lat="47.580618" lon="7.992910">
        <ele>561.461208</ele>
        <time>2021-11-14T18:20:43.559Z</time>
      </trkpt>
      <trkpt lat="47.580510" lon="7.992660">
        <ele>560.803445</ele>
        <time>2021-11-14T18:20:45.473Z</time>
      </trkpt>
      <trkpt lat="47.580342" lon="7.992263">
        <ele>559.765077</ele>
        <time>2021-11-14T18:20:48.643Z</time>
      </trkpt>
      <trkpt lat="47.580109" lon="7.991789">
        <ele>558.465594</ele>
        <time>2021-11-14T18:20:52.660Z</time>
      </trkpt>
      <trkpt lat="47.579903" lon="7.991422">
        <ele>557.407752</ele>
        <time>2021-11-14T18:20:56.137Z</time>
      </trkpt>
      <trkpt lat="47.579818" lon="7.991290">
        <ele>557.003419</ele>
        <time>2021-11-14T18:20:57.554Z</time>
      </trkpt>
      <trkpt lat="47.579721" lon="7.991137">
        <ele>556.538200</ele>
        <time>2021-11-14T18:20:59.213Z</time>
      </trkpt>
      <trkpt lat="47.579682" lon="7.991071">
        <ele>556.343794</ele>
        <time>2021-11-14T18:20:59.788Z</time>
      </trkpt>
      <trkpt lat="47.578053" lon="7.988644">
        <ele>548.288209</ele>
        <time>2021-11-14T18:21:22.748Z</time>
      </trkpt>
      <trkpt lat="47.577884" lon="7.988354">
        <ele>547.360181</ele>
        <time>2021-11-14T18:21:25.276Z</time>
      </trkpt>
      <trkpt lat="47.577758" lon="7.987971">
        <ele>546.328283</ele>
        <time>2021-11-14T18:21:28.136Z</time>
      </trkpt>
      <trkpt lat="47.577713" lon="7.987200">
        <ele>544.454230</ele>
        <time>2021-11-14T18:21:33.327Z</time>
      </trkpt>
      <trkpt lat="47.577714" lon="7.987021">
        <ele>544.020743</ele>
        <time>2021-11-14T18:21:34.488Z</time>
      </trkpt>
      <trkpt lat="47.577678" lon="7.986766">
        <ele>543.389848</ele>
        <time>2021-11-14T18:21:36.211Z</time>
      </trkpt>
      <trkpt lat="47.577559" lon="7.986405">
        <ele>542.668509</ele>
        <time>2021-11-14T18:21:38.905Z</time>
      </trkpt>
      <trkpt lat="47.577468" lon="7.986179">
        <ele>542.239987</ele>
        <time>2021-11-14T18:21:40.760Z</time>
      </trkpt>
      <trkpt lat="47.577428" lon="7.986064">
        <ele>542.029327</ele>
        <time>2021-11-14T18:21:41.661Z</time>
      </trkpt>
      <trkpt lat="47.577254" lon="7.985645">
        <ele>541.228238</ele>
        <time>2021-11-14T18:21:45.271Z</time>
      </trkpt>
      <trkpt lat="47.577191" lon="7.985496">
        <ele>540.941931</ele>
        <time>2021-11-14T18:21:46.562Z</time>
      </trkpt>
      <trkpt lat="47.577153" lon="7.985407">
        <ele>540.770441</ele>
        <time>2021-11-14T18:21:47.316Z</time>
      </trkpt>
      <trkpt lat="47.577089" lon="7.985258">
        <ele>540.482845</ele>
        <time>2021-11-14T18:21:48.676Z</time>
      </trkpt>
      <trkpt lat="47.577038" lon="7.985139">
        <ele>540.253302</ele>
        <time>2021-11-14T18:21:49.674Z</time>
      </trkpt>
      <trkpt lat="47.576862" lon="7.984726">
        <ele>539.457943</ele>
        <time>2021-11-14T18:21:53.326Z</time>
      </trkpt>
      <trkpt lat="47.576773" lon="7.984556">
        <ele>539.107584</ele>
        <time>2021-11-14T18:21:54.908Z</time>
      </trkpt>
      <trkpt lat="47.575900" lon="7.982922">
        <ele>535.958059</ele>
        <time>2021-11-14T18:22:10.616Z</time>
      </trkpt>
      <trkpt lat="47.575437" lon="7.982148">
        <ele>533.810518</ele>
        <time>2021-11-14T18:22:17.957Z</time>
      </trkpt>
      <trkpt lat="47.575361" lon="7.981969">
        <ele>533.060287</ele>
        <time>2021-11-14T18:22:19.330Z</time>
      </trkpt>
      <trkpt lat="47.575313" lon="7.981867">
        <ele>532.619143</ele>
        <time>2021-11-14T18:22:20.171Z</time>
      </trkpt>
      <trkpt lat="47.575256" lon="7.981747">
        <ele>532.098552</ele>
        <time>2021-11-14T18:22:21.157Z</time>
      </trkpt>
      <trkpt lat="47.575220" lon="7.981669">
        <ele>531.763316</ele>
        <time>2021-11-14T18:22:21.714Z</time>
      </trkpt>
      <trkpt lat="47.574964" lon="7.981092">
        <ele>529.313617</ele>
        <time>2021-11-14T18:22:25.976Z</time>
      </trkpt>
      <trkpt lat="47.574694" lon="7.980238">
        <ele>525.968124</ele>
        <time>2021-11-14T18:22:31.777Z</time>
      </trkpt>
      <trkpt lat="47.574304" lon="7.979181">
        <ele>521.990539</ele>
        <time>2021-11-14T18:22:39.242Z</time>
      </trkpt>
      <trkpt lat="47.574194" lon="7.978801">
        <ele>520.641403</ele>
        <time>2021-11-14T18:22:41.881Z</time>
      </trkpt>
      <trkpt lat="47.574095" lon="7.978060">
        <ele>518.176792</ele>
        <time>2021-11-14T18:22:46.702Z</time>
      </trkpt>
      <trkpt lat="47.574121" lon="7.977062">
        <ele>515.927698</ele>
        <time>2021-11-14T18:22:53.578Z</time>
      </trkpt>
      <trkpt lat="47.574193" lon="7.976530">
        <ele>515.168635</ele>
        <time>2021-11-14T18:22:58.898Z</time>
      </trkpt>
      <trkpt lat="47.574262" lon="7.976183">
        <ele>514.662557</ele>
        <time>2021-11-14T18:23:02.168Z</time>
      </trkpt>
      <trkpt lat="47.574460" lon="7.975510">
        <ele>513.635444</ele>
        <time>2021-11-14T18:23:08.660Z</time>
      </trkpt>
      <trkpt lat="47.574555" lon="7.975246">
        <ele>513.216873</ele>
        <time>2021-11-14T18:23:10.586Z</time>
      </trkpt>
      <trkpt lat="47.574711" lon="7.974906">
        <ele>512.125168</ele>
        <time>2021-11-14T18:23:13.404Z</time>
      </trkpt>
      <trkpt lat="47.575001" lon="7.974432">
        <ele>509.757912</ele>
        <time>2021-11-14T18:23:17.380Z</time>
      </trkpt>
      <trkpt lat="47.575056" lon="7.974176">
        <ele>508.763988</ele>
        <time>2021-11-14T18:23:19.181Z</time>
      </trkpt>
      <trkpt lat="47.575036" lon="7.974091">
        <ele>508.430957</ele>
        <time>2021-11-14T18:23:20.513Z</time>
      </trkpt>
      <trkpt lat="47.574997" lon="7.974006">
        <ele>508.050669</ele>
        <time>2021-11-14T18:23:21.090Z</time>
      </trkpt>
      <trkpt lat="47.574853" lon="7.973940">
        <ele>507.224128</ele>
        <time>2021-11-14T18:23:22.523Z</time>
      </trkpt>
      <trkpt lat="47.574406" lon="7.974054">
        <ele>504.736890</ele>
        <time>2021-11-14T18:23:26.766Z</time>
      </trkpt>
      <trkpt lat="47.574133" lon="7.974088">
        <ele>503.234561</ele>
        <time>2021-11-14T18:23:29.209Z</time>
      </trkpt>
      <trkpt lat="47.573741" lon="7.973991">
        <ele>500.276109</ele>
        <time>2021-11-14T18:23:32.727Z</time>
      </trkpt>
      <trkpt lat="47.573101" lon="7.973614">
        <ele>495.055334</ele>
        <time>2021-11-14T18:23:38.699Z</time>
      </trkpt>
      <trkpt lat="47.572323" lon="7.973803">
        <ele>489.146730</ele>
        <time>2021-11-14T18:23:45.816Z</time>
      </trkpt>
      <trkpt lat="47.571917" lon="7.973943">
        <ele>486.553682</ele>
        <time>2021-11-14T18:23:49.709Z</time>
      </trkpt>
      <trkpt lat="47.571191" lon="7.974114">
        <ele>481.980789</ele>
        <time>2021-11-14T18:23:56.411Z</time>
      </trkpt>
      <trkpt lat="47.570873" lon="7.974116">
        <ele>480.002590</ele>
        <time>2021-11-14T18:23:59.276Z</time>
      </trkpt>
      <trkpt lat="47.570736" lon="7.974051">
        <ele>479.107757</ele>
        <time>2021-11-14T18:24:00.735Z</time>
      </trkpt>
      <trkpt lat="47.570601" lon="7.973936">
        <ele>478.145470</ele>
        <time>2021-11-14T18:24:02.083Z</time>
      </trkpt>
      <trkpt lat="47.570511" lon="7.973853">
        <ele>477.518304</ele>
        <time>2021-11-14T18:24:03.080Z</time>
      </trkpt>
      <trkpt lat="47.570441" lon="7.973750">
        <ele>476.934701</ele>
        <time>2021-11-14T18:24:04.140Z</time>
      </trkpt>
      <trkpt lat="47.570343" lon="7.973473">
        <ele>475.686138</ele>
        <time>2021-11-14T18:24:05.997Z</time>
      </trkpt>
      <trkpt lat="47.570047" lon="7.972099">
        <ele>469.928422</ele>
        <time>2021-11-14T18:24:15.053Z</time>
      </trkpt>
      <trkpt lat="47.569990" lon="7.971563">
        <ele>467.762331</ele>
        <time>2021-11-14T18:24:18.445Z</time>
      </trkpt>
      <trkpt lat="47.570085" lon="7.971101">
        <ele>465.946430</ele>
        <time>2021-11-14T18:24:21.338Z</time>
      </trkpt>
      <trkpt lat="47.570370" lon="7.970636">
        <ele>463.595512</ele>
        <time>2021-11-14T18:24:25.245Z</time>
      </trkpt>
      <trkpt lat="47.570627" lon="7.970391">
        <ele>461.900662</ele>
        <time>2021-11-14T18:24:28.054Z</time>
      </trkpt>
      <trkpt lat="47.570725" lon="7.969975">
        <ele>460.251761</ele>
        <time>2021-11-14T18:24:30.812Z</time>
      </trkpt>
      <trkpt lat="47.570731" lon="7.969690">
        <ele>459.184731</ele>
        <time>2021-11-14T18:24:32.723Z</time>
      </trkpt>
      <trkpt lat="47.570716" lon="7.969667">
        <ele>459.065024</ele>
        <time>2021-11-14T18:24:32.901Z</time>
      </trkpt>
      <trkpt lat="47.570480" lon="7.968735">
        <ele>456.087759</ele>
        <time>2021-11-14T18:24:39.527Z</time>
      </trkpt>
      <trkpt lat="47.570550" lon="7.966846">
        <ele>451.300037</ele>
        <time>2021-11-14T18:24:52.329Z</time>
      </trkpt>
      <trkpt lat="47.570481" lon="7.965950">
        <ele>447.834424</ele>
        <time>2021-11-14T18:24:58.393Z</time>
      </trkpt>
      <trkpt lat="47.570328" lon="7.965210">
        <ele>444.646632</ele>
        <time>2021-11-14T18:25:03.224Z</time>
      </trkpt>
      <trkpt lat="47.570254" lon="7.964874">
        <ele>443.190857</ele>
        <time>2021-11-14T18:25:05.397Z</time>
      </trkpt>
      <trkpt lat="47.570155" lon="7.964560">
        <ele>441.763313</ele>
        <time>2021-11-14T18:25:07.458Z</time>
      </trkpt>
      <trkpt lat="47.570105" lon="7.964426">
        <ele>441.132613</ele>
        <time>2021-11-14T18:25:08.412Z</time>
      </trkpt>
      <trkpt lat="47.570063" lon="7.964314">
        <ele>440.604842</ele>
        <time>2021-11-14T18:25:09.141Z</time>
      </trkpt>
      <trkpt lat="47.569716" lon="7.963517">
        <ele>435.057825</ele>
        <time>2021-11-14T18:25:14.725Z</time>
      </trkpt>
      <trkpt lat="47.569673" lon="7.963432">
        <ele>434.397723</ele>
        <time>2021-11-14T18:25:15.322Z</time>
      </trkpt>
      <trkpt lat="47.569518" lon="7.963128">
        <ele>432.030174</ele>
        <time>2021-11-14T18:25:17.549Z</time>
      </trkpt>
      <trkpt lat="47.569137" lon="7.962553">
        <ele>427.022687</ele>
        <time>2021-11-14T18:25:22.197Z</time>
      </trkpt>
      <trkpt lat="47.568755" lon="7.962005">
        <ele>422.608575</ele>
        <time>2021-11-14T18:25:26.910Z</time>
      </trkpt>
      <trkpt lat="47.568612" lon="7.961724">
        <ele>421.276344</ele>
        <time>2021-11-14T18:25:29.027Z</time>
      </trkpt>
      <trkpt lat="47.568453" lon="7.961186">
        <ele>419.053167</ele>
        <time>2021-11-14T18:25:32.747Z</time>
      </trkpt>
      <trkpt lat="47.568429" lon="7.960657">
        <ele>417.046322</ele>
        <time>2021-11-14T18:25:36.168Z</time>
      </trkpt>
      <trkpt lat="47.568473" lon="7.960157">
        <ele>415.137737</ele>
        <time>2021-11-14T18:25:39.398Z</time>
      </trkpt>
      <trkpt lat="47.568528" lon="7.959653">
        <ele>413.203288</ele>
        <time>2021-11-14T18:25:42.631Z</time>
      </trkpt>
      <trkpt lat="47.568564" lon="7.959390">
        <ele>412.156265</ele>
        <time>2021-11-14T18:25:44.412Z</time>
      </trkpt>
      <trkpt lat="47.568620" lon="7.958768">
        <ele>409.707965</ele>
        <time>2021-11-14T18:25:48.484Z</time>
      </trkpt>
      <trkpt lat="47.568617" lon="7.958466">
        <ele>408.529558</ele>
        <time>2021-11-14T18:25:50.392Z</time>
      </trkpt>
      <trkpt lat="47.568534" lon="7.958185">
        <ele>407.332755</ele>
        <time>2021-11-14T18:25:52.395Z</time>
      </trkpt>
      <trkpt lat="47.568454" lon="7.958052">
        <ele>406.637572</ele>
        <time>2021-11-14T18:25:53.490Z</time>
      </trkpt>
      <trkpt lat="47.568255" lon="7.957713">
        <ele>404.884402</ele>
        <time>2021-11-14T18:25:56.317Z</time>
      </trkpt>
      <trkpt lat="47.568026" lon="7.957127">
        <ele>401.912799</ele>
        <time>2021-11-14T18:26:00.341Z</time>
      </trkpt>
      <trkpt lat="47.567876" lon="7.956292">
        <ele>396.766928</ele>
        <time>2021-11-14T18:26:05.416Z</time>
      </trkpt>
      <trkpt lat="47.567697" lon="7.955901">
        <ele>393.953017</ele>
        <time>2021-11-14T18:26:08.134Z</time>
      </trkpt>
      <trkpt lat="47.567635" lon="7.955827">
        <ele>393.250399</ele>
        <time>2021-11-14T18:26:08.833Z</time>
      </trkpt>
      <trkpt lat="47.567555" lon="7.955776">
        <ele>392.481743</ele>
        <time>2021-11-14T18:26:09.611Z</time>
      </trkpt>
      <trkpt lat="47.567506" lon="7.955755">
        <ele>392.031534</ele>
        <time>2021-11-14T18:26:10.024Z</time>
      </trkpt>
      <trkpt lat="47.567397" lon="7.955717">
        <ele>391.043207</ele>
        <time>2021-11-14T18:26:11.046Z</time>
      </trkpt>
      <trkpt lat="47.566963" lon="7.955772">
        <ele>387.198603</ele>
        <time>2021-11-14T18:26:14.902Z</time>
      </trkpt>
      <trkpt lat="47.566562" lon="7.955847">
        <ele>384.608823</ele>
        <time>2021-11-14T18:26:18.469Z</time>
      </trkpt>
      <trkpt lat="47.566505" lon="7.955859">
        <ele>384.248458</ele>
        <time>2021-11-14T18:26:18.991Z</time>
      </trkpt>
      <trkpt lat="47.566355" lon="7.955842">
        <ele>383.306812</ele>
        <time>2021-11-14T18:26:20.283Z</time>
      </trkpt>
      <trkpt lat="47.566072" lon="7.955622">
        <ele>381.306516</ele>
        <time>2021-11-14T18:26:23.110Z</time>
      </trkpt>
      <trkpt lat="47.565971" lon="7.955460">
        <ele>380.374960</ele>
        <time>2021-11-14T18:26:24.520Z</time>
      </trkpt>
      <trkpt lat="47.565929" lon="7.955254">
        <ele>379.466078</ele>
        <time>2021-11-14T18:26:25.863Z</time>
      </trkpt>
      <trkpt lat="47.565870" lon="7.954749">
        <ele>377.301498</ele>
        <time>2021-11-14T18:26:29.126Z</time>
      </trkpt>
      <trkpt lat="47.565868" lon="7.952957">
        <ele>371.585687</ele>
        <time>2021-11-14T18:26:41.548Z</time>
      </trkpt>
      <trkpt lat="47.565742" lon="7.952404">
        <ele>369.881543</ele>
        <time>2021-11-14T18:26:45.412Z</time>
      </trkpt>
      <trkpt lat="47.565595" lon="7.952077">
        <ele>368.734324</ele>
        <time>2021-11-14T18:26:47.914Z</time>
      </trkpt>
      <trkpt lat="47.565562" lon="7.952029">
        <ele>368.534247</ele>
        <time>2021-11-14T18:26:48.338Z</time>
      </trkpt>
      <trkpt lat="47.565535" lon="7.951987">
        <ele>368.364876</ele>
        <time>2021-11-14T18:26:48.676Z</time>
      </trkpt>
      <trkpt lat="47.565408" lon="7.951808">
        <ele>367.229344</ele>
        <time>2021-11-14T18:26:50.272Z</time>
      </trkpt>
      <trkpt lat="47.565271" lon="7.951640">
        <ele>365.618812</ele>
        <time>2021-11-14T18:26:51.844Z</time>
      </trkpt>
      <trkpt lat="47.565233" lon="7.951606">
        <ele>365.216778</ele>
        <time>2021-11-14T18:26:52.226Z</time>
      </trkpt>
      <trkpt lat="47.565142" lon="7.951534">
        <ele>364.282468</ele>
        <time>2021-11-14T18:26:53.153Z</time>
      </trkpt>
      <trkpt lat="47.565101" lon="7.951517">
        <ele>363.896862</ele>
        <time>2021-11-14T18:26:53.522Z</time>
      </trkpt>
      <trkpt lat="47.564987" lon="7.951465">
        <ele>362.816539</ele>
        <time>2021-11-14T18:26:54.577Z</time>
      </trkpt>
      <trkpt lat="47.564916" lon="7.951435">
        <ele>362.147851</ele>
        <time>2021-11-14T18:26:55.205Z</time>
      </trkpt>
      <trkpt lat="47.564611" lon="7.951358">
        <ele>359.345601</ele>
        <time>2021-11-14T18:26:57.921Z</time>
      </trkpt>
      <trkpt lat="47.564462" lon="7.951378">
        <ele>357.990550</ele>
        <time>2021-11-14T18:26:59.176Z</time>
      </trkpt>
      <trkpt lat="47.564352" lon="7.951413">
        <ele>356.971552</ele>
        <time>2021-11-14T18:27:00.154Z</time>
      </trkpt>
      <trkpt lat="47.564041" lon="7.951533">
        <ele>354.060849</ele>
        <time>2021-11-14T18:27:02.900Z</time>
      </trkpt>
      <trkpt lat="47.563996" lon="7.951547">
        <ele>353.644389</ele>
        <time>2021-11-14T18:27:03.294Z</time>
      </trkpt>
      <trkpt lat="47.563940" lon="7.951569">
        <ele>353.119666</ele>
        <time>2021-11-14T18:27:03.822Z</time>
      </trkpt>
      <trkpt lat="47.563504" lon="7.951763">
        <ele>348.969224</ele>
        <time>2021-11-14T18:27:07.708Z</time>
      </trkpt>
      <trkpt lat="47.563195" lon="7.951799">
        <ele>346.133095</ele>
        <time>2021-11-14T18:27:10.424Z</time>
      </trkpt>
      <trkpt lat="47.563084" lon="7.951741">
        <ele>345.056142</ele>
        <time>2021-11-14T18:27:11.409Z</time>
      </trkpt>
      <trkpt lat="47.562980" lon="7.951601">
        <ele>343.770537</ele>
        <time>2021-11-14T18:27:12.619Z</time>
      </trkpt>
      <trkpt lat="47.562736" lon="7.951001">
        <ele>339.445158</ele>
        <time>2021-11-14T18:27:16.779Z</time>
      </trkpt>
      <trkpt lat="47.562663" lon="7.950848">
        <ele>338.288181</ele>
        <time>2021-11-14T18:27:17.870Z</time>
      </trkpt>
      <trkpt lat="47.562663" lon="7.950848">
        <ele>338.288181</ele>
        <time>2021-11-14T18:27:17.872Z</time>
      </trkpt>
      <trkpt lat="47.562589" lon="7.950738">
        <ele>337.329134</ele>
        <time>2021-11-14T18:27:18.803Z</time>
      </trkpt>
      <trkpt lat="47.562411" lon="7.950637">
        <ele>335.585097</ele>
        <time>2021-11-14T18:27:20.464Z</time>
      </trkpt>
      <trkpt lat="47.562128" lon="7.950654">
        <ele>333.522098</ele>
        <time>2021-11-14T18:27:23.036Z</time>
      </trkpt>
      <trkpt lat="47.561985" lon="7.950699">
        <ele>332.504494</ele>
        <time>2021-11-14T18:27:24.298Z</time>
      </trkpt>
      <trkpt lat="47.561884" lon="7.950731">
        <ele>331.785555</ele>
        <time>2021-11-14T18:27:25.247Z</time>
      </trkpt>
      <trkpt lat="47.561545" lon="7.950855">
        <ele>329.354989</ele>
        <time>2021-11-14T18:27:28.429Z</time>
      </trkpt>
      <trkpt lat="47.561191" lon="7.950783">
        <ele>326.867728</ele>
        <time>2021-11-14T18:27:31.654Z</time>
      </trkpt>
      <trkpt lat="47.561103" lon="7.950738">
        <ele>326.219724</ele>
        <time>2021-11-14T18:27:32.490Z</time>
      </trkpt>
      <trkpt lat="47.561003" lon="7.950686">
        <ele>325.482023</ele>
        <time>2021-11-14T18:27:33.421Z</time>
      </trkpt>
      <trkpt lat="47.560901" lon="7.950634">
        <ele>324.731171</ele>
        <time>2021-11-14T18:27:34.430Z</time>
      </trkpt>
      <trkpt lat="47.560627" lon="7.950285">
        <ele>322.297259</ele>
        <time>2021-11-14T18:27:37.684Z</time>
      </trkpt>
      <trkpt lat="47.560390" lon="7.949772">
        <ele>319.884486</ele>
        <time>2021-11-14T18:27:41.532Z</time>
      </trkpt>
      <trkpt lat="47.559708" lon="7.947739">
        <ele>311.301339</ele>
        <time>2021-11-14T18:27:55.782Z</time>
      </trkpt>
      <trkpt lat="47.559497" lon="7.947113">
        <ele>309.074917</ele>
        <time>2021-11-14T18:28:00.196Z</time>
      </trkpt>
      <trkpt lat="47.559335" lon="7.946657">
        <ele>307.435248</ele>
        <time>2021-11-14T18:28:03.508Z</time>
      </trkpt>
      <trkpt lat="47.559262" lon="7.946497">
        <ele>306.820727</ele>
        <time>2021-11-14T18:28:04.758Z</time>
      </trkpt>
      <trkpt lat="47.559192" lon="7.946365">
        <ele>306.286565</ele>
        <time>2021-11-14T18:28:05.909Z</time>
      </trkpt>
      <trkpt lat="47.559181" lon="7.946345">
        <ele>306.204471</ele>
        <time>2021-11-14T18:28:06.050Z</time>
      </trkpt>
      <trkpt lat="47.558869" lon="7.945954">
        <ele>304.277870</ele>
        <time>2021-11-14T18:28:10.020Z</time>
      </trkpt>
      <trkpt lat="47.558804" lon="7.945896">
        <ele>303.920123</ele>
        <time>2021-11-14T18:28:10.717Z</time>
      </trkpt>
      <trkpt lat="47.558745" lon="7.945856">
        <ele>303.729033</ele>
        <time>2021-11-14T18:28:11.366Z</time>
      </trkpt>
      <trkpt lat="47.558700" lon="7.945825">
        <ele>303.605250</ele>
        <time>2021-11-14T18:28:11.884Z</time>
      </trkpt>
      <trkpt lat="47.558608" lon="7.945765">
        <ele>303.354526</ele>
        <time>2021-11-14T18:28:12.935Z</time>
      </trkpt>
      <trkpt lat="47.558540" lon="7.945722">
        <ele>303.170110</ele>
        <time>2021-11-14T18:28:13.627Z</time>
      </trkpt>
      <trkpt lat="47.558415" lon="7.945666">
        <ele>302.844375</ele>
        <time>2021-11-14T18:28:14.883Z</time>
      </trkpt>
      <trkpt lat="47.558161" lon="7.945614">
        <ele>302.204787</ele>
        <time>2021-11-14T18:28:17.518Z</time>
      </trkpt>
      <trkpt lat="47.558102" lon="7.945615">
        <ele>302.057609</ele>
        <time>2021-11-14T18:28:18.082Z</time>
      </trkpt>
      <trkpt lat="47.558009" lon="7.945617">
        <ele>301.825608</ele>
        <time>2021-11-14T18:28:19.088Z</time>
      </trkpt>
      <trkpt lat="47.557910" lon="7.945625">
        <ele>301.578298</ele>
        <time>2021-11-14T18:28:20.219Z</time>
      </trkpt>
      <trkpt lat="47.557744" lon="7.945674">
        <ele>301.156096</ele>
        <time>2021-11-14T18:28:21.888Z</time>
      </trkpt>
      <trkpt lat="47.557613" lon="7.945697">
        <ele>300.827048</ele>
        <time>2021-11-14T18:28:23.476Z</time>
      </trkpt>
      <trkpt lat="47.557529" lon="7.945747">
        <ele>300.601248</ele>
        <time>2021-11-14T18:28:24.627Z</time>
      </trkpt>
      <trkpt lat="47.557394" lon="7.945716">
        <ele>300.260488</ele>
        <time>2021-11-14T18:28:26.076Z</time>
      </trkpt>
      <trkpt lat="47.557268" lon="7.945688">
        <ele>299.942682</ele>
        <time>2021-11-14T18:28:27.686Z</time>
      </trkpt>
      <trkpt lat="47.557196" lon="7.945663">
        <ele>299.758223</ele>
        <time>2021-11-14T18:28:28.692Z</time>
      </trkpt>
      <trkpt lat="47.557110" lon="7.945492">
        <ele>299.399231</ele>
        <time>2021-11-14T18:28:30.540Z</time>
      </trkpt>
      <trkpt lat="47.556999" lon="7.945268">
        <ele>299.293687</ele>
        <time>2021-11-14T18:28:32.953Z</time>
      </trkpt>
      <trkpt lat="47.556919" lon="7.945110">
        <ele>299.234878</ele>
        <time>2021-11-14T18:28:34.724Z</time>
      </trkpt>
      <trkpt lat="47.556893" lon="7.945057">
        <ele>299.215370</ele>
        <time>2021-11-14T18:28:35.235Z</time>
      </trkpt>
      <trkpt lat="47.556830" lon="7.944931">
        <ele>299.168681</ele>
        <time>2021-11-14T18:28:36.556Z</time>
      </trkpt>
      <trkpt lat="47.556650" lon="7.944566">
        <ele>299.034086</ele>
        <time>2021-11-14T18:28:40.491Z</time>
      </trkpt>
      <trkpt lat="47.556439" lon="7.944137">
        <ele>298.876037</ele>
        <time>2021-11-14T18:28:45.301Z</time>
      </trkpt>
      <trkpt lat="47.556345" lon="7.943946">
        <ele>298.805654</ele>
        <time>2021-11-14T18:28:47.466Z</time>
      </trkpt>
      <trkpt lat="47.556302" lon="7.943858">
        <ele>298.773307</ele>
        <time>2021-11-14T18:28:48.513Z</time>
      </trkpt>
      <trkpt lat="47.556288" lon="7.943830">
        <ele>298.762932</ele>
        <time>2021-11-14T18:28:48.867Z</time>
      </trkpt>
      <trkpt lat="47.556069" lon="7.943386">
        <ele>298.599193</ele>
        <time>2021-11-14T18:28:54.428Z</time>
      </trkpt>
      <trkpt lat="47.555911" lon="7.943042">
        <ele>298.517546</ele>
        <time>2021-11-14T18:28:58.830Z</time>
      </trkpt>
      <trkpt lat="47.555828" lon="7.942869">
        <ele>298.480342</ele>
        <time>2021-11-14T18:29:01.155Z</time>
      </trkpt>
      <trkpt lat="47.555765" lon="7.942732">
        <ele>298.451284</ele>
        <time>2021-11-14T18:29:02.867Z</time>
      </trkpt>
      <trkpt lat="47.555711" lon="7.942617">
        <ele>298.426728</ele>
        <time>2021-11-14T18:29:04.257Z</time>
      </trkpt>
      <trkpt lat="47.555633" lon="7.942436">
        <ele>298.389086</ele>
        <time>2021-11-14T18:29:06.379Z</time>
      </trkpt>
      <trkpt lat="47.555530" lon="7.942195">
        <ele>298.339086</ele>
        <time>2021-11-14T18:29:08.942Z</time>
      </trkpt>
      <trkpt lat="47.555494" lon="7.942104">
        <ele>298.320598</ele>
        <time>2021-11-14T18:29:09.889Z</time>
      </trkpt>
      <trkpt lat="47.555456" lon="7.942017">
        <ele>298.302433</ele>
        <time>2021-11-14T18:29:10.819Z</time>
      </trkpt>
      <trkpt lat="47.555313" lon="7.941663">
        <ele>298.230119</ele>
        <time>2021-11-14T18:29:14.323Z</time>
      </trkpt>
      <trkpt lat="47.555223" lon="7.941452">
        <ele>298.186367</ele>
        <time>2021-11-14T18:29:16.566Z</time>
      </trkpt>
      <trkpt lat="47.554981" lon="7.940858">
        <ele>298.002990</ele>
        <time>2021-11-14T18:29:22.859Z</time>
      </trkpt>
      <trkpt lat="47.554831" lon="7.940510">
        <ele>297.833683</ele>
        <time>2021-11-14T18:29:26.734Z</time>
      </trkpt>
      <trkpt lat="47.554786" lon="7.940407">
        <ele>297.783374</ele>
        <time>2021-11-14T18:29:27.810Z</time>
      </trkpt>
      <trkpt lat="47.554653" lon="7.940102">
        <ele>297.634483</ele>
        <time>2021-11-14T18:29:31.094Z</time>
      </trkpt>
      <trkpt lat="47.554446" lon="7.939644">
        <ele>297.408471</ele>
        <time>2021-11-14T18:29:35.903Z</time>
      </trkpt>
      <trkpt lat="47.554246" lon="7.939196">
        <ele>297.188227</ele>
        <time>2021-11-14T18:29:40.458Z</time>
      </trkpt>
      <trkpt lat="47.554109" lon="7.938885">
        <ele>297.035949</ele>
        <time>2021-11-14T18:29:43.600Z</time>
      </trkpt>
      <trkpt lat="47.553978" lon="7.938519">
        <ele>296.917192</ele>
        <time>2021-11-14T18:29:47.109Z</time>
      </trkpt>
      <trkpt lat="47.553909" lon="7.938319">
        <ele>296.856057</ele>
        <time>2021-11-14T18:29:49.043Z</time>
      </trkpt>
      <trkpt lat="47.553848" lon="7.938105">
        <ele>296.792828</ele>
        <time>2021-11-14T18:29:51.156Z</time>
      </trkpt>
      <trkpt lat="47.553805" lon="7.937948">
        <ele>296.746712</ele>
        <time>2021-11-14T18:29:52.694Z</time>
      </trkpt>
      <trkpt lat="47.553775" lon="7.937797">
        <ele>296.703869</ele>
        <time>2021-11-14T18:29:54.082Z</time>
      </trkpt>
      <trkpt lat="47.553769" lon="7.937764">
        <ele>296.694567</ele>
        <time>2021-11-14T18:29:54.398Z</time>
      </trkpt>
      <trkpt lat="47.553744" lon="7.937573">
        <ele>296.641612</ele>
        <time>2021-11-14T18:29:56.252Z</time>
      </trkpt>
      <trkpt lat="47.553727" lon="7.937367">
        <ele>296.585125</ele>
        <time>2021-11-14T18:29:58.160Z</time>
      </trkpt>
      <trkpt lat="47.553724" lon="7.937134">
        <ele>296.521696</ele>
        <time>2021-11-14T18:30:00.328Z</time>
      </trkpt>
      <trkpt lat="47.553732" lon="7.936945">
        <ele>296.470153</ele>
        <time>2021-11-14T18:30:02.121Z</time>
      </trkpt>
      <trkpt lat="47.553754" lon="7.936703">
        <ele>296.403691</ele>
        <time>2021-11-14T18:30:04.359Z</time>
      </trkpt>
      <trkpt lat="47.553763" lon="7.936585">
        <ele>296.371369</ele>
        <time>2021-11-14T18:30:05.489Z</time>
      </trkpt>
      <trkpt lat="47.553712" lon="7.936520">
        <ele>296.344240</ele>
        <time>2021-11-14T18:30:06.446Z</time>
      </trkpt>
      <trkpt lat="47.553680" lon="7.936493">
        <ele>296.329389</ele>
        <time>2021-11-14T18:30:06.969Z</time>
      </trkpt>
      <trkpt lat="47.553579" lon="7.936483">
        <ele>296.290059</ele>
        <time>2021-11-14T18:30:08.370Z</time>
      </trkpt>
      <trkpt lat="47.553468" lon="7.936486">
        <ele>296.261309</ele>
        <time>2021-11-14T18:30:09.960Z</time>
      </trkpt>
      <trkpt lat="47.553364" lon="7.936511">
        <ele>296.234025</ele>
        <time>2021-11-14T18:30:11.516Z</time>
      </trkpt>
      <trkpt lat="47.553216" lon="7.936481">
        <ele>296.195342</ele>
        <time>2021-11-14T18:30:13.824Z</time>
      </trkpt>
      <trkpt lat="47.553130" lon="7.936464">
        <ele>296.172874</ele>
        <time>2021-11-14T18:30:15.201Z</time>
      </trkpt>
      <trkpt lat="47.553015" lon="7.936441">
        <ele>296.142823</ele>
        <time>2021-11-14T18:30:17.107Z</time>
      </trkpt>
      <trkpt lat="47.552921" lon="7.936425">
        <ele>296.118321</ele>
        <time>2021-11-14T18:30:18.735Z</time>
      </trkpt>
      <trkpt lat="47.552791" lon="7.936403">
        <ele>296.084437</ele>
        <time>2021-11-14T18:30:20.575Z</time>
      </trkpt>
      <trkpt lat="47.552493" lon="7.936374">
        <ele>296.007100</ele>
        <time>2021-11-14T18:30:25.050Z</time>
      </trkpt>
      <trkpt lat="47.552311" lon="7.936357">
        <ele>295.959875</ele>
        <time>2021-11-14T18:30:27.572Z</time>
      </trkpt>
      <trkpt lat="47.551926" lon="7.936360">
        <ele>295.860173</ele>
        <time>2021-11-14T18:30:32.835Z</time>
      </trkpt>
      <trkpt lat="47.551730" lon="7.936373">
        <ele>295.674381</ele>
        <time>2021-11-14T18:30:35.492Z</time>
      </trkpt>
      <trkpt lat="47.551599" lon="7.936386">
        <ele>295.379495</ele>
        <time>2021-11-14T18:30:37.131Z</time>
      </trkpt>
      <trkpt lat="47.551477" lon="7.936401">
        <ele>295.104540</ele>
        <time>2021-11-14T18:30:38.502Z</time>
      </trkpt>
      <trkpt lat="47.551303" lon="7.936435">
        <ele>294.710351</ele>
        <time>2021-11-14T18:30:40.441Z</time>
      </trkpt>
      <trkpt lat="47.550607" lon="7.936694">
        <ele>293.098578</ele>
        <time>2021-11-14T18:30:48.079Z</time>
      </trkpt>
      <trkpt lat="47.550599" lon="7.936700">
        <ele>293.078439</ele>
        <time>2021-11-14T18:30:48.164Z</time>
      </trkpt>
      <trkpt lat="47.550221" lon="7.936962">
        <ele>292.141140</ele>
        <time>2021-11-14T18:30:52.482Z</time>
      </trkpt>
      <trkpt lat="47.550098" lon="7.937070">
        <ele>291.820011</ele>
        <time>2021-11-14T18:30:53.876Z</time>
      </trkpt>
      <trkpt lat="47.549970" lon="7.937189">
        <ele>291.399348</ele>
        <time>2021-11-14T18:30:55.406Z</time>
      </trkpt>
      <trkpt lat="47.549714" lon="7.937478">
        <ele>290.484876</ele>
        <time>2021-11-14T18:30:58.643Z</time>
      </trkpt>
      <trkpt lat="47.549404" lon="7.937916">
        <ele>289.267746</ele>
        <time>2021-11-14T18:31:02.992Z</time>
      </trkpt>
      <trkpt lat="47.549168" lon="7.938309">
        <ele>288.258941</ele>
        <time>2021-11-14T18:31:06.609Z</time>
      </trkpt>
      <trkpt lat="47.549055" lon="7.938483">
        <ele>287.795866</ele>
        <time>2021-11-14T18:31:08.227Z</time>
      </trkpt>
      <trkpt lat="47.548679" lon="7.939412">
        <ele>286.449798</ele>
        <time>2021-11-14T18:31:16.322Z</time>
      </trkpt>
      <trkpt lat="47.548592" lon="7.939666">
        <ele>286.320475</ele>
        <time>2021-11-14T18:31:18.702Z</time>
      </trkpt>
      <trkpt lat="47.548585" lon="7.939688">
        <ele>286.309432</ele>
        <time>2021-11-14T18:31:18.907Z</time>
      </trkpt>
      <trkpt lat="47.548563" lon="7.939753">
        <ele>286.276417</ele>
        <time>2021-11-14T18:31:19.506Z</time>
      </trkpt>
      <trkpt lat="47.548509" lon="7.939765">
        <ele>286.239687</ele>
        <time>2021-11-14T18:31:20.135Z</time>
      </trkpt>
      <trkpt lat="47.548479" lon="7.939789">
        <ele>286.216752</ele>
        <time>2021-11-14T18:31:20.533Z</time>
      </trkpt>
      <trkpt lat="47.548455" lon="7.939823">
        <ele>286.194415</ele>
        <time>2021-11-14T18:31:20.945Z</time>
      </trkpt>
      <trkpt lat="47.548437" lon="7.939866">
        <ele>286.171442</ele>
        <time>2021-11-14T18:31:21.364Z</time>
      </trkpt>
      <trkpt lat="47.548426" lon="7.939924">
        <ele>286.144089</ele>
        <time>2021-11-14T18:31:21.879Z</time>
      </trkpt>
      <trkpt lat="47.548427" lon="7.939957">
        <ele>286.129090</ele>
        <time>2021-11-14T18:31:22.192Z</time>
      </trkpt>
      <trkpt lat="47.548446" lon="7.940038">
        <ele>286.090156</ele>
        <time>2021-11-14T18:31:22.939Z</time>
      </trkpt>
      <trkpt lat="47.548468" lon="7.940081">
        <ele>286.065658</ele>
        <time>2021-11-14T18:31:23.446Z</time>
      </trkpt>
      <trkpt lat="47.548420" lon="7.940256">
        <ele>285.979893</ele>
        <time>2021-11-14T18:31:25.097Z</time>
      </trkpt>
      <trkpt lat="47.548303" lon="7.940599">
        <ele>285.805402</ele>
        <time>2021-11-14T18:31:29.024Z</time>
      </trkpt>
      <trkpt lat="47.548195" lon="7.940950">
        <ele>285.630259</ele>
        <time>2021-11-14T18:31:33.012Z</time>
      </trkpt>
      <trkpt lat="47.547852" lon="7.942144">
        <ele>285.772071</ele>
        <time>2021-11-14T18:31:47.464Z</time>
      </trkpt>
      <trkpt lat="47.547772" lon="7.942416">
        <ele>285.868703</ele>
        <time>2021-11-14T18:31:51.081Z</time>
      </trkpt>
      <trkpt lat="47.547436" lon="7.943731">
        <ele>286.326645</ele>
        <time>2021-11-14T18:32:07.312Z</time>
      </trkpt>
      <trkpt lat="47.547297" lon="7.944159">
        <ele>286.439878</ele>
        <time>2021-11-14T18:32:12.625Z</time>
      </trkpt>
      <trkpt lat="47.547246" lon="7.944330">
        <ele>286.483560</ele>
        <time>2021-11-14T18:32:14.807Z</time>
      </trkpt>
      <trkpt lat="47.547178" lon="7.944456">
        <ele>286.521255</ele>
        <time>2021-11-14T18:32:16.590Z</time>
      </trkpt>
      <trkpt lat="47.547134" lon="7.944545">
        <ele>286.547032</ele>
        <time>2021-11-14T18:32:17.658Z</time>
      </trkpt>
      <trkpt lat="47.546764" lon="7.945239">
        <ele>286.753675</ele>
        <time>2021-11-14T18:32:26.519Z</time>
      </trkpt>
      <trkpt lat="47.546516" lon="7.946289">
        <ele>287.374416</ele>
        <time>2021-11-14T18:32:38.490Z</time>
      </trkpt>
      <trkpt lat="47.546519" lon="7.946567">
        <ele>287.855375</ele>
        <time>2021-11-14T18:32:42.021Z</time>
      </trkpt>
      <trkpt lat="47.546565" lon="7.946721">
        <ele>288.146691</ele>
        <time>2021-11-14T18:32:44.533Z</time>
      </trkpt>
      <trkpt lat="47.546592" lon="7.946809">
        <ele>288.313906</ele>
        <time>2021-11-14T18:32:45.910Z</time>
      </trkpt>
      <trkpt lat="47.546633" lon="7.946946">
        <ele>288.573144</ele>
        <time>2021-11-14T18:32:48.163Z</time>
      </trkpt>
      <trkpt lat="47.546648" lon="7.947009">
        <ele>288.688706</ele>
        <time>2021-11-14T18:32:49.129Z</time>
      </trkpt>
      <trkpt lat="47.546651" lon="7.947115">
        <ele>288.872230</ele>
        <time>2021-11-14T18:32:50.917Z</time>
      </trkpt>
      <trkpt lat="47.546572" lon="7.947545">
        <ele>289.643125</ele>
        <time>2021-11-14T18:32:58.332Z</time>
      </trkpt>
      <trkpt lat="47.546159" lon="7.949303">
        <ele>293.340313</ele>
        <time>2021-11-14T18:33:37.098Z</time>
      </trkpt>
      <trkpt lat="47.545949" lon="7.950185">
        <ele>295.553714</ele>
        <time>2021-11-14T18:33:57.370Z</time>
      </trkpt>
      <trkpt lat="47.545884" lon="7.950363">
        <ele>296.032666</ele>
        <time>2021-11-14T18:34:01.302Z</time>
      </trkpt>
      <trkpt lat="47.545822" lon="7.950627">
        <ele>296.694189</ele>
        <time>2021-11-14T18:34:06.605Z</time>
      </trkpt>
      <trkpt lat="47.545810" lon="7.950694">
        <ele>296.858240</ele>
        <time>2021-11-14T18:34:07.836Z</time>
      </trkpt>
      <trkpt lat="47.545763" lon="7.950733">
        <ele>297.047115</ele>
        <time>2021-11-14T18:34:09.344Z</time>
      </trkpt>
      <trkpt lat="47.545659" lon="7.950771">
        <ele>297.422676</ele>
        <time>2021-11-14T18:34:11.765Z</time>
      </trkpt>
      <trkpt lat="47.545625" lon="7.950771">
        <ele>297.541884</ele>
        <time>2021-11-14T18:34:12.663Z</time>
      </trkpt>
      <trkpt lat="47.545567" lon="7.950765">
        <ele>297.745733</ele>
        <time>2021-11-14T18:34:14.076Z</time>
      </trkpt>
      <trkpt lat="47.545494" lon="7.950684">
        <ele>297.903517</ele>
        <time>2021-11-14T18:34:16.213Z</time>
      </trkpt>
      <trkpt lat="47.545434" lon="7.950668">
        <ele>297.937397</ele>
        <time>2021-11-14T18:34:17.692Z</time>
      </trkpt>
      <trkpt lat="47.545166" lon="7.950366">
        <ele>298.124525</ele>
        <time>2021-11-14T18:34:24.463Z</time>
      </trkpt>
      <trkpt lat="47.544901" lon="7.950044">
        <ele>298.314997</ele>
        <time>2021-11-14T18:34:30.099Z</time>
      </trkpt>
      <trkpt lat="47.544521" lon="7.949558">
        <ele>298.593988</ele>
        <time>2021-11-14T18:34:36.796Z</time>
      </trkpt>
      <trkpt lat="47.544239" lon="7.949202">
        <ele>298.799891</ele>
        <time>2021-11-14T18:34:41.758Z</time>
      </trkpt>
      <trkpt lat="47.543864" lon="7.948694">
        <ele>299.414272</ele>
        <time>2021-11-14T18:34:49.722Z</time>
      </trkpt>
      <trkpt lat="47.543760" lon="7.948548">
        <ele>299.619952</ele>
        <time>2021-11-14T18:34:51.964Z</time>
      </trkpt>
      <trkpt lat="47.543579" lon="7.948287">
        <ele>299.982550</ele>
        <time>2021-11-14T18:34:57.681Z</time>
      </trkpt>
      <trkpt lat="47.543532" lon="7.948214">
        <ele>300.080305</ele>
        <time>2021-11-14T18:34:58.808Z</time>
      </trkpt>
      <trkpt lat="47.543435" lon="7.948000">
        <ele>300.330089</ele>
        <time>2021-11-14T18:35:01.869Z</time>
      </trkpt>
      <trkpt lat="47.543407" lon="7.947938">
        <ele>300.402374</ele>
        <time>2021-11-14T18:35:03.727Z</time>
      </trkpt>
      <trkpt lat="47.543280" lon="7.947656">
        <ele>300.730873</ele>
        <time>2021-11-14T18:35:08.213Z</time>
      </trkpt>
      <trkpt lat="47.543142" lon="7.947250">
        <ele>301.171359</ele>
        <time>2021-11-14T18:35:15.677Z</time>
      </trkpt>
      <trkpt lat="47.543086" lon="7.947052">
        <ele>301.379387</ele>
        <time>2021-11-14T18:35:19.107Z</time>
      </trkpt>
      <trkpt lat="47.543056" lon="7.946935">
        <ele>301.536909</ele>
        <time>2021-11-14T18:35:21.949Z</time>
      </trkpt>
      <trkpt lat="47.543045" lon="7.946881">
        <ele>301.634547</ele>
        <time>2021-11-14T18:35:23.105Z</time>
      </trkpt>
      <trkpt lat="47.542982" lon="7.946547">
        <ele>302.234851</ele>
        <time>2021-11-14T18:35:28.505Z</time>
      </trkpt>
      <trkpt lat="47.542974" lon="7.946495">
        <ele>302.327171</ele>
        <time>2021-11-14T18:35:30.146Z</time>
      </trkpt>
      <trkpt lat="47.542960" lon="7.946400">
        <ele>302.495490</ele>
        <time>2021-11-14T18:35:32.211Z</time>
      </trkpt>
      <trkpt lat="47.542916" lon="7.945730">
        <ele>303.660743</ele>
        <time>2021-11-14T18:35:44.877Z</time>
      </trkpt>
      <trkpt lat="47.542913" lon="7.945267">
        <ele>304.462239</ele>
        <time>2021-11-14T18:35:53.372Z</time>
      </trkpt>
      <trkpt lat="47.543007" lon="7.943867">
        <ele>306.187638</ele>
        <time>2021-11-14T18:36:14.539Z</time>
      </trkpt>
      <trkpt lat="47.543161" lon="7.942213">
        <ele>306.607792</ele>
        <time>2021-11-14T18:36:32.945Z</time>
      </trkpt>
      <trkpt lat="47.543435" lon="7.940670">
        <ele>305.697453</ele>
        <time>2021-11-14T18:36:45.893Z</time>
      </trkpt>
      <trkpt lat="47.543826" lon="7.939433">
        <ele>304.382930</ele>
        <time>2021-11-14T18:36:56.294Z</time>
      </trkpt>
      <trkpt lat="47.544472" lon="7.937932">
        <ele>302.270807</ele>
        <time>2021-11-14T18:37:09.618Z</time>
      </trkpt>
      <trkpt lat="47.544705" lon="7.937395">
        <ele>301.493414</ele>
        <time>2021-11-14T18:37:14.458Z</time>
      </trkpt>
      <trkpt lat="47.544903" lon="7.936917">
        <ele>300.835620</ele>
        <time>2021-11-14T18:37:18.718Z</time>
      </trkpt>
      <trkpt lat="47.545074" lon="7.936484">
        <ele>300.355319</ele>
        <time>2021-11-14T18:37:22.549Z</time>
      </trkpt>
      <trkpt lat="47.545457" lon="7.935110">
        <ele>298.932076</ele>
        <time>2021-11-14T18:37:33.918Z</time>
      </trkpt>
      <trkpt lat="47.545674" lon="7.933625">
        <ele>298.595638</ele>
        <time>2021-11-14T18:37:46.998Z</time>
      </trkpt>
      <trkpt lat="47.545702" lon="7.933290">
        <ele>298.674178</ele>
        <time>2021-11-14T18:37:50.578Z</time>
      </trkpt>
      <trkpt lat="47.545724" lon="7.932758">
        <ele>298.798192</ele>
        <time>2021-11-14T18:37:56.845Z</time>
      </trkpt>
      <trkpt lat="47.545721" lon="7.931992">
        <ele>298.976422</ele>
        <time>2021-11-14T18:38:06.884Z</time>
      </trkpt>
      <trkpt lat="47.545696" lon="7.931497">
        <ele>299.532541</ele>
        <time>2021-11-14T18:38:14.090Z</time>
      </trkpt>
      <trkpt lat="47.545661" lon="7.930955">
        <ele>300.247314</ele>
        <time>2021-11-14T18:38:22.785Z</time>
      </trkpt>
      <trkpt lat="47.545563" lon="7.929641">
        <ele>301.982802</ele>
        <time>2021-11-14T18:38:45.125Z</time>
      </trkpt>
      <trkpt lat="47.545475" lon="7.928419">
        <ele>302.046741</ele>
        <time>2021-11-14T18:39:01.427Z</time>
      </trkpt>
      <trkpt lat="47.545421" lon="7.927686">
        <ele>301.652574</ele>
        <time>2021-11-14T18:39:07.531Z</time>
      </trkpt>
      <trkpt lat="47.545406" lon="7.927306">
        <ele>301.449091</ele>
        <time>2021-11-14T18:39:10.434Z</time>
      </trkpt>
      <trkpt lat="47.545407" lon="7.927001">
        <ele>301.286045</ele>
        <time>2021-11-14T18:39:12.721Z</time>
      </trkpt>
      <trkpt lat="47.545409" lon="7.926773">
        <ele>301.164152</ele>
        <time>2021-11-14T18:39:14.350Z</time>
      </trkpt>
      <trkpt lat="47.545417" lon="7.925848">
        <ele>299.170625</ele>
        <time>2021-11-14T18:39:20.685Z</time>
      </trkpt>
      <trkpt lat="47.545446" lon="7.925350">
        <ele>297.904607</ele>
        <time>2021-11-14T18:39:23.977Z</time>
      </trkpt>
      <trkpt lat="47.545466" lon="7.924880">
        <ele>296.711830</ele>
        <time>2021-11-14T18:39:27.030Z</time>
      </trkpt>
      <trkpt lat="47.545481" lon="7.924396">
        <ele>295.484666</ele>
        <time>2021-11-14T18:39:30.114Z</time>
      </trkpt>
      <trkpt lat="47.545521" lon="7.923709">
        <ele>293.991262</ele>
        <time>2021-11-14T18:39:34.639Z</time>
      </trkpt>
      <trkpt lat="47.545536" lon="7.923407">
        <ele>293.556957</ele>
        <time>2021-11-14T18:39:36.787Z</time>
      </trkpt>
      <trkpt lat="47.545553" lon="7.923142">
        <ele>293.175175</ele>
        <time>2021-11-14T18:39:38.618Z</time>
      </trkpt>
      <trkpt lat="47.545587" lon="7.922895">
        <ele>292.813632</ele>
        <time>2021-11-14T18:39:40.552Z</time>
      </trkpt>
      <trkpt lat="47.545641" lon="7.922610">
        <ele>292.389082</ele>
        <time>2021-11-14T18:39:42.697Z</time>
      </trkpt>
      <trkpt lat="47.545690" lon="7.922369">
        <ele>292.028096</ele>
        <time>2021-11-14T18:39:44.704Z</time>
      </trkpt>
      <trkpt lat="47.545699" lon="7.922325">
        <ele>291.962156</ele>
        <time>2021-11-14T18:39:44.998Z</time>
      </trkpt>
      <trkpt lat="47.545714" lon="7.922249">
        <ele>291.848592</ele>
        <time>2021-11-14T18:39:45.588Z</time>
      </trkpt>
      <trkpt lat="47.545778" lon="7.921947">
        <ele>291.394614</ele>
        <time>2021-11-14T18:39:48.291Z</time>
      </trkpt>
      <trkpt lat="47.545810" lon="7.921755">
        <ele>291.110975</ele>
        <time>2021-11-14T18:39:49.771Z</time>
      </trkpt>
      <trkpt lat="47.545881" lon="7.921096">
        <ele>290.441587</ele>
        <time>2021-11-14T18:39:55.233Z</time>
      </trkpt>
      <trkpt lat="47.545913" lon="7.920765">
        <ele>290.360667</ele>
        <time>2021-11-14T18:39:58.126Z</time>
      </trkpt>
      <trkpt lat="47.545973" lon="7.920313">
        <ele>290.249187</ele>
        <time>2021-11-14T18:40:02.596Z</time>
      </trkpt>
      <trkpt lat="47.546128" lon="7.919617">
        <ele>290.071824</ele>
        <time>2021-11-14T18:40:09.837Z</time>
      </trkpt>
      <trkpt lat="47.546262" lon="7.919081">
        <ele>289.933500</ele>
        <time>2021-11-14T18:40:15.885Z</time>
      </trkpt>
      <trkpt lat="47.546821" lon="7.916867">
        <ele>289.081952</ele>
        <time>2021-11-14T18:40:36.553Z</time>
      </trkpt>
      <trkpt lat="47.547032" lon="7.916218">
        <ele>288.840390</ele>
        <time>2021-11-14T18:40:42.861Z</time>
      </trkpt>
      <trkpt lat="47.547091" lon="7.916039">
        <ele>288.830399</ele>
        <time>2021-11-14T18:40:44.635Z</time>
      </trkpt>
      <trkpt lat="47.547113" lon="7.915971">
        <ele>288.826617</ele>
        <time>2021-11-14T18:40:45.225Z</time>
      </trkpt>
      <trkpt lat="47.547423" lon="7.915080">
        <ele>288.776340</ele>
        <time>2021-11-14T18:40:54.712Z</time>
      </trkpt>
      <trkpt lat="47.547994" lon="7.913433">
        <ele>289.035730</ele>
        <time>2021-11-14T18:41:14.416Z</time>
      </trkpt>
      <trkpt lat="47.548027" lon="7.913334">
        <ele>289.099708</ele>
        <time>2021-11-14T18:41:15.776Z</time>
      </trkpt>
      <trkpt lat="47.548412" lon="7.912168">
        <ele>289.851835</ele>
        <time>2021-11-14T18:41:32.179Z</time>
      </trkpt>
      <trkpt lat="47.549012" lon="7.910340">
        <ele>291.329741</ele>
        <time>2021-11-14T18:41:59.135Z</time>
      </trkpt>
      <trkpt lat="47.549102" lon="7.910058">
        <ele>291.580564</ele>
        <time>2021-11-14T18:42:03.246Z</time>
      </trkpt>
      <trkpt lat="47.549195" lon="7.909756">
        <ele>291.847477</ele>
        <time>2021-11-14T18:42:07.567Z</time>
      </trkpt>
      <trkpt lat="47.549315" lon="7.909358">
        <ele>292.197980</ele>
        <time>2021-11-14T18:42:13.174Z</time>
      </trkpt>
      <trkpt lat="47.549520" lon="7.908678">
        <ele>293.069699</ele>
        <time>2021-11-14T18:42:22.846Z</time>
      </trkpt>
      <trkpt lat="47.549539" lon="7.908625">
        <ele>293.150998</ele>
        <time>2021-11-14T18:42:23.581Z</time>
      </trkpt>
      <trkpt lat="47.550497" lon="7.905558">
        <ele>298.697596</ele>
        <time>2021-11-14T18:43:18.476Z</time>
      </trkpt>
      <trkpt lat="47.550283" lon="7.905413">
        <ele>299.435696</ele>
        <time>2021-11-14T18:43:26.642Z</time>
      </trkpt>
      <trkpt lat="47.550067" lon="7.905245">
        <ele>300.200887</ele>
        <time>2021-11-14T18:43:35.328Z</time>
      </trkpt>
      <trkpt lat="47.549867" lon="7.905155">
        <ele>300.856509</ele>
        <time>2021-11-14T18:43:42.957Z</time>
      </trkpt>
      <trkpt lat="47.549868" lon="7.905010">
        <ele>301.163498</ele>
        <time>2021-11-14T18:43:46.362Z</time>
      </trkpt>
      <trkpt lat="47.550025" lon="7.904774">
        <ele>301.909241</ele>
        <time>2021-11-14T18:43:54.513Z</time>
      </trkpt>
      <trkpt lat="47.550302" lon="7.904164">
        <ele>303.785969</ele>
        <time>2021-11-14T18:44:12.812Z</time>
      </trkpt>
      <trkpt lat="47.550498" lon="7.903445">
        <ele>305.765357</ele>
        <time>2021-11-14T18:44:32.384Z</time>
      </trkpt>
      <trkpt lat="47.550688" lon="7.902451">
        <ele>308.402458</ele>
        <time>2021-11-14T18:44:54.932Z</time>
      </trkpt>
      <trkpt lat="47.550757" lon="7.901591">
        <ele>310.759221</ele>
        <time>2021-11-14T18:45:14.729Z</time>
      </trkpt>
      <trkpt lat="47.550769" lon="7.901362">
        <ele>311.385164</ele>
        <time>2021-11-14T18:45:20.636Z</time>
      </trkpt>
      <trkpt lat="47.550801" lon="7.900244">
        <ele>314.434646</ele>
        <time>2021-11-14T18:45:45.034Z</time>
      </trkpt>
      <trkpt lat="47.550819" lon="7.898109">
        <ele>319.825619</ele>
        <time>2021-11-14T18:46:32.074Z</time>
      </trkpt>
      <trkpt lat="47.550648" lon="7.896481">
        <ele>322.903354</ele>
        <time>2021-11-14T18:46:59.729Z</time>
      </trkpt>
      <trkpt lat="47.550639" lon="7.896345">
        <ele>323.032095</ele>
        <time>2021-11-14T18:47:02.104Z</time>
      </trkpt>
      <trkpt lat="47.550660" lon="7.896255">
        <ele>323.121808</ele>
        <time>2021-11-14T18:47:02.905Z</time>
      </trkpt>
      <trkpt lat="47.550838" lon="7.895509">
        <ele>323.867239</ele>
        <time>2021-11-14T18:47:13.073Z</time>
      </trkpt>
      <trkpt lat="47.550878" lon="7.895158">
        <ele>324.202596</ele>
        <time>2021-11-14T18:47:17.135Z</time>
      </trkpt>
      <trkpt lat="47.550908" lon="7.894308">
        <ele>325.179906</ele>
        <time>2021-11-14T18:47:27.607Z</time>
      </trkpt>
      <trkpt lat="47.550892" lon="7.893176">
        <ele>327.177373</ele>
        <time>2021-11-14T18:47:42.325Z</time>
      </trkpt>
      <trkpt lat="47.550904" lon="7.891725">
        <ele>330.027991</ele>
        <time>2021-11-14T18:48:12.087Z</time>
      </trkpt>
      <trkpt lat="47.550915" lon="7.890600">
        <ele>334.492932</ele>
        <time>2021-11-14T18:48:40.927Z</time>
      </trkpt>
      <trkpt lat="47.550833" lon="7.889069">
        <ele>340.600364</ele>
        <time>2021-11-14T18:49:23.561Z</time>
      </trkpt>
      <trkpt lat="47.550831" lon="7.888611">
        <ele>342.463354</ele>
        <time>2021-11-14T18:49:36.131Z</time>
      </trkpt>
      <trkpt lat="47.550789" lon="7.887816">
        <ele>345.706970</ele>
        <time>2021-11-14T18:49:56.743Z</time>
      </trkpt>
      <trkpt lat="47.550758" lon="7.887295">
        <ele>347.834399</ele>
        <time>2021-11-14T18:50:10.564Z</time>
      </trkpt>
      <trkpt lat="47.550677" lon="7.886476">
        <ele>351.151053</ele>
        <time>2021-11-14T18:50:32.053Z</time>
      </trkpt>
      <trkpt lat="47.550548" lon="7.885799">
        <ele>353.501143</ele>
        <time>2021-11-14T18:50:49.256Z</time>
      </trkpt>
      <trkpt lat="47.550391" lon="7.885109">
        <ele>355.933729</ele>
        <time>2021-11-14T18:51:06.893Z</time>
      </trkpt>
      <trkpt lat="47.550332" lon="7.884727">
        <ele>357.242888</ele>
        <time>2021-11-14T18:51:15.584Z</time>
      </trkpt>
      <trkpt lat="47.550234" lon="7.883221">
        <ele>361.594780</ele>
        <time>2021-11-14T18:51:48.415Z</time>
      </trkpt>
      <trkpt lat="47.549927" lon="7.881490">
        <ele>365.876312</ele>
        <time>2021-11-14T18:52:20.679Z</time>
      </trkpt>
      <trkpt lat="47.549726" lon="7.880786">
        <ele>367.978885</ele>
        <time>2021-11-14T18:52:36.656Z</time>
      </trkpt>
      <trkpt lat="47.549327" lon="7.879547">
        <ele>371.859901</ele>
        <time>2021-11-14T18:53:06.440Z</time>
      </trkpt>
      <trkpt lat="47.549318" lon="7.879398">
        <ele>372.282820</ele>
        <time>2021-11-14T18:53:09.628Z</time>
      </trkpt>
      <trkpt lat="47.549140" lon="7.879391">
        <ele>373.028646</ele>
        <time>2021-11-14T18:53:16.498Z</time>
      </trkpt>
      <trkpt lat="47.548718" lon="7.879258">
        <ele>374.438405</ele>
        <time>2021-11-14T18:53:30.169Z</time>
      </trkpt>
      <trkpt lat="47.548422" lon="7.878959">
        <ele>375.399024</ele>
        <time>2021-11-14T18:53:40.816Z</time>
      </trkpt>
      <trkpt lat="47.548234" lon="7.878638">
        <ele>376.168205</ele>
        <time>2021-11-14T18:53:49.248Z</time>
      </trkpt>
      <trkpt lat="47.547992" lon="7.877974">
        <ele>377.533955</ele>
        <time>2021-11-14T18:54:02.345Z</time>
      </trkpt>
      <trkpt lat="47.547574" lon="7.876801">
        <ele>377.501137</ele>
        <time>2021-11-14T18:54:16.109Z</time>
      </trkpt>
      <trkpt lat="47.547126" lon="7.875801">
        <ele>375.843669</ele>
        <time>2021-11-14T18:54:24.891Z</time>
      </trkpt>
      <trkpt lat="47.546309" lon="7.874154">
        <ele>369.735680</ele>
        <time>2021-11-14T18:54:38.080Z</time>
      </trkpt>
      <trkpt lat="47.546135" lon="7.873859">
        <ele>368.235640</ele>
        <time>2021-11-14T18:54:40.462Z</time>
      </trkpt>
      <trkpt lat="47.546077" lon="7.873763">
        <ele>367.742319</ele>
        <time>2021-11-14T18:54:41.273Z</time>
      </trkpt>
      <trkpt lat="47.545934" lon="7.873549">
        <ele>366.589304</ele>
        <time>2021-11-14T18:54:43.077Z</time>
      </trkpt>
      <trkpt lat="47.545746" lon="7.873302">
        <ele>365.163896</ele>
        <time>2021-11-14T18:54:45.365Z</time>
      </trkpt>
      <trkpt lat="47.545515" lon="7.873015">
        <ele>363.200909</ele>
        <time>2021-11-14T18:54:48.064Z</time>
      </trkpt>
      <trkpt lat="47.545478" lon="7.872968">
        <ele>362.867033</ele>
        <time>2021-11-14T18:54:48.506Z</time>
      </trkpt>
      <trkpt lat="47.545375" lon="7.872836">
        <ele>361.934088</ele>
        <time>2021-11-14T18:54:49.699Z</time>
      </trkpt>
      <trkpt lat="47.545131" lon="7.872664">
        <ele>360.083047</ele>
        <time>2021-11-14T18:54:52.158Z</time>
      </trkpt>
      <trkpt lat="47.544883" lon="7.872555">
        <ele>358.310989</ele>
        <time>2021-11-14T18:54:54.481Z</time>
      </trkpt>
      <trkpt lat="47.544390" lon="7.872423">
        <ele>354.879085</ele>
        <time>2021-11-14T18:54:58.945Z</time>
      </trkpt>
      <trkpt lat="47.543332" lon="7.872237">
        <ele>348.763861</ele>
        <time>2021-11-14T18:55:08.712Z</time>
      </trkpt>
      <trkpt lat="47.543251" lon="7.872152">
        <ele>348.252567</ele>
        <time>2021-11-14T18:55:09.654Z</time>
      </trkpt>
      <trkpt lat="47.543233" lon="7.872082">
        <ele>347.992115</ele>
        <time>2021-11-14T18:55:10.074Z</time>
      </trkpt>
      <trkpt lat="47.543013" lon="7.872182">
        <ele>346.806779</ele>
        <time>2021-11-14T18:55:12.315Z</time>
      </trkpt>
      <trkpt lat="47.542919" lon="7.872226">
        <ele>346.299001</ele>
        <time>2021-11-14T18:55:13.236Z</time>
      </trkpt>
      <trkpt lat="47.542814" lon="7.872280">
        <ele>345.726494</ele>
        <time>2021-11-14T18:55:14.289Z</time>
      </trkpt>
      <trkpt lat="47.542714" lon="7.872334">
        <ele>345.178252</ele>
        <time>2021-11-14T18:55:15.377Z</time>
      </trkpt>
      <trkpt lat="47.542537" lon="7.872430">
        <ele>344.207363</ele>
        <time>2021-11-14T18:55:17.110Z</time>
      </trkpt>
      <trkpt lat="47.542436" lon="7.872494">
        <ele>343.641528</ele>
        <time>2021-11-14T18:55:18.444Z</time>
      </trkpt>
      <trkpt lat="47.542394" lon="7.872341">
        <ele>343.085622</ele>
        <time>2021-11-14T18:55:19.531Z</time>
      </trkpt>
      <trkpt lat="47.542218" lon="7.871866">
        <ele>343.085622</ele>
        <time>2021-11-14T18:55:23.202Z</time>
      </trkpt>
      <trkpt lat="47.542091" lon="7.871721">
        <ele>343.085622</ele>
        <time>2021-11-14T18:55:24.719Z</time>
      </trkpt>
      <trkpt lat="47.542067" lon="7.871664">
        <ele>343.085622</ele>
        <time>2021-11-14T18:55:25.447Z</time>
      </trkpt>
      <trkpt lat="47.542039" lon="7.871556">
        <ele>343.085622</ele>
        <time>2021-11-14T18:55:26.345Z</time>
      </trkpt>
      <trkpt lat="47.541953" lon="7.871286">
        <ele>343.085622</ele>
        <time>2021-11-14T18:55:28.530Z</time>
      </trkpt>
      <trkpt lat="47.541796" lon="7.871042">
        <ele>343.085622</ele>
        <time>2021-11-14T18:55:31.077Z</time>
      </trkpt>
      <trkpt lat="47.541780" lon="7.871015">
        <ele>343.085622</ele>
        <time>2021-11-14T18:55:31.380Z</time>
      </trkpt>
    </trkseg>
  </trk>
</gpx>